[[{"header":{"parameterUnit":"m.s-1","parameterCategory":1,"la1":30.6,"la2":29.2853,"lo1":-89.7004,"lo2":-87.6739,"dy":0.0162,"dx":0.0183,"nx":112,"ny":82,"refTime":"2023-06-17T12:00:00:Z","depth":0,"parameterNumber":2,"parameterNumberName":"U-component_of_WINDS"},"data":[0.0,0.0,0.0,0.0,0.0,0.0,0.0,0.0,0.0,0.0,0.0,0.0,0.0,0.0,0.0,0.0,0.0,0.0,0.0,0.0,0.0,0.0,0.0,0.0,0.0,0.0,0.0,0.0,0.0,0.0,0.0,0.0,0.0,0.0,0.0,0.0,0.0,0.0,0.0,0.0,0.0,0.0,0.0,0.0,0.0,0.0,0.0,0.0,0.0,0.0,0.0,0.0,0.0,0.0,0.0,0.0,0.0,0.0,0.0,0.0,0.0,0.0,0.0,0.0,0.0,0.0,0.0,0.0,0.0,0.0,0.0,0.0,0.0,0.0,0.0,0.0,0.0,0.0,0.0,0.0,0.0,0.0,0.0,0.0,0.0,0.0,0.0,0.0,0.0,0.0,-3.1724,-3.1828,-3.2561,-3.32,-3.3646,-3.2814,-3.2102,-3.1694,0.0,0.0,0.0,0.0,0.0,0.0,0.0,0.0,0.0,0.0,0.0,0.0,0.0,0.0,0.0,0.0,0.0,0.0,0.0,0.0,0.0,0.0,0.0,0.0,0.0,0.0,0.0,0.0,0.0,0.0,0.0,0.0,0.0,0.0,0.0,0.0,0.0,0.0,0.0,0.0,0.0,0.0,0.0,0.0,0.0,0.0,0.0,0.0,0.0,0.0,0.0,0.0,0.0,0.0,0.0,0.0,0.0,0.0,0.0,0.0,0.0,0.0,0.0,0.0,0.0,0.0,0.0,0.0,0.0,0.0,0.0,0.0,0.0,0.0,0.0,0.0,0.0,0.0,0.0,0.0,0.0,0.0,0.0,0.0,0.0,0.0,0.0,0.0,0.0,0.0,0.0,0.0,0.0,0.0,0.0,0.0,0.0,0.0,0.0,0.0,0.0,0.0,0.0,0.0,-3.2262,-3.2905,-3.4164,-3.4723,-3.4088,-3.3659,-3.3036,-3.2085,0.0,0.0,0.0,0.0,0.0,0.0,0.0,0.0,0.0,0.0,0.0,0.0,0.0,0.0,0.0,0.0,0.0,0.0,0.0,0.0,0.0,0.0,0.0,0.0,0.0,0.0,0.0,0.0,0.0,0.0,0.0,0.0,0.0,0.0,0.0,0.0,0.0,0.0,0.0,0.0,0.0,0.0,0.0,0.0,0.0,0.0,0.0,0.0,0.0,0.0,0.0,0.0,0.0,0.0,0.0,0.0,0.0,0.0,0.0,0.0,0.0,0.0,0.0,0.0,0.0,0.0,0.0,0.0,0.0,0.0,0.0,0.0,0.0,0.0,0.0,0.0,0.0,0.0,0.0,0.0,0.0,0.0,0.0,0.0,0.0,0.0,0.0,0.0,0.0,0.0,0.0,0.0,0.0,0.0,0.0,0.0,0.0,0.0,0.0,0.0,0.0,0.0,0.0,-3.2879,-3.3424,-3.4581,-3.5275,-3.5612,-3.5583,-3.4545,-3.3685,-3.3107,-3.142,0.0,0.0,0.0,0.0,0.0,0.0,0.0,0.0,0.0,0.0,0.0,0.0,0.0,0.0,0.0,0.0,0.0,0.0,0.0,0.0,0.0,0.0,0.0,0.0,0.0,0.0,0.0,0.0,0.0,0.0,0.0,0.0,0.0,0.0,0.0,0.0,0.0,0.0,0.0,0.0,0.0,0.0,0.0,0.0,0.0,0.0,0.0,0.0,0.0,0.0,0.0,0.0,0.0,0.0,0.0,0.0,0.0,0.0,0.0,0.0,0.0,0.0,0.0,0.0,0.0,0.0,0.0,0.0,0.0,0.0,0.0,0.0,0.0,0.0,0.0,0.0,0.0,0.0,0.0,0.0,0.0,0.0,0.0,0.0,0.0,0.0,0.0,0.0,0.0,0.0,0.0,0.0,0.0,0.0,0.0,0.0,0.0,0.0,0.0,0.0,0.0,0.0,-3.3829,-3.4517,-3.5877,-3.6101,-3.6338,-3.6816,-3.5412,-3.4347,-3.3962,-3.2335,0.0,0.0,0.0,0.0,0.0,0.0,0.0,0.0,0.0,0.0,0.0,0.0,0.0,0.0,0.0,0.0,0.0,0.0,0.0,0.0,0.0,0.0,0.0,0.0,0.0,0.0,0.0,0.0,0.0,0.0,0.0,0.0,0.0,0.0,0.0,0.0,0.0,0.0,0.0,0.0,0.0,0.0,0.0,0.0,0.0,0.0,0.0,0.0,0.0,0.0,0.0,0.0,0.0,0.0,0.0,0.0,0.0,0.0,0.0,0.0,0.0,0.0,0.0,0.0,0.0,0.0,0.0,0.0,0.0,0.0,0.0,0.0,0.0,0.0,0.0,0.0,0.0,0.0,0.0,0.0,0.0,0.0,0.0,0.0,0.0,0.0,0.0,0.0,0.0,0.0,0.0,0.0,0.0,0.0,0.0,0.0,0.0,0.0,0.0,0.0,0.0,0.0,-3.4447,-3.5208,-3.6004,-3.6747,-3.7148,-3.6989,-3.6197,-3.5217,-3.4148,-3.3088,0.0,0.0,0.0,0.0,0.0,0.0,0.0,0.0,0.0,0.0,0.0,0.0,0.0,0.0,0.0,0.0,0.0,0.0,0.0,0.0,0.0,0.0,0.0,0.0,0.0,0.0,0.0,0.0,0.0,0.0,0.0,0.0,0.0,0.0,0.0,0.0,0.0,0.0,0.0,0.0,0.0,0.0,0.0,0.0,0.0,0.0,0.0,0.0,0.0,0.0,0.0,0.0,0.0,0.0,0.0,0.0,0.0,0.0,0.0,0.0,0.0,0.0,0.0,0.0,0.0,0.0,0.0,0.0,0.0,0.0,0.0,0.0,0.0,0.0,0.0,0.0,0.0,0.0,0.0,0.0,0.0,0.0,0.0,0.0,0.0,0.0,0.0,0.0,0.0,0.0,0.0,0.0,0.0,0.0,0.0,0.0,0.0,0.0,0.0,0.0,0.0,0.0,-3.535,-3.6168,-3.6951,-3.7233,-3.7298,-3.7201,-3.6328,-3.5365,-3.4363,0.0,0.0,0.0,0.0,0.0,0.0,0.0,0.0,0.0,0.0,0.0,0.0,0.0,0.0,0.0,0.0,0.0,0.0,0.0,0.0,0.0,0.0,0.0,0.0,0.0,0.0,0.0,0.0,0.0,0.0,0.0,0.0,0.0,0.0,0.0,0.0,0.0,0.0,0.0,0.0,0.0,0.0,0.0,0.0,0.0,0.0,0.0,0.0,0.0,0.0,0.0,0.0,0.0,0.0,0.0,0.0,0.0,0.0,0.0,0.0,0.0,0.0,0.0,0.0,0.0,0.0,0.0,0.0,0.0,0.0,0.0,0.0,0.0,0.0,0.0,0.0,0.0,0.0,0.0,0.0,0.0,0.0,0.0,0.0,0.0,0.0,0.0,0.0,0.0,0.0,0.0,0.0,0.0,0.0,0.0,0.0,0.0,0.0,0.0,0.0,0.0,0.0,-3.5367,-3.6025,-3.6702,-3.7506,-3.7522,-3.7411,-3.7297,-3.667,-3.5741,-3.4476,0.0,0.0,0.0,0.0,0.0,0.0,0.0,0.0,0.0,0.0,0.0,0.0,0.0,0.0,0.0,0.0,0.0,0.0,0.0,0.0,0.0,0.0,0.0,0.0,0.0,0.0,0.0,0.0,0.0,0.0,0.0,0.0,0.0,0.0,0.0,0.0,0.0,0.0,0.0,0.0,0.0,0.0,0.0,0.0,0.0,0.0,0.0,0.0,0.0,0.0,0.0,0.0,0.0,0.0,0.0,0.0,0.0,0.0,0.0,0.0,0.0,0.0,0.0,0.0,0.0,0.0,0.0,0.0,0.0,0.0,0.0,0.0,0.0,0.0,0.0,0.0,0.0,0.0,0.0,0.0,0.0,0.0,0.0,0.0,0.0,0.0,0.0,0.0,0.0,0.0,0.0,0.0,0.0,0.0,0.0,0.0,0.0,0.0,0.0,0.0,0.0,0.0,-3.6203,-3.6399,-3.672,-3.7523,-3.7595,-3.7521,-3.7316,-3.7297,-3.6472,0.0,0.0,0.0,0.0,0.0,0.0,0.0,0.0,0.0,0.0,0.0,0.0,0.0,0.0,0.0,0.0,0.0,0.0,0.0,0.0,0.0,0.0,0.0,0.0,0.0,0.0,0.0,0.0,0.0,0.0,0.0,0.0,0.0,0.0,0.0,0.0,0.0,0.0,0.0,0.0,0.0,0.0,0.0,0.0,0.0,0.0,0.0,0.0,0.0,0.0,0.0,0.0,0.0,0.0,0.0,0.0,0.0,0.0,0.0,0.0,0.0,0.0,0.0,0.0,0.0,0.0,0.0,0.0,0.0,0.0,0.0,0.0,0.0,0.0,0.0,0.0,0.0,0.0,0.0,0.0,0.0,0.0,0.0,0.0,0.0,0.0,0.0,0.0,0.0,0.0,0.0,0.0,0.0,0.0,0.0,0.0,0.0,0.0,0.0,0.0,0.0,0.0,0.0,-3.6328,-3.6899,-3.7345,-3.7577,-3.7522,-3.7411,-3.7297,-3.7203,-3.6589,-3.5259,0.0,0.0,0.0,0.0,0.0,0.0,0.0,0.0,0.0,0.0,0.0,0.0,0.0,0.0,0.0,0.0,0.0,0.0,0.0,0.0,0.0,0.0,0.0,0.0,0.0,0.0,0.0,0.0,0.0,0.0,0.0,0.0,0.0,0.0,0.0,0.0,0.0,0.0,0.0,0.0,0.0,0.0,0.0,0.0,0.0,0.0,0.0,0.0,0.0,0.0,0.0,0.0,0.0,0.0,0.0,0.0,0.0,0.0,0.0,0.0,0.0,0.0,0.0,0.0,0.0,0.0,0.0,0.0,0.0,0.0,0.0,0.0,0.0,0.0,0.0,0.0,0.0,0.0,0.0,0.0,0.0,0.0,0.0,0.0,0.0,0.0,0.0,0.0,0.0,0.0,0.0,0.0,0.0,0.0,0.0,0.0,0.0,0.0,0.0,0.0,0.0,0.0,-3.6773,-3.7504,-3.7984,-3.791,-3.7854,-3.7758,-3.7699,-3.732,-3.6599,-3.5573,0.0,0.0,0.0,0.0,0.0,0.0,0.0,0.0,0.0,0.0,0.0,0.0,0.0,0.0,0.0,0.0,0.0,0.0,0.0,0.0,0.0,0.0,0.0,0.0,0.0,0.0,0.0,0.0,0.0,0.0,0.0,0.0,0.0,0.0,0.0,0.0,0.0,0.0,0.0,0.0,0.0,0.0,0.0,0.0,0.0,0.0,0.0,0.0,0.0,0.0,0.0,0.0,0.0,0.0,0.0,0.0,0.0,0.0,0.0,0.0,0.0,0.0,0.0,0.0,0.0,0.0,0.0,0.0,0.0,0.0,0.0,0.0,0.0,0.0,0.0,0.0,0.0,0.0,0.0,0.0,0.0,0.0,0.0,0.0,0.0,0.0,0.0,0.0,0.0,0.0,0.0,0.0,0.0,0.0,0.0,0.0,0.0,0.0,0.0,0.0,0.0,0.0,-3.7428,-3.821,-3.8651,-3.8516,-3.8477,-3.8455,-3.8393,-3.7571,-3.6696,-3.5742,0.0,0.0,0.0,0.0,0.0,0.0,0.0,0.0,0.0,0.0,0.0,0.0,0.0,0.0,0.0,0.0,0.0,0.0,0.0,0.0,0.0,0.0,0.0,0.0,0.0,0.0,0.0,0.0,0.0,0.0,0.0,0.0,0.0,0.0,0.0,0.0,0.0,0.0,0.0,0.0,0.0,0.0,0.0,0.0,0.0,0.0,0.0,0.0,0.0,0.0,0.0,0.0,0.0,0.0,0.0,0.0,0.0,0.0,0.0,0.0,-4.2213,-4.1189,0.0,0.0,0.0,0.0,0.0,0.0,0.0,0.0,0.0,0.0,0.0,0.0,0.0,0.0,0.0,0.0,0.0,0.0,0.0,0.0,0.0,0.0,0.0,0.0,0.0,0.0,0.0,0.0,0.0,0.0,0.0,0.0,0.0,0.0,0.0,0.0,0.0,0.0,0.0,0.0,-3.8183,-3.8892,-3.9388,-3.9348,-3.9206,-3.91,-3.908,-3.8174,-3.7481,-3.7093,-3.5773,0.0,0.0,0.0,0.0,0.0,0.0,0.0,0.0,0.0,0.0,0.0,0.0,0.0,0.0,0.0,0.0,0.0,0.0,0.0,0.0,0.0,0.0,0.0,0.0,0.0,0.0,0.0,0.0,0.0,0.0,0.0,0.0,0.0,0.0,0.0,0.0,0.0,0.0,0.0,0.0,0.0,0.0,0.0,0.0,0.0,0.0,0.0,0.0,0.0,0.0,0.0,0.0,0.0,0.0,0.0,0.0,0.0,0.0,0.0,-4.3479,-4.2762,0.0,0.0,0.0,0.0,0.0,0.0,0.0,0.0,0.0,0.0,0.0,0.0,0.0,0.0,0.0,0.0,0.0,0.0,0.0,0.0,0.0,0.0,0.0,0.0,0.0,0.0,0.0,0.0,0.0,0.0,0.0,0.0,0.0,0.0,0.0,0.0,0.0,0.0,0.0,0.0,-3.8934,-3.9561,-3.9958,-3.9933,-3.9781,-3.9674,-3.9674,-3.876,-3.8135,-3.8043,-3.6644,0.0,0.0,0.0,0.0,0.0,0.0,0.0,0.0,0.0,0.0,0.0,0.0,0.0,0.0,0.0,0.0,0.0,0.0,0.0,0.0,0.0,0.0,0.0,0.0,0.0,0.0,0.0,0.0,0.0,0.0,0.0,0.0,0.0,0.0,0.0,0.0,0.0,0.0,0.0,0.0,0.0,0.0,0.0,0.0,0.0,0.0,0.0,0.0,0.0,0.0,0.0,0.0,0.0,-4.3896,-4.4503,-4.4909,-4.4801,-4.4783,-4.4833,-4.46,-4.4444,-4.4308,-4.3568,0.0,0.0,0.0,0.0,0.0,0.0,0.0,0.0,0.0,0.0,0.0,0.0,0.0,0.0,0.0,0.0,0.0,0.0,0.0,0.0,0.0,0.0,-4.3853,-4.4454,-4.5055,-4.4705,-4.1904,0.0,0.0,0.0,0.0,0.0,0.0,0.0,0.0,0.0,0.0,0.0,-3.9641,-4.0165,-4.0508,-4.046,-4.0344,-4.0254,-4.0231,-3.9335,-3.8728,-3.8723,-3.7563,-3.6854,0.0,0.0,0.0,0.0,0.0,0.0,0.0,0.0,0.0,0.0,0.0,0.0,0.0,0.0,0.0,0.0,0.0,0.0,0.0,0.0,0.0,0.0,0.0,0.0,0.0,0.0,0.0,0.0,0.0,0.0,0.0,0.0,-3.3985,-3.4649,0.0,0.0,0.0,0.0,0.0,0.0,0.0,0.0,0.0,0.0,0.0,0.0,0.0,-4.2638,-4.2766,-4.384,-4.432,-4.4269,-4.4569,-4.4776,-4.4898,-4.4936,-4.501,-4.5049,-4.4898,0.0,-4.4552,-4.4359,0.0,0.0,0.0,0.0,0.0,0.0,0.0,0.0,0.0,0.0,0.0,0.0,0.0,0.0,0.0,0.0,0.0,0.0,0.0,0.0,0.0,0.0,-4.533,-4.5421,-4.5377,-4.5164,-4.461,-4.3433,-4.2239,-4.1387,-4.0532,-3.9912,0.0,0.0,0.0,0.0,0.0,0.0,-4.0215,-4.0712,-4.1098,-4.1075,-4.1013,-4.0914,-4.0803,-3.9915,-3.9316,-3.9119,-3.8197,-3.7583,-3.7382,-3.6804,0.0,0.0,0.0,0.0,0.0,0.0,0.0,0.0,0.0,0.0,0.0,0.0,0.0,0.0,0.0,0.0,0.0,0.0,0.0,0.0,0.0,0.0,0.0,0.0,0.0,0.0,0.0,0.0,0.0,-3.3811,-3.4921,-3.5756,-3.6896,-3.7749,0.0,0.0,0.0,0.0,0.0,0.0,0.0,0.0,0.0,-4.2455,-4.3372,-4.39,-4.4009,-4.4505,-4.4751,-4.4737,-4.4976,-4.5106,-4.5137,-4.5233,-4.5273,-4.5256,-4.5173,-4.5045,-4.4917,-4.4745,-4.4605,-4.4487,0.0,0.0,0.0,0.0,-4.3138,-4.2813,-4.2749,-4.2751,-4.2751,-4.2685,0.0,0.0,0.0,0.0,0.0,0.0,0.0,-4.4929,-4.5278,-4.5827,-4.6278,-4.6278,-4.6484,-4.6481,-4.5908,-4.5201,-4.4429,-4.3496,-4.2864,-4.2323,-4.1837,-4.1556,0.0,0.0,0.0,-4.1654,-4.2044,-4.2258,-4.233,-4.2275,-4.1816,-4.1454,-4.129,-4.0483,-3.9868,-3.9713,-3.878,-3.8137,-3.7886,-3.7173,-3.6502,0.0,0.0,0.0,0.0,0.0,0.0,0.0,0.0,0.0,0.0,0.0,0.0,0.0,0.0,0.0,0.0,0.0,0.0,0.0,0.0,0.0,0.0,0.0,0.0,0.0,0.0,0.0,0.0,-3.5265,-3.6128,-3.7088,-3.826,-3.9174,0.0,0.0,0.0,0.0,0.0,0.0,-4.2482,-4.3173,-4.3568,-4.3647,-4.4405,-4.4833,-4.4895,-4.4988,-4.5041,-4.5039,-4.5275,-4.5397,-4.541,-4.5506,-4.5506,-4.5419,-4.537,-4.5319,-4.5227,-4.4986,-4.4764,-4.4592,-4.4565,-4.4407,-4.4185,-4.4128,-4.407,-4.4011,-4.3947,-4.3918,-4.3939,-4.4091,-4.428,-4.4397,-4.4311,0.0,0.0,0.0,0.0,-4.6214,-4.6214,-4.6651,-4.7117,-4.7117,-4.737,-4.7452,-4.6714,-4.6496,-4.6127,-4.4965,-4.4595,-4.4241,-4.3572,-4.3238,0.0,-4.2911,-4.2742,-4.2825,-4.3315,-4.3286,-4.3155,-4.3004,-4.243,-4.1987,-4.1852,-4.1214,-4.0765,-4.062,-3.9621,-3.8935,-3.8752,-3.7715,-3.6895,-3.6432,0.0,0.0,0.0,0.0,0.0,0.0,0.0,0.0,0.0,0.0,0.0,0.0,0.0,0.0,0.0,0.0,0.0,0.0,0.0,0.0,0.0,0.0,0.0,0.0,0.0,0.0,0.0,0.0,0.0,-3.8723,-3.9912,0.0,0.0,0.0,0.0,-4.3023,-4.3179,-4.3628,-4.4587,-4.4695,-4.4777,-4.491,-4.5019,-4.5114,-4.5181,-4.5317,-4.538,-4.5371,-4.5524,-4.5609,-4.5682,-4.5682,-4.5624,-4.5481,-4.5494,-4.5438,-4.5371,-4.5174,-4.5,-4.4858,-4.4751,-4.4605,-4.4468,-4.4397,-4.4344,-4.4285,-4.427,-4.4226,-4.428,-4.4931,-4.5564,-4.6075,-4.6075,-4.6043,0.0,0.0,-4.6562,-4.7039,-4.7039,-4.7492,-4.7937,-4.7937,-4.7728,-4.745,-4.7288,-4.7196,-4.6655,-4.495,-4.4445,-4.4216,-4.3933,0.0,-4.3598,-4.3478,-4.3332,-4.3202,-4.313,-4.2987,-4.286,-4.2732,-4.2689,-4.2603,-4.2464,-4.2289,-4.2139,-4.2014,-4.0861,-4.0199,-4.0199,-3.8988,-3.7915,-3.7053,-3.6587,0.0,0.0,0.0,0.0,0.0,0.0,0.0,0.0,0.0,0.0,0.0,0.0,0.0,0.0,0.0,0.0,0.0,0.0,0.0,0.0,0.0,0.0,0.0,0.0,0.0,0.0,0.0,0.0,-3.9878,-4.1109,0.0,-4.2352,-4.3105,-4.3788,-4.4316,-4.4895,-4.5428,-4.5868,-4.6431,-4.6793,-4.6934,-4.6409,-4.6155,-4.6235,-4.5764,-4.554,-4.5533,-4.5665,-4.5753,-4.5823,-4.5777,-4.57,-4.5642,-4.5668,-4.5665,-4.5582,-4.5515,-4.5305,-4.5014,-4.4986,-4.4846,-4.4667,-4.4619,-4.4551,-4.4468,-4.4383,-4.4695,-4.5212,-4.5938,-4.628,-4.6487,-4.7006,-4.705,-4.7056,-4.7572,-4.785,-4.8015,-4.8015,-4.8373,-4.876,-4.8769,-4.8985,-4.9101,-4.8875,-4.8772,-4.8413,-4.7554,-4.6495,-4.5523,-4.4788,-4.4491,-4.4303,-4.4165,-4.3947,-4.3967,-4.4397,-4.4317,-4.4202,-4.4085,-4.3632,-4.3263,-4.3095,-4.251,-4.2105,-4.1986,-4.1372,-4.0943,-4.0762,-4.0102,-3.9492,-3.8983,-3.861,-3.8119,0.0,0.0,0.0,0.0,0.0,0.0,0.0,0.0,0.0,0.0,0.0,0.0,0.0,0.0,0.0,0.0,0.0,0.0,0.0,0.0,0.0,0.0,0.0,0.0,0.0,-3.9401,-4.0221,-4.1097,-4.2555,-4.3632,-4.3952,-4.4947,-4.5679,-4.5928,-4.6507,-4.6912,-4.6997,-4.7573,-4.795,-4.8068,-4.752,-4.7096,-4.6876,-4.6353,-4.5978,-4.5706,-4.5791,-4.5865,-4.5938,-4.5899,-4.5835,-4.5777,-4.5833,-4.5836,-4.5764,-4.5773,-4.5577,-4.5291,-4.5237,-4.5095,-4.4919,-4.4858,-4.4783,-4.4744,-4.4866,-4.5608,-4.6577,-4.703,-4.7295,-4.7537,-4.8044,-4.8057,-4.8029,-4.8547,-4.8605,-4.8587,-4.8844,-4.9112,-4.9354,-4.9563,-4.9867,-5.0035,-4.9757,-4.9591,-4.9387,-4.8976,-4.8003,-4.6991,-4.6227,-4.5932,-4.5623,-4.52,-4.4965,-4.4892,-4.5052,-4.4978,-4.4886,-4.4765,-4.4296,-4.3952,-4.3809,-4.316,-4.2752,-4.2657,-4.1996,-4.1548,-4.1389,-4.0702,-4.0212,-3.9922,-3.944,-3.8995,-3.8656,0.0,0.0,0.0,0.0,0.0,0.0,0.0,0.0,0.0,0.0,0.0,0.0,0.0,0.0,0.0,0.0,0.0,0.0,0.0,0.0,0.0,0.0,0.0,-3.9914,-4.1106,-4.2082,-4.2437,-4.4293,-4.5644,-4.5919,-4.6898,-4.7589,-4.7791,-4.7947,-4.8039,-4.8049,-4.8135,-4.8228,-4.8272,-4.8257,-4.7874,-4.7109,-4.7108,-4.6719,-4.5956,-4.5917,-4.5947,-4.6007,-4.6007,-4.5968,-4.5905,-4.5975,-4.5966,-4.5911,-4.5899,-4.5819,-4.57,-4.5494,-4.5341,-4.5203,-4.5136,-4.5068,-4.5138,-4.5734,-4.6991,-4.8299,-4.8186,-4.8668,-4.9308,-4.9228,-4.9062,-4.8926,-4.8909,-4.8767,-4.879,-4.9527,-4.9614,-4.9681,-5.0297,-5.0299,-5.0118,-4.9824,-4.9667,-4.9466,-4.9054,-4.8753,-4.847,-4.8154,-4.7983,-4.7551,-4.6502,-4.6337,0.0,-4.4967,-4.4837,-4.4754,-4.4615,-4.4615,-4.4615,-4.4615,-4.427,-4.4097,-4.4097,-4.2848,-4.2143,-4.2143,-4.0797,-3.9986,-3.9832,-3.9024,-3.8417,-3.8113,0.0,0.0,0.0,0.0,0.0,0.0,0.0,0.0,0.0,0.0,0.0,0.0,0.0,0.0,0.0,0.0,0.0,0.0,0.0,0.0,0.0,-4.0285,-4.0753,-4.0949,-4.2141,-4.3334,-4.4241,-4.5624,-4.6638,-4.6959,-4.7402,-4.7735,-4.7931,-4.8606,-4.9038,-4.9082,-4.9742,-5.0132,-5.0154,-4.9583,-4.9197,-4.9033,-4.7831,-4.7162,-4.697,-4.6348,-4.608,-4.6146,-4.6146,-4.6107,-4.6045,-4.6063,-4.6099,-4.6115,-4.6007,-4.5958,-4.5893,-4.5696,-4.5549,-4.541,-4.5341,-4.5579,-4.6057,-4.6864,-4.7732,-4.8596,-4.9155,-4.946,-4.9555,-4.9384,-4.9273,-4.9179,-4.9083,-4.8945,-4.8989,-4.9732,-5.0153,-5.0541,-5.1245,-5.1672,-5.1837,-5.1509,-5.1329,-5.1122,-5.072,-5.0374,-4.9713,-4.8345,-4.8074,-4.7887,-4.7379,-4.7105,-4.6663,-4.5855,-4.5563,-4.5235,-4.4666,-4.4615,-4.4615,-4.4615,-4.427,-4.4097,-4.4097,-4.3294,-4.2834,-4.2834,-4.1976,-4.1294,-4.0739,-4.0703,-4.05,0.0,0.0,0.0,0.0,0.0,0.0,0.0,0.0,0.0,0.0,0.0,0.0,0.0,0.0,0.0,0.0,0.0,0.0,0.0,0.0,0.0,0.0,-4.1416,-4.2192,-4.2452,-4.3324,-4.4374,-4.5541,-4.6744,-4.7579,-4.7901,-4.8464,-4.8865,-4.9066,-4.9654,-5.0015,-5.0085,-5.0634,-5.0945,-5.0948,-5.0518,-5.0151,-4.9839,-4.8533,-4.7743,-4.7427,-4.6551,-4.6164,-4.6192,-4.6198,-4.6181,-4.6181,-4.6153,-4.6154,-4.6189,-4.6119,-4.6063,-4.6012,0.0,0.0,0.0,0.0,-4.6158,-4.7067,-4.7548,-4.8452,-4.9423,-4.9794,-4.9871,-4.9788,-4.9611,-4.951,-4.9406,-4.9262,-4.9146,-4.9306,-5.0285,-5.073,-5.1163,-5.2153,-5.2543,-5.2604,-5.2347,-5.2114,-5.1882,-5.1538,-5.1211,0.0,-4.944,-4.9085,-4.8789,-4.8228,-4.7951,-4.7506,-4.6697,-4.6459,-4.6073,-4.532,-4.5196,-4.5021,-4.4716,-4.4344,0.0,0.0,0.0,-4.3121,-4.3134,-4.2622,0.0,0.0,0.0,-4.1683,-4.1422,-4.1904,0.0,0.0,-4.0816,-4.0908,0.0,0.0,0.0,0.0,0.0,0.0,0.0,0.0,0.0,0.0,0.0,0.0,0.0,0.0,0.0,0.0,-4.2232,-4.3605,-4.4041,-4.4581,-4.5329,-4.6465,-4.7623,-4.8449,-4.8778,-4.9695,-5.0359,-5.0582,-5.0702,-5.081,-5.0899,-5.0968,0.0,0.0,0.0,-5.0761,-5.0048,-4.925,-4.8441,-4.7648,-4.6763,-4.6297,-4.6212,-4.6204,-4.6246,-4.6305,-4.6248,-4.6218,-4.6216,-4.6216,-4.617,-4.6092,-4.5966,-4.5905,-4.59,-4.5776,-4.6698,-4.8018,-4.7952,0.0,0.0,-5.0219,-5.0076,-5.0018,-4.9871,-4.9736,-4.9604,-4.9461,-4.9368,-4.9615,-5.0967,-5.1269,-5.1563,-5.2886,-5.302,-5.2779,-5.2549,-5.2317,-5.2078,-5.1765,-5.1513,-5.1255,-5.0928,-5.0537,-4.9975,-4.9095,-4.8856,-4.8426,-4.7586,-4.7427,-4.7107,-4.6321,-4.6056,0.0,-4.499,-4.4462,-4.4126,-4.4097,-4.3558,-4.326,-4.3342,-4.296,-4.2871,-4.3098,-4.2669,-4.2365,-4.2105,-4.2599,-4.2521,-4.1951,-4.1951,-4.1883,0.0,0.0,0.0,0.0,0.0,0.0,0.0,0.0,0.0,0.0,0.0,0.0,0.0,0.0,0.0,-4.0924,-4.2264,-4.3572,-4.4641,-4.5639,-4.6484,-4.7147,-4.8284,-4.9146,-4.9461,-4.9884,-5.0243,-5.05,-5.0644,-5.0775,-5.0899,-5.101,-5.1087,-5.1087,-5.1152,-5.1116,-5.0943,-5.0157,-4.9331,-4.8535,-4.7672,0.0,-4.6278,-4.6283,-4.6284,-4.6305,-4.6287,-4.6285,-4.6276,-4.6276,-4.6238,-4.6167,-4.6026,-4.5986,-4.5974,-4.5886,-4.6866,-4.8234,-4.8174,-4.9211,-5.0546,-5.0459,-5.0337,-5.0219,-5.0082,-4.9952,0.0,-4.9673,-4.9525,-4.9712,-5.116,-5.1414,-5.1621,-5.2972,-5.3212,-5.2999,-5.2572,-5.2475,-5.2317,-5.1932,-5.1733,-5.1564,-5.1384,-5.0919,-5.0411,-5.0133,-4.9832,-4.9384,-4.8609,-4.8312,-4.7911,-4.717,-4.6447,-4.5964,-4.5705,-4.4931,-4.4321,-4.4126,-4.4037,-4.4072,-4.4247,-4.3928,-4.3532,-4.3114,-4.3277,-4.3164,-4.2804,-4.3279,-4.3528,-4.3538,-4.3404,-4.3009,0.0,0.0,0.0,0.0,0.0,0.0,0.0,0.0,0.0,0.0,0.0,-3.7616,-3.8778,0.0,-3.9917,-4.075,-4.2259,-4.359,-4.4444,-4.5889,-4.7112,-4.7868,-4.8597,-4.9195,-4.9525,-4.9811,-5.0101,-5.0371,-5.0516,-5.0682,-5.0846,-5.0945,-5.1039,-5.1094,-5.1163,-5.1205,-5.1211,-5.0443,-4.963,-4.8799,-4.7943,-4.7119,-4.6307,-4.6308,-4.6308,-4.6308,-4.6307,-4.6308,-4.6308,-4.6307,-4.6281,-4.6239,-4.6172,-4.6134,-4.6095,-4.6017,-4.7048,-4.8438,-4.837,-4.9428,-5.0771,-5.0673,-5.0535,-5.0377,-5.0271,-5.017,-5.0031,-4.9843,-4.9731,-4.9879,-5.0893,-5.0992,-5.121,-5.2601,-5.2731,-5.2611,-5.2817,-5.269,-5.2485,-5.2246,-5.2054,-5.1858,-5.1733,-5.1333,-5.0946,-5.0647,-5.0408,-5.01,-4.9663,-4.9487,-4.9125,-4.8383,-4.7451,-4.6721,-4.6278,-4.5541,-4.4923,-4.4528,-4.4837,-4.5062,-4.5157,-4.4818,-4.4579,-4.4448,-4.4318,-4.4117,-4.3815,-4.4155,-4.4298,-4.4184,-4.462,-4.4536,0.0,0.0,0.0,0.0,0.0,0.0,0.0,-3.4545,-3.5234,-3.6424,-3.7022,-3.7674,-3.8794,-3.9339,-3.9765,-4.0319,-4.1933,-4.3321,-4.3915,-4.5595,-4.7104,-4.8113,-4.855,-4.8925,-4.9273,-4.9611,-4.992,-5.0207,-5.0366,-5.0546,-5.0729,-5.0833,-5.0941,-5.1053,-5.1152,-5.1194,-5.1201,-5.0614,-4.9898,-4.9033,-4.8244,-4.7399,-4.6543,-4.6385,-4.6305,-4.6301,-4.6301,-4.6302,-4.6305,-4.6308,-4.6308,-4.6305,-4.6305,-4.6266,-4.6228,-4.6337,-4.7322,-4.8638,-4.8732,-4.975,-5.0993,-5.0877,-5.072,-5.0527,-5.0462,-5.034,-5.02,-5.0025,-4.9933,-5.0033,-5.0594,-5.0595,-5.0787,-5.2084,-5.208,-5.2004,-5.2831,-5.2703,-5.2494,-5.2581,-5.2369,-5.2156,-5.2029,-5.1808,-5.1487,-5.1008,-5.0793,-5.0675,-5.0554,-5.0481,-5.0255,-4.9644,-4.8521,-4.7412,-4.6433,-4.6009,-4.5633,-4.5276,-4.5751,-4.6089,-4.6188,-4.583,-4.5687,-4.5848,-4.5336,-4.4927,-4.461,-4.4832,-4.4819,-4.4663,-4.5466,-4.5648,-2.816,-2.9712,-3.1367,-3.2591,-3.3425,-3.4172,0.0,-3.5557,-3.6168,-3.6735,-3.7172,-3.7557,-3.8112,-3.8595,-3.9071,-3.962,-4.09,-4.2211,-4.3408,-4.4695,-4.595,-4.7106,-4.7915,-4.8532,-4.8907,-4.9273,-4.9577,-4.992,-5.0175,-5.0366,-5.0517,-5.0717,-5.0847,-5.0914,-5.1056,-5.1142,-5.1194,-5.118,-5.0764,-4.9933,-4.9142,-4.8297,-4.7422,-4.6657,-4.63,-4.6294,-4.6294,-4.6294,-4.6295,-4.6301,-4.6305,-4.6308,-4.6308,-4.6307,-4.6379,-4.7077,-4.7912,-4.8787,-4.9503,-5.0326,-5.1076,-5.0993,-5.0885,-5.0738,-5.0616,-5.0474,-5.0371,-5.0278,-5.0076,-5.006,-5.0711,-5.077,-5.0822,-5.1465,-5.149,-5.1547,-5.2187,-5.2151,-5.2184,-5.2809,-5.2739,-5.2518,-5.2434,-5.2317,-5.2036,-5.1487,-5.1193,-5.1052,-5.1025,-5.0865,-5.0714,-5.0643,-4.9196,-4.7509,-4.5683,-4.586,-4.6192,-4.649,-4.6795,-4.7105,-4.7473,-4.7002,-4.6483,-4.6001,-4.5812,-4.5352,-4.461,-4.4611,-4.5039,-4.5789,-4.5503,-4.5332,-2.8543,-3.0015,-3.1382,-3.2552,-3.3325,-3.3962,-3.4587,-3.5118,-3.5559,-3.5944,-3.6275,-3.6677,-3.7145,-3.7546,-3.8039,-3.8723,-3.9887,-4.1047,-4.2022,-4.3234,-4.4504,-4.577,-4.6474,-4.7286,-4.844,-4.889,-4.9257,-4.9577,-4.9893,-5.0163,-5.0366,-5.0537,-5.0699,-5.0839,-5.0961,-5.1076,-5.1142,-5.1219,-5.0835,-5.0037,-4.9741,-4.89,-4.7598,-4.7223,-4.6786,-4.6306,-4.6306,-4.6306,-4.6306,-4.6309,-4.6295,-4.6301,-4.6302,-4.6307,-4.6405,-4.7247,-4.8062,-4.8878,-4.9728,-5.0512,-5.1155,-5.1138,-5.1029,-5.0893,-5.0756,-5.0616,-5.0493,-5.0329,-5.0175,-5.0101,-5.0274,-5.0187,-5.0216,-5.0883,-5.0866,-5.0895,-5.1547,-5.158,-5.1553,-5.1742,-5.2061,-5.2246,-5.2127,-5.2358,-5.249,-5.2191,-5.1815,-5.1531,-5.1454,-5.1384,-5.0909,-4.9817,-4.9019,-4.7795,-4.5925,-4.6247,-4.6728,-4.7073,-4.7475,-4.7838,-4.8162,-4.7655,-4.715,-4.6703,-4.6282,-4.5832,-4.5315,-4.5428,-4.5766,-4.6339,-4.6427,-4.6473,-2.8772,-2.9918,-3.0944,-3.2239,-3.2931,-3.3409,-3.3991,-3.4332,-3.4639,-3.4975,-3.527,-3.561,-3.6056,-3.6477,-3.6995,-3.7719,-3.8801,-3.9869,-4.0762,-4.1878,-4.3069,-4.4408,-4.517,-4.6135,-4.7413,-4.8254,-4.889,-4.9241,-4.9562,-4.9893,-5.0163,-5.0355,-5.0527,-5.0717,-5.0866,-5.0993,-5.1063,-5.1136,-5.0882,-5.0339,-5.0174,-4.9461,-4.8261,-4.7809,-4.7252,-4.6656,-4.6399,-4.63,-4.63,-4.63,-4.6305,-4.629,-4.6293,-4.6301,-4.6405,-4.7283,-4.8112,-4.8917,-4.9796,-5.0596,-5.1222,-5.1211,-5.1119,-5.1015,-5.0893,-5.0764,-5.0616,-5.0421,-5.0306,-5.0194,-4.9999,-4.9816,-4.9814,-5.0315,-5.0226,-5.0249,-5.0982,-5.1026,-5.0972,-5.1044,-5.1483,-5.1772,-5.1607,-5.1959,-5.2309,-5.2382,-5.2123,-5.1886,-5.1884,-5.1692,-5.0907,-4.9279,-4.8795,-4.7925,-4.6291,-4.6712,-4.7212,-4.7569,-4.7974,-4.8357,-4.8685,-4.8195,-4.7737,-4.7352,-4.6807,-4.6353,-4.5936,-4.597,-4.6282,-4.6841,-4.7046,-4.73,-2.8653,-2.931,-3.006,-3.1762,-3.2336,-3.2596,-3.3199,-3.3479,-3.3722,-3.4085,-3.4288,-3.4558,-3.4876,-3.5497,-3.6087,-3.6584,-3.7504,-3.8614,-3.9946,-4.0785,-4.1742,-4.2992,-4.4331,-4.5258,-4.565,-4.728,-4.8476,-4.8891,-4.9225,-4.9566,-4.9893,-5.0151,-5.0374,-5.0507,-5.071,-5.0869,-5.0993,-5.1076,-5.1116,-5.1155,-5.0433,-5.0069,-4.9974,-4.8336,-4.7583,-4.7503,-4.6676,-4.63,-4.63,-4.63,-4.63,-4.6302,-4.629,-4.6294,-4.6412,-4.7282,-4.8104,-4.8927,-4.9796,-5.0628,-5.1284,-5.1226,-5.1157,-5.1081,-5.1015,-5.0901,-5.0775,-5.0635,-5.0442,-5.0267,-5.0133,-5.0005,-4.9857,-4.9759,-4.9578,-4.9646,-5.0528,-5.052,-5.0574,-5.132,-5.1343,-5.1175,-5.1042,-5.0981,-5.1176,-5.183,-5.1899,-5.2005,-5.234,-5.1636,-5.0744,-4.9788,-4.886,-4.7841,-4.6684,-4.7135,-4.7661,-4.8048,-4.8355,-4.8692,-4.9161,-4.8719,-4.8227,-4.7704,-4.7352,-4.6876,-4.6285,-4.5936,-4.637,-4.7448,-4.6895,-4.7221,-2.8453,-2.9084,-2.9799,-3.1386,-3.1936,-3.2155,-3.2453,-3.2561,-3.2632,-3.2761,-3.2925,-3.3171,-3.3492,-3.4075,-3.478,-3.5659,-3.6523,-3.7492,-3.8634,-3.9418,-4.0369,-4.1682,-4.2561,-4.3578,-4.5011,-4.6729,-4.7933,-4.8345,-4.8712,-4.9123,-4.9551,-4.9847,-5.0139,-5.0363,-5.0523,-5.0692,-5.0869,-5.0937,-5.1011,-5.1131,-5.0433,-5.0106,-5.0051,-4.8965,-4.8455,-4.8452,-4.8155,-4.8035,-4.7996,-4.7585,-4.7312,-4.7116,-4.6533,-4.6299,-4.6339,-4.6635,-4.7264,-4.8203,-4.9664,-5.031,-5.0591,-5.1106,-5.1217,-5.1145,-5.1095,-5.0959,-5.0833,-5.0691,-5.0557,-5.0399,-5.0278,-5.0133,-5.0005,-4.9871,-4.9745,-4.972,-4.9932,-4.9815,-4.9763,-4.9994,-5.0381,-5.065,-5.0562,-5.0953,-5.1343,-5.1471,-5.2177,-5.2535,-5.2061,-5.1675,-5.0875,-4.9387,-4.8828,-4.816,-4.7151,-4.7125,-4.7594,-4.8561,-4.846,-4.882,-4.9815,-4.9286,-4.8765,-4.8354,-4.7935,-4.7454,-4.6876,-4.6649,-4.6945,-4.7678,-4.7371,-4.7672,-2.8275,-2.8833,-2.9441,-3.0908,-3.136,-3.1508,-3.1529,-3.1553,-3.1553,-3.1455,-3.1676,-3.1969,-3.2232,-3.2911,-3.3713,-3.4662,-3.5612,-3.6584,-3.7533,-3.8367,-3.929,-4.0359,-4.1214,-4.2238,-4.3586,-4.5411,-4.6869,-4.7736,-4.8175,-4.8604,-4.9055,-4.9404,-4.9745,-5.0044,-5.0224,-5.0418,-5.0625,-5.0736,-5.091,-5.1105,-5.0716,-5.0533,-5.0505,-4.9702,-4.9335,-4.9316,-4.9003,-4.8982,-4.9138,-4.8533,-4.8181,-4.7944,-4.7105,-4.6576,-4.6301,-4.6301,-4.6653,-4.7338,-4.8769,-4.9624,-5.0195,-5.0696,-5.1037,-5.1219,-5.1159,-5.105,-5.0902,-5.0808,-5.0663,-5.0507,-5.0388,-5.0271,-5.0145,-5.0025,-4.9925,-4.9802,-4.9731,-4.9596,-4.9476,-4.9449,-4.9802,-5.0113,-5.0067,-5.069,-5.1126,-5.1039,-5.1936,-5.2372,-5.1673,-5.122,-5.0513,-4.9368,-4.8816,-4.8264,-4.7615,-4.7589,-4.8054,-4.9052,-4.8964,-4.9318,-5.0317,-4.9762,-4.9286,-4.8889,-4.842,-4.7951,-4.7487,-4.7098,-4.7339,-4.811,-4.7754,-4.8044,-2.8142,-2.8533,-2.8995,-3.0338,-3.066,-3.0647,-3.0545,-3.0532,-3.0469,-3.0241,-3.052,-3.0859,-3.1071,-3.1932,-3.2868,-3.3624,-3.4747,-3.585,-3.6707,-3.765,-3.8495,-3.9082,-4.0299,-4.1222,-4.1528,-4.3395,-4.5315,-4.7021,-4.7593,-4.804,-4.844,-4.8849,-4.9214,-4.9569,-4.9833,-5.0063,-5.0286,-5.0488,-5.0758,-5.1093,-5.123,-5.1296,-5.1274,-5.0502,-5.0165,-5.0127,-4.9295,-4.9257,-4.9746,-4.9179,-4.8906,-4.8788,-4.7948,-4.7106,-4.6361,-4.6322,-4.6301,-4.6419,-4.7246,-4.8593,-4.9996,-5.0076,-5.0611,-5.1225,-5.1219,-5.1117,-5.099,-5.091,-5.0771,-5.0587,-5.0527,-5.041,-5.0302,-5.0212,-5.005,-4.9925,-4.9912,-4.9802,-4.9707,-4.9707,-4.9648,-4.9608,-4.9608,-5.0134,-5.0528,-5.0467,-5.1162,-5.1551,-5.1213,-5.038,-4.9768,-4.9655,-4.8802,-4.8149,-4.8032,-4.8448,-4.8956,-4.9512,-4.977,-5.0145,-5.0605,-5.0183,-4.972,-4.9239,-4.8781,-4.8356,-4.8033,-4.7302,-4.7567,-4.8682,-4.811,-4.8255,-2.8071,-2.8448,-2.8764,-2.9948,-3.0228,-3.0152,-2.9806,-2.9574,-2.9419,-2.9223,-2.938,-2.9651,-3.0012,-3.0771,-3.17,-3.2797,-3.3905,-3.4996,-3.6024,-3.6996,-3.7841,-3.8467,-3.9236,-4.005,-4.092,-4.2338,-4.3732,-4.497,-4.6461,-4.7527,-4.804,-4.8421,-4.8832,-4.9233,-4.948,-4.9773,-5.007,-5.0423,-5.0717,-5.0947,-5.1049,-5.1122,-5.1228,-5.1011,-5.0946,-5.0986,-5.0768,-5.0777,-5.0957,-5.0801,-5.0358,-4.9641,-4.8391,-4.7635,-4.7187,-4.6542,-4.6305,-4.6335,-4.6557,-4.7343,-4.8437,-4.9682,-5.025,-5.0503,-5.1108,-5.1225,-5.1119,-5.1004,-5.0902,-5.078,-5.0606,-5.0557,-5.0485,-5.0306,-5.0243,-5.017,-5.0012,-4.9906,-4.983,-4.9792,-4.9721,-4.9663,-4.9663,-4.9818,-4.992,-4.9905,-5.0094,-5.0316,-5.0501,-5.0319,-4.9876,-4.9103,-4.8698,-4.842,-4.8248,-4.866,-4.9224,-4.9897,-5.0205,-5.0558,-5.1017,-5.0547,-5.0114,-4.975,-4.9168,-4.8721,-4.8356,-4.7919,-4.8122,-4.8921,-4.8445,-4.8742,-2.7976,-2.8206,-2.841,-2.9516,-2.9677,-2.9443,-2.9079,-2.8752,-2.8514,-2.8419,-2.8486,-2.87,-2.9211,-2.9947,-3.0897,-3.2101,-3.3213,-3.4346,-3.5529,-3.6508,-3.7342,-3.8042,-3.8606,-3.9368,-4.0477,-4.1644,-4.2813,-4.3923,-4.5688,-4.6931,-4.7424,-4.7862,-4.8309,-4.873,-4.9073,-4.9469,-4.9946,-5.0298,-5.0576,-5.0771,-5.0863,-5.0978,-5.1117,-5.1137,-5.118,-5.1257,-5.1257,-5.1271,-5.1301,-5.131,-5.1049,-5.0516,-4.9335,-4.8416,-4.7651,-4.7049,-4.6601,-4.6303,-4.63,-4.6616,-4.7304,-4.9023,-4.9817,-5.0241,-5.1063,-5.1257,-5.1171,-5.1075,-5.1002,-5.0898,-5.0764,-5.0682,-5.0567,-5.0427,-5.0337,-5.0267,-5.0114,-5.0012,-4.9906,-4.9857,-4.9802,-4.9792,-4.9792,-4.9792,-4.9792,-4.975,-4.975,-4.9818,-5.0012,-4.9971,-4.9685,-4.9084,-4.9153,-4.9214,-4.9066,-4.9841,-5.0411,-5.0645,-5.1011,-5.1233,-5.1331,-5.0847,-5.0408,-5.0028,-4.95,-4.9046,-4.8704,-4.8261,-4.8428,-4.9229,-4.8849,-4.9122,-2.7808,-2.7902,-2.8015,-2.908,-2.904,-2.8685,-2.8471,-2.8075,-2.7742,-2.78,-2.7765,-2.7931,-2.8593,-2.938,-3.033,-3.1502,-3.2648,-3.3851,-3.5091,-3.6039,-3.6891,-3.7666,-3.8282,-3.9042,-4.0084,-4.1228,-4.2338,-4.3389,-4.5027,-4.6175,-4.6747,-4.7226,-4.7695,-4.8267,-4.8678,-4.9246,-4.9995,-5.0272,-5.0562,-5.0864,-5.1018,-5.109,-5.1109,-5.1179,-5.1178,-5.1156,-5.1164,-5.1161,-5.1166,-5.1176,-5.1219,-5.1163,-5.0306,-4.9226,-4.8107,-4.7525,-4.697,-4.6445,-4.6342,-4.6378,-4.6733,-4.8378,-4.9374,-5.0107,-5.1028,-5.1271,-5.1209,-5.1125,-5.1063,-5.1005,-5.0913,-5.0756,-5.0606,-5.0523,-5.0424,-5.0302,-5.0231,-5.0089,-4.9992,-4.9906,-4.9912,-4.9906,-4.9906,-4.9925,-4.9912,-4.9862,-4.9835,-4.9844,-4.9901,-4.9721,-4.9584,-4.949,-4.9989,-5.0283,-5.0194,-5.1314,-5.1833,-5.1471,-5.187,-5.1938,-5.1556,-5.1105,-5.0657,-5.0257,-4.9796,-4.9398,-4.9032,-4.8505,-4.8695,-4.9567,-4.9291,-4.9502,-2.7579,-2.7718,-2.7779,-2.8692,-2.8724,-2.8471,-2.8082,-2.7655,-2.7307,-2.7301,-2.7319,-2.751,-2.8167,-2.8949,-2.9832,-3.0897,-3.2209,-3.343,-3.4423,-3.5462,-3.6352,-3.6996,-3.8027,-3.8916,-3.9511,-4.102,-4.2237,-4.2812,-4.3968,-4.5089,-4.6094,-4.6495,-4.7124,-4.8114,-4.8623,-4.9411,-5.0469,-5.0795,-5.1395,-5.2252,-5.2499,-5.2267,-5.1655,-5.172,-5.1432,-5.0875,-5.0932,-5.0949,-5.0958,-5.1011,-5.1049,-5.0969,-5.0142,-4.9712,-4.9309,-4.72,-4.6782,-4.7202,-4.6523,-4.6776,-4.7533,-4.8569,-4.8984,-4.9393,-5.0921,-5.134,-5.1268,-5.1205,-5.1136,-5.1056,-5.0921,-5.0825,-5.0739,-5.0604,-5.0519,-5.0428,-5.0243,-5.0089,-4.9992,-4.9906,-4.9933,-4.9992,-4.9992,-5.0031,-5.0057,-5.0044,-5.0005,-5.0212,-5.0919,-5.0794,-5.0583,-5.0466,-5.1103,-5.1421,-5.1174,-5.1726,-5.1979,-5.1746,-5.2073,-5.2132,-5.1833,-5.1324,-5.0883,-5.0547,-5.0068,-4.9602,-4.9168,-4.9373,-4.9659,-4.9982,-5.0115,-5.0448,-2.7422,-2.7692,-2.7895,-2.8503,-2.8431,-2.8111,-2.7788,-2.7371,-2.7085,-2.719,-2.7208,-2.7389,-2.8099,-2.887,-2.9716,-3.0746,-3.1992,-3.322,-3.4254,-3.5154,-3.6096,-3.7204,-3.7964,-3.8928,-4.0118,-4.1067,-4.1999,-4.2838,-4.3817,-4.4704,-4.5485,-4.66,-4.7808,-4.905,-4.9575,-5.0213,-5.0956,-5.1284,-5.1782,-5.2375,-5.2583,-5.2537,-5.228,-5.2313,-5.1928,-5.127,-5.1289,-5.1048,-5.0652,-5.0715,-5.075,-5.0698,-5.038,-5.0021,-4.9561,-4.8472,-4.8073,-4.8038,-4.7718,-4.7693,-4.8008,-4.914,-4.9512,-4.9764,-5.1023,-5.1388,-5.1343,-5.1276,-5.1175,-5.1076,-5.0937,-5.0841,-5.0757,-5.0584,-5.0438,-5.0306,-5.0182,-5.0063,-4.9973,-4.9906,-4.9939,-4.9965,-4.9986,-5.0031,-5.0057,-5.0095,-5.0044,-5.0309,-5.1182,-5.1514,-5.162,-5.1487,-5.2046,-5.2331,-5.2084,-5.2544,-5.2706,-5.2453,-5.2431,-5.228,-5.1907,-5.1505,-5.1123,-5.0694,-5.0268,-5.0044,-5.0034,-4.9961,-5.0256,-5.0821,-5.082,-5.0948,-2.7458,-2.7773,-2.8019,-2.8418,-2.8203,-2.7841,-2.7615,-2.7208,-2.6974,-2.7219,-2.7237,-2.7429,-2.8139,-2.8882,-2.9716,-3.0671,-3.1859,-3.3009,-3.4085,-3.4975,-3.6014,-3.7319,-3.8074,-3.9094,-4.0658,-4.1262,-4.201,-4.303,-4.4043,-4.4893,-4.5531,-4.7086,-4.8532,-4.9753,-5.0277,-5.0824,-5.1417,-5.1762,-5.2161,-5.2604,-5.2737,-5.2812,-5.2798,-5.2812,-5.2438,-5.1785,-5.1797,-5.1426,-5.0795,-5.0833,-5.0856,-5.0859,-5.0816,-5.0451,-4.9901,-4.9749,-4.9321,-4.8837,-4.8789,-4.8608,-4.8604,-4.9739,-5.0055,-5.0193,-5.1118,-5.1386,-5.1362,-5.13,-5.1185,-5.1063,-5.0925,-5.0833,-5.071,-5.0502,-5.0474,-5.0453,-5.0374,-5.0443,-5.0518,-5.0456,-5.031,-5.0218,-5.0257,-5.0132,-5.0044,-5.0095,-5.0196,-5.0594,-5.1448,-5.22,-5.2654,-5.2726,-5.3069,-5.3207,-5.3031,-5.3308,-5.3359,-5.3045,-5.2765,-5.2402,-5.1956,-5.1658,-5.1378,-5.112,-5.0697,-5.0662,-5.1107,-5.0805,-5.0972,-5.1679,-5.1519,-5.1441,-2.782,-2.7823,-2.7849,-2.8378,-2.8203,-2.7881,-2.7893,-2.7342,-2.7015,-2.74,-2.7307,-2.747,-2.8311,-2.8961,-2.9678,-3.0494,-3.1626,-3.2739,-3.3563,-3.4947,-3.6104,-3.6712,-3.8305,-3.957,-4.0043,-4.1551,-4.2643,-4.3087,-4.4528,-4.5865,-4.6954,-4.7758,-4.8483,-4.9179,-4.9766,-5.0623,-5.1816,-5.2173,-5.2884,-5.3938,-5.4056,-5.3776,-5.3157,-5.322,-5.2813,-5.2073,-5.2128,-5.2119,-5.2029,-5.204,-5.203,-5.1968,-5.1402,-5.1214,-5.1157,-4.9827,-4.9448,-4.9489,-4.885,-4.9136,-4.9845,-5.0044,-4.9933,-4.9941,-5.1055,-5.136,-5.1301,-5.1219,-5.1153,-5.1076,-5.0937,-5.0808,-5.0645,-5.0393,-5.0858,-5.1345,-5.1222,-5.1766,-5.2251,-5.2186,-5.164,-5.1182,-5.1182,-5.057,-5.0095,-5.0095,-5.0709,-5.1467,-5.2284,-5.2977,-5.3671,-5.4387,-5.434,-5.4192,-5.3997,-5.3662,-5.3381,-5.3096,-5.2773,-5.2449,-5.2102,-5.1708,-5.1669,-5.2048,-5.1623,-5.1616,-5.208,-5.2275,-5.2329,-5.2217,-5.2209,-5.2205,-2.7772,-2.7984,-2.8206,-2.8291,-2.8191,-2.803,-2.7921,-2.7679,-2.7557,-2.7708,-2.7857,-2.8167,-2.8736,-2.947,-3.0241,-3.091,-3.2192,-3.3351,-3.4044,-3.5293,-3.6511,-3.7603,-3.8856,-3.9967,-4.0816,-4.1992,-4.3179,-4.4329,-4.5324,-4.6434,-4.7732,-4.8203,-4.8953,-5.0083,-5.0666,-5.1362,-5.2189,-5.2517,-5.3011,-5.3621,-5.3795,-5.3739,-5.3494,-5.3601,-5.3241,-5.2523,-5.2555,-5.2254,-5.1769,-5.1764,-5.178,-5.1759,-5.1532,-5.1578,-5.1687,-5.0739,-5.0591,-5.081,-5.0143,-5.0262,-5.0719,-5.0715,-5.0628,-5.0647,-5.1177,-5.1297,-5.1233,-5.1161,-5.1056,-5.0944,-5.0816,-5.0606,-5.0522,-5.0841,-5.1084,-5.1378,-5.1806,-5.2115,-5.2315,-5.2288,-5.2082,-5.1907,-5.1954,-5.1321,-5.1007,-5.1541,-5.1431,-5.1771,-5.31,-5.3413,-5.3807,-5.4613,-5.4458,-5.4233,-5.4109,-5.3737,-5.34,-5.3117,-5.3332,-5.3261,-5.2845,-5.3028,-5.3112,-5.304,-5.2699,-5.2695,-5.3043,-5.3063,-5.3028,-5.296,-5.2976,-5.2731,-2.8101,-2.8379,-2.8657,-2.8498,-2.8407,-2.8339,-2.8191,-2.8122,-2.8082,-2.8151,-2.8431,-2.8828,-2.9221,-2.9947,-3.0737,0.0,0.0,-3.3817,-3.458,-3.5899,-3.7172,-3.8311,-3.9439,-4.0507,-4.134,-4.2581,-4.4003,-4.5607,-4.6408,-4.7316,-4.8547,-4.8947,-4.9571,-5.0512,-5.1061,-5.1601,-5.2155,-5.2504,-5.2813,-5.3091,-5.3281,-5.3405,-5.3505,-5.3623,-5.3385,-5.2884,-5.2884,-5.2531,-5.1974,-5.1955,-5.1955,-5.1955,-5.1768,-5.1851,-5.2041,-5.1464,-5.1496,-5.1802,-5.1482,-5.1349,-5.137,-5.147,-5.1293,-5.1086,-5.1502,-5.141,-5.1128,-5.103,-5.089,-5.0804,-5.0884,-5.076,-5.0747,-5.1391,-5.1665,-5.192,-5.2435,-5.2699,-5.2852,-5.2872,-5.2726,-5.2617,-5.2721,-5.2096,-5.1806,-5.2463,-5.2246,-5.2446,-5.3623,-5.3819,-5.4075,-5.4632,-5.4371,-5.4144,-5.4109,-5.3737,-5.3492,-5.3466,-5.3792,-5.3907,-5.3637,-5.4007,-5.4117,-5.3954,-5.3676,-5.369,-5.3992,-5.3811,-5.3661,-5.3567,-5.3467,-5.3125,-2.9079,-2.9091,-2.9091,-2.9091,-2.8922,-2.8803,-2.8803,-2.8657,-2.855,-2.8764,-2.8961,-2.926,-2.9714,-3.0292,-3.1031,-3.2038,-3.285,-3.3813,-3.4938,-3.6678,-3.8023,-3.8427,-4.0143,-4.1309,-4.1309,-4.329,-4.5175,-4.6687,-4.776,-4.8748,-4.9531,-5.0104,-5.0232,-4.9924,-5.0484,-5.1052,-5.1601,-5.1945,-5.228,-5.2613,-5.2743,-5.2872,-5.302,-5.3072,-5.3099,-5.3099,-5.3099,-5.3099,-5.3078,-5.3008,-5.3011,-5.3007,-5.2194,-5.2089,-5.2327,-5.1775,-5.1855,-5.2243,-5.2564,-5.2245,-5.1779,-5.2315,-5.1711,-5.0996,-5.2064,-5.173,-5.0976,-5.0844,-5.0654,-5.064,-5.1235,-5.1345,-5.1424,-5.1964,-5.2736,-5.3327,-5.313,-5.377,-5.4405,-5.4451,-5.3828,-5.333,-5.3467,-5.2813,-5.2313,-5.2385,-5.3139,-5.3688,-5.3707,-5.4273,-5.4689,-5.4708,-5.4356,-5.4109,-5.4109,-5.3737,-5.373,-5.4252,-5.4103,-5.4101,-5.4392,-5.4276,-5.4402,-5.4785,-5.4457,-5.4536,-5.4974,-5.4652,-5.4303,-5.398,-5.36,-5.3411,-2.9314,-2.9197,-2.9091,-2.9091,-2.9052,-2.904,-2.9184,-2.9145,-2.9184,-2.9367,-2.9625,-3.0035,-3.0894,-3.1408,-3.2089,-3.3248,-3.423,-3.5194,-3.6266,-3.7518,-3.8683,-3.9479,-4.139,-4.2905,-4.3512,-4.5028,-4.6268,-4.7027,-4.7666,-4.8339,-4.9138,-4.9494,-5.0041,-5.0898,-5.0942,-5.1157,-5.1657,-5.1545,-5.1569,-5.1782,-5.2144,-5.2345,-5.2392,-5.2545,-5.2662,-5.2751,-5.2662,-5.2662,-5.2769,-5.2654,-5.259,-5.2599,-5.234,-5.2455,-5.2667,-5.2097,-5.214,-5.2432,-5.2235,-5.2073,-5.2028,-5.2291,-5.2148,-5.1962,-5.2233,-5.1938,-5.1559,-5.1882,-5.1859,-5.1741,-5.1845,-5.1771,-5.1792,-5.2428,-5.2757,-5.3043,-5.3478,-5.3831,-5.4072,-5.4074,-5.4065,-5.4065,-5.4112,-5.3512,-5.3282,-5.3944,-5.377,-5.3789,-5.4375,-5.4601,-5.4657,-5.4573,-5.4285,-5.4109,-5.4109,-5.4237,-5.434,-5.4436,-5.519,-5.5594,-5.5496,-5.5785,-5.5955,-5.5889,-5.5564,-5.5373,-5.5341,-5.5009,-5.4802,-5.4733,-5.4398,-5.434,0.0,-2.9741,-2.9586,-2.9586,-2.9586,-2.9625,-2.9741,-2.9931,-3.016,-3.0354,-3.0765,-3.1319,-3.2032,-3.2473,-3.3122,-3.4177,-3.5164,-3.62,-3.7206,-3.8394,-3.9676,-4.1039,-4.2736,-4.4065,-4.4809,-4.6027,-4.6933,-4.7331,-4.8036,-4.8758,-4.94,-4.9803,-5.0473,-5.1463,-5.1221,-5.1124,-5.1367,-5.1332,-5.1272,-5.1166,-5.1561,-5.1822,-5.1963,-5.2138,-5.2286,-5.2402,-5.2309,-5.2333,0.0,-5.2587,-5.2642,-5.2642,-5.29,-5.3177,-5.3431,-5.3083,-5.3227,-5.3545,-5.3014,-5.2779,-5.2682,-5.2802,-5.2786,-5.2685,-5.2369,-5.2044,-5.1866,-5.2087,-5.2096,-5.2068,-5.2215,-5.2156,-5.2224,-5.2847,-5.2957,-5.3048,-5.3509,-5.3641,-5.37,-5.385,-5.4037,-5.4217,-5.4373,-5.4042,-5.4003,-5.4661,-5.4298,-5.4147,-5.4695,-5.4689,-5.459,-5.4522,-5.4268,-5.4221,-5.452,-5.4645,-5.4896,-5.538,-5.6036,-5.6424,-5.6453,-5.668,-5.6662,-5.6401,-5.6134,-5.5822,-5.5507,-5.5318,-5.5401,-5.5752,-5.5536,-5.5525,0.0,-3.0647,-3.0444,-3.0444,-3.0444,-3.0457,-3.0534,-3.0907,0.0,-3.1669,-3.228,-3.283,-3.3133,-3.3524,-3.4076,-3.4934,-3.5849,-3.6839,-3.7894,-3.9319,-4.0941,-4.2835,-4.4,-4.482,-4.5284,-4.6369,-4.7204,-4.764,-4.8836,-4.9701,-5.0159,-5.0771,-5.1263,-5.1639,-5.1311,-5.1043,-5.0887,-5.1296,-5.1272,-5.0809,-5.1088,-5.1384,-5.164,-5.1808,-5.1956,-5.206,-5.206,-5.2078,-5.2132,-5.2792,-5.3046,-5.3056,-5.3706,-5.4132,-5.4363,-5.4442,-5.4786,-5.514,-5.4598,-5.4101,-5.3696,-5.3702,-5.3498,-5.3107,-5.2418,-5.2151,-5.2049,-5.1802,-5.1699,-5.1816,-5.2382,-5.2512,-5.2639,-5.3136,-5.3238,-5.3238,-5.3238,-5.3258,-5.3361,-5.3698,-5.3756,-5.3907,-5.4287,-5.4392,-5.446,-5.4641,-5.4673,-5.4692,-5.4692,-5.459,-5.4505,-5.4486,-5.4306,-5.4502,-5.5324,-5.5034,-5.5394,-5.6816,-5.6639,-5.6715,-5.722,-5.6977,-5.6689,-5.641,-5.6316,-5.6042,-5.5595,-5.5688,-5.6131,-5.689,-5.6848,-5.6869,-3.2019,0.0,-3.0874,-3.0874,-3.0874,-3.1016,0.0,0.0,-3.2147,-3.2841,0.0,-3.3435,-3.4046,-3.4428,-3.5095,-3.6534,-3.7038,-3.7779,-3.9143,-4.0774,-4.2267,-4.353,-4.4544,-4.5299,-4.5815,-4.6696,-4.7483,-4.8099,-4.8569,-4.9178,-4.9916,-5.0113,-5.048,-5.107,-5.1275,-5.1396,-5.1479,-5.16,-5.1382,-5.0804,-5.1335,-5.1382,-5.1017,-5.141,-5.1658,-5.179,-5.179,-5.184,-5.1985,-5.2503,-5.2703,-5.2774,-5.3416,-5.3789,-5.3966,-5.4088,-5.4251,-5.446,-5.4592,-5.4558,-5.4378,-5.3843,-5.3189,-5.2477,-5.2272,-5.2603,-5.3031,-5.2876,-5.2718,-5.2631,-5.2771,-5.2697,-5.2601,-5.2714,-5.268,-5.2635,-5.2747,-5.286,-5.3011,-5.3295,-5.3519,-5.3716,-5.3907,-5.4146,-5.4359,-5.446,-5.4508,-5.4538,-5.4538,-5.4522,-5.4489,-5.4424,-5.4777,-5.5361,-5.622,-5.5887,-5.6027,-5.7002,-5.7221,-5.7376,-5.7486,-5.7156,-5.6873,-5.6689,-5.6832,-5.6705,-5.635,-5.6739,-5.7153,-5.7633,-5.7329,-5.7355,-3.2596,-3.2019,-3.1495,-3.1434,-3.1397,-3.1593,-3.2201,0.0,0.0,0.0,0.0,0.0,-3.4941,-3.5155,-3.5654,-3.692,-3.7551,-3.8505,-4.0364,-4.1736,-4.2953,-4.3905,-4.4951,-4.5757,-4.6224,-4.6883,-4.7673,-4.856,-4.8871,-4.947,-5.035,-5.0677,-5.104,-5.1375,-5.153,-5.1549,-5.1318,-5.1564,-5.1496,-5.108,-5.158,-5.1796,-5.1745,-5.1811,-5.1917,-5.2088,-5.1808,-5.1955,-5.2416,-5.2934,-5.3336,-5.3663,-5.4305,-5.4567,-5.4585,-5.4651,-5.4772,-5.4865,-5.4661,-5.439,-5.4056,-5.3383,-5.2953,-5.2688,-5.2895,-5.2659,-5.2384,-5.2581,-5.2581,-5.2468,-5.2399,-5.2307,-5.2226,-5.2173,-5.2168,-5.2209,-5.2333,-5.2518,-5.2725,-5.2965,-5.3235,-5.3481,-5.3662,-5.3907,-5.4128,-5.4342,-5.4392,-5.4424,-5.4458,-5.4439,-5.4424,-5.4357,-5.4929,-5.5623,-5.6443,-5.6538,-5.6866,-5.7654,-5.7694,-5.7673,-5.7601,-5.7264,-5.6977,-5.6715,-5.7122,-5.7339,-5.7369,-5.7837,-5.8258,-5.8679,-5.8273,-5.8098,-3.2895,-3.2525,-3.225,-3.2059,-3.2023,-3.2148,-3.2517,0.0,0.0,0.0,0.0,0.0,0.0,-3.5791,-3.613,-3.6935,-3.7841,-3.9213,-4.1245,-4.2282,-4.317,-4.4079,-4.5174,-4.606,-4.655,-4.6946,-4.7649,-4.8769,-4.9277,-4.9897,-5.0797,-5.1455,-5.1836,-5.1877,-5.1917,-5.1684,-5.1119,-5.1549,-5.1648,-5.1466,-5.1848,-5.2304,-5.2817,-5.2488,-5.2501,-5.2741,-5.223,-5.2414,-5.3092,-5.3691,-5.4284,-5.4808,-5.5407,-5.5531,-5.5448,-5.5448,-5.5472,-5.5467,-5.4758,-5.4059,-5.3404,-5.2898,-5.2846,-5.3032,-5.345,-5.2473,-5.1374,-5.1884,-5.1922,-5.1775,-5.1676,-5.1651,-5.1626,-5.1597,-5.1708,-5.1808,-5.198,-5.2198,-5.2439,-5.2666,-5.2922,-5.3196,-5.349,-5.3681,-5.387,-5.4183,-5.4254,-5.4307,-5.4375,-5.4375,-5.434,-5.4289,-5.4893,-5.5585,-5.6329,-5.6948,-5.7635,-5.8381,-5.8042,-5.7768,-5.7601,-5.7338,-5.7108,-5.6886,-5.7457,-5.8036,-5.8544,-5.8906,-5.9281,-5.9669,-5.92,-5.884,-3.3276,-3.3171,-3.3016,-3.2682,-3.2561,-3.269,-3.311,0.0,0.0,0.0,0.0,0.0,0.0,-3.6253,-3.6948,-3.7619,-3.8873,-4.0097,-4.1179,-4.2102,-4.302,-4.4079,-4.5025,-4.5821,-4.655,-4.6683,-4.7107,-4.8074,-4.8733,-4.9399,-5.0131,-5.08,-5.1223,-5.1403,-5.1767,-5.2034,-5.2093,-5.2006,-5.185,-5.1665,-5.2342,-5.2588,-5.2495,-5.2798,-5.313,-5.345,-5.346,-5.3549,-5.3709,-5.439,-5.4613,-5.4585,-5.508,-5.5259,-5.5229,-5.5113,-5.4974,-5.4848,-5.4695,-5.417,-5.3475,-5.3376,-5.2887,-5.2347,-5.2428,-5.226,-5.204,-5.2136,-5.1581,-5.0991,-5.0964,-5.0946,-5.0991,-5.1141,-5.1211,-5.129,-5.1531,-5.169,-5.1914,-5.2215,-5.2518,-5.2809,-5.3191,-5.3462,-5.3699,-5.3851,-5.4018,-5.4163,-5.4289,-5.4235,-5.4181,-5.429,-5.4857,-5.5547,-5.6329,-5.6948,-5.7638,-5.8412,-5.816,-5.7862,-5.7625,-5.7338,-5.7489,-5.8099,-5.8383,-5.8906,-5.965,-5.9841,-5.9934,-6.001,-5.9318,-5.8875,-3.3361,-3.3241,-3.3072,-3.2917,-3.2775,-3.282,-3.3207,-3.3687,0.0,0.0,0.0,0.0,-3.571,-3.628,-3.7112,-3.8194,-3.9184,-4.02,-4.1177,-4.1954,-4.2826,-4.4065,-4.4829,-4.5625,-4.6506,-4.6594,-4.7124,-4.8438,-4.8827,-4.9545,-5.0857,-5.1311,-5.1766,-5.2284,-5.2242,-5.2377,-5.2695,-5.2048,-5.1957,-5.2461,-5.2723,-5.2986,-5.3283,-5.3418,-5.3655,-5.3979,-5.3794,-5.3947,-5.4345,-5.4476,-5.4721,-5.5057,-5.5077,-5.4974,-5.479,-5.4557,-5.4318,-5.4141,-5.4141,-5.3869,-5.3447,-5.3447,-5.316,-5.284,-5.284,-5.2399,-5.1941,-5.2192,-5.1593,-5.0915,-5.0915,-5.0676,-5.0509,-5.0582,-5.0719,-5.0865,-5.1079,-5.1271,-5.1528,-5.1871,-5.2191,-5.2522,-5.2912,-5.3214,-5.3481,-5.3774,-5.387,-5.4,-5.4182,-5.4146,-5.411,-5.4147,-5.4783,-5.5509,-5.6288,-5.7006,-5.7659,-5.8301,-5.8133,-5.7927,-5.7721,-5.7528,-5.7738,-5.8383,-5.8916,-5.9424,-5.9916,-6.0402,-6.0436,-6.0089,-5.965,-5.9458,-3.3276,-3.3072,-3.2917,-3.2917,0.0,-3.2778,-3.3029,-3.3554,-3.4068,0.0,-3.5168,-3.571,-3.571,-3.632,-3.7258,-3.8683,-3.9284,-3.9939,-4.0805,-4.1494,-4.2351,-4.3562,-4.4393,-4.5273,-4.627,-4.6506,-4.7183,-4.865,-4.8918,-4.9624,-5.1131,-5.1534,-5.2023,-5.2763,-5.2458,-5.2543,-5.3069,-5.212,-5.2094,-5.3013,-5.2886,-5.323,-5.3931,-5.3905,-5.4087,-5.4455,-5.4116,-5.4317,-5.4871,-5.4606,-5.4811,-5.5282,-5.4992,-5.4652,-5.4271,-5.398,-5.375,-5.3567,-5.3467,-5.3349,-5.3213,-5.3145,-5.3145,-5.3145,-5.3145,-5.2539,-5.1917,-5.2286,-5.1783,-5.1114,-5.0892,-5.0435,-5.0046,-5.0074,-5.0268,-5.0474,-5.063,-5.091,-5.1201,-5.1479,-5.1829,-5.2203,-5.2595,-5.2875,-5.3193,-5.36,-5.3659,-5.3775,-5.4,-5.4018,-5.4,-5.4,-5.4522,-5.5246,-5.6209,-5.7045,-5.7719,-5.8253,-5.8156,-5.802,-5.7904,-5.7768,-5.8033,-5.8809,-5.9341,-5.9872,-6.0368,-6.0867,-6.0805,-6.028,-6.0008,-6.0002,-3.3072,-3.2881,-3.2739,-3.2739,-3.2704,0.0,-3.2508,-3.3366,0.0,-3.4,-3.4883,-3.571,-3.571,-3.6632,-3.7853,-3.9047,-3.9322,-3.9421,-3.9755,-4.0515,-4.1288,-4.2048,-4.3391,-4.4656,-4.5564,-4.6226,-4.7005,-4.7998,-4.866,-4.9227,-4.982,-5.0463,-5.111,-5.1803,-5.1961,-5.2443,-5.3343,-5.2466,-5.2237,-5.2805,-5.2707,-5.3008,-5.3733,-5.404,-5.4468,-5.4966,-5.5029,-5.5119,-5.5172,-5.5142,-5.4996,-5.4741,-5.4589,-5.4207,-5.3733,-5.3534,-5.3382,-5.3179,-5.28,-5.2661,-5.2626,-5.2449,-5.2378,-5.2378,-5.2378,-5.247,-5.2544,-5.2577,-5.2183,-5.1547,-5.058,-4.9957,-4.956,-4.9708,-4.9854,-5.0011,-5.02,-5.0547,-5.0865,-5.1024,-5.142,-5.1835,-5.217,-5.2468,-5.2787,-5.3191,-5.3297,-5.3442,-5.3775,-5.3754,-5.3792,-5.3982,-5.3925,-5.4537,-5.6153,-5.7045,-5.7782,-5.8434,-5.8418,-5.8327,-5.8174,-5.8042,-5.8618,-6.0054,-5.9743,-6.0331,-6.1842,-6.135,-6.0986,-6.074,-6.0294,-6.02,-3.2846,-3.2668,-3.2525,-3.2525,-3.2467,0.0,0.0,-3.3278,-3.405,-3.3908,-3.4856,-3.5791,-3.6034,-3.6749,-3.7542,-3.8205,-3.8724,-3.9158,-3.9394,-4.0313,-4.1174,-4.192,-4.3095,-4.4138,-4.4888,-4.5836,-4.6666,-4.7342,-4.8133,-4.8909,-4.9666,-4.9928,-5.0374,-5.1051,-5.1154,-5.1435,-5.1883,-5.1372,-5.1373,-5.1871,-5.1983,-5.2397,-5.3042,-5.3617,-5.4061,-5.4382,-5.4634,-5.4759,-5.4759,-5.4631,-5.4443,-5.4222,-5.3832,-5.3584,-5.3349,-5.3008,-5.28,-5.259,-5.2307,-5.2181,-5.2089,-5.2017,-5.198,-5.198,-5.198,-5.2053,-5.2125,-5.2125,-5.1688,-5.1121,-5.0658,-5.0221,-4.9763,-4.9348,-4.9471,-4.9679,-4.9854,-5.0068,-5.0335,-5.0686,-5.1026,-5.1408,-5.1914,-5.2191,-5.2499,-5.2893,-5.3109,-5.3297,-5.3481,-5.3539,-5.3599,-5.3678,-5.4102,-5.4822,-5.5969,-5.6839,-5.7632,-5.8385,-5.8443,-5.8418,-5.8327,-5.8197,-5.8814,-6.0292,-6.009,-6.0638,-6.2014,-6.17,-6.1357,-6.0986,-6.045,-6.0674,-3.2596,-3.2431,-3.225,-3.225,0.0,0.0,-3.2459,-3.3278,-3.4041,-3.4151,-3.4939,-3.5737,-3.6207,-3.6728,-3.7203,-3.7634,-3.8399,-3.8997,-3.9247,-4.012,-4.0956,-4.1623,-4.2711,-4.3645,-4.4366,-4.5379,-4.6187,-4.6741,-4.7516,-4.8304,-4.9004,-4.9235,-4.9666,-5.0359,-5.0374,-5.0595,-5.0979,-5.0606,-5.069,-5.1216,-5.123,-5.1623,-5.2326,-5.3042,-5.3467,-5.3684,-5.3996,-5.4158,-5.4158,-5.3994,-5.3848,-5.3617,-5.3162,-5.2921,-5.2782,-5.252,-5.2252,-5.2,-5.1818,-5.1651,-5.1499,-5.1445,-5.1408,-5.1408,-5.1408,-5.1515,-5.1622,-5.161,-5.1381,-5.1056,-5.077,-5.0276,-4.9678,-4.8984,-4.9046,-4.929,-4.9441,-4.9649,-4.9907,-5.0304,-5.0614,-5.0972,-5.1534,-5.1808,-5.2126,-5.2513,-5.2802,-5.302,-5.313,-5.3256,-5.3339,-5.3361,-5.3859,-5.4633,-5.572,-5.6387,-5.7223,-5.8275,-5.8418,-5.8462,-5.8393,-5.8331,-5.8975,-6.043,-6.0329,-6.0868,-6.2123,-6.195,-6.1615,-6.1152,-6.0696,-6.109,-3.2381,-3.2155,-3.189,-3.1904,0.0,0.0,-3.268,-3.3439,-3.4149,-3.468,-3.5103,-3.5574,-3.6194,-3.6588,-3.7004,-3.759,-3.8385,-3.8997,-3.9247,-3.9881,-4.046,-4.0944,-4.2193,-4.3272,-4.3908,-4.4765,-4.5567,-4.6244,-4.6895,-4.74,-4.7604,-4.8235,-4.8943,-4.9651,-4.9682,-5.0101,-5.0964,-5.0328,-5.032,-5.0958,-5.0469,-5.0723,-5.1712,-5.2326,-5.2712,-5.2903,-5.323,-5.3382,-5.3382,-5.3382,-5.3213,-5.2868,-5.2661,-5.2343,-5.2,-5.2,-5.1762,-5.1478,-5.1258,-5.1048,-5.0874,-5.0666,-5.0589,-5.0589,-5.0589,-5.0878,-5.1188,-5.1178,-5.1382,-5.1459,-5.0857,-4.9999,-4.9177,-4.8636,-4.8593,-4.875,-4.894,-4.9246,-4.956,-4.9837,-5.0171,-5.0516,-5.0934,-5.1264,-5.1622,-5.2036,-5.2317,-5.2572,-5.2779,-5.2893,-5.3023,-5.3096,-5.3096,-5.3775,-5.5445,-5.572,-5.6485,-5.8086,-5.8327,-5.8393,-5.8393,-5.8465,-5.9158,-6.0572,-6.0467,-6.1061,-6.2389,-6.2123,-6.1766,-6.1299,-6.0968,-6.1374,-3.2096,-3.2,-3.1947,-3.2188,0.0,0.0,0.0,-3.3865,0.0,-3.5248,-3.544,-3.5412,-3.5463,-3.6066,-3.6667,-3.684,-3.7878,-3.8667,-3.8648,-3.9231,-3.9732,-3.9849,-4.1059,-4.2129,-4.2822,-4.4213,-4.5238,-4.5581,-4.6367,-4.7031,-4.7573,-4.7788,-4.8137,-4.8718,-4.8733,-4.8825,-4.9094,-4.902,-4.9233,-4.9603,-4.9707,-5.0269,-5.1146,-5.1729,-5.2004,-5.2092,-5.2468,-5.2609,-5.2609,-5.2468,-5.2343,-5.2252,-5.1944,-5.1741,-5.1594,-5.1333,-5.1162,-5.1048,-5.0858,-5.0743,-5.0666,-5.0628,-5.0589,-5.0589,-5.0589,-5.0682,-5.0791,-5.0781,-5.0836,-5.0789,-5.0198,-4.9973,-4.966,-4.8894,-4.8545,-4.8339,-4.842,-4.8688,-4.9015,-4.9362,-4.9611,-4.9952,-5.0488,-5.0824,-5.1096,-5.1408,-5.1896,-5.2298,-5.2495,-5.2563,-5.2586,-5.2613,-5.3104,-5.3867,-5.4945,-5.5676,-5.6531,-5.7576,-5.7839,-5.8088,-5.8393,-5.8331,-5.902,-6.0572,-6.0467,-6.1111,-6.2526,-6.2265,-6.196,-6.1644,-6.1193,-6.1579,-3.23,-3.2313,0.0,-3.2625,-3.2627,-3.2918,-3.3953,-3.4352,-3.4697,-3.5453,-3.544,-3.5236,-3.5003,-3.5833,-3.6484,-3.6484,-3.7816,-3.8836,-3.8651,-3.9297,-3.977,-3.9699,-4.0675,-4.1655,-4.2458,-4.3598,-4.4525,-4.4979,-4.5779,-4.6333,-4.6668,-4.6944,-4.7324,-4.7749,-4.7764,-4.7901,-4.8175,-4.8286,-4.851,-4.8841,-4.9072,-4.9557,-5.0301,-5.0946,-5.1285,-5.1413,-5.1676,-5.1822,-5.1822,-5.1676,-5.1619,-5.154,-5.135,-5.1199,-5.1124,-5.0749,-5.0573,-5.0457,-5.0246,-5.0129,-5.0089,-5.0089,-5.0089,-5.0089,-5.0089,-5.0121,-5.0176,-5.0184,-5.0262,-5.0267,-5.0029,-4.9898,-4.9632,-4.8758,-4.8445,-4.8249,-4.8067,-4.8227,-4.8532,-4.8851,-4.9049,-4.9358,-4.9945,-5.0253,-5.054,-5.083,-5.1357,-5.1829,-5.2096,-5.212,-5.2228,-5.2528,-5.2978,-5.374,-5.4856,-5.5541,-5.6255,-5.7102,-5.7363,-5.7607,-5.7927,-5.8088,-5.8952,-6.0567,-6.0515,-6.1184,-6.2603,-6.237,-6.2096,-6.1802,-6.1386,-6.1732,-3.2893,-3.3041,-3.3262,-3.3106,-3.312,-3.3344,-3.4086,-3.4821,-3.5358,-3.5358,-3.5195,-3.5058,-3.4946,-3.5788,-3.6541,-3.6637,-3.8152,-3.9264,-3.9097,-3.9774,-4.0273,-4.0093,-4.0755,-4.1565,-4.2492,-4.3023,-4.3646,-4.4449,-4.511,-4.5448,-4.5314,-4.5871,-4.6392,-4.6856,-4.6872,-4.7175,-4.7782,-4.7782,-4.8023,-4.8444,-4.8444,-4.8723,-4.9235,-5.0058,-5.0541,-5.082,-5.0962,-5.1005,-5.1005,-5.1005,-5.0924,-5.082,-5.0781,-5.0666,-5.0496,-5.0214,-5.0018,-4.9852,-4.9716,-4.9531,-4.9425,-4.9447,-4.9456,-4.9409,-4.9409,-4.9425,-4.949,-4.9548,-4.9717,-4.9876,-5.0081,-4.983,-4.9299,-4.8443,-4.8323,-4.8287,-4.7818,-4.7836,-4.8017,-4.8339,-4.8513,-4.8786,-4.9306,-4.962,-4.9948,-5.0341,-5.0803,-5.1271,-5.1678,-5.1721,-5.2007,-5.2765,-5.2907,-5.353,-5.5,-5.5312,-5.5785,-5.6653,-5.6875,-5.7067,-5.7221,-5.7878,-5.8957,-6.0501,-6.0612,-6.1282,-6.2578,-6.2467,-6.2177,-6.183,-6.1473,-6.1884,-3.3603,-3.3401,0.0,-3.3621,-3.3908,-3.4194,-3.4573,-3.4787,-3.4962,-3.5127,-3.5003,-3.5025,-3.563,-3.6181,-3.6847,-3.7852,-3.8729,-3.9396,-3.9606,-3.9628,-3.9693,-3.985,-4.0307,-4.0837,-4.1553,-4.2624,-4.3446,-4.3771,-4.4304,-4.4802,-4.5244,-4.527,-4.549,-4.5969,-4.5999,-4.6059,-4.621,-4.621,-4.6592,-4.7341,-4.7341,-4.774,-4.8537,-4.9381,-4.9916,-5.0129,-5.0152,-5.0136,-5.0136,-5.0136,-5.0152,-5.0089,-4.9931,-4.9836,-4.9797,-4.9582,-4.9477,-4.9515,-4.9981,-5.0112,-5.0164,-5.071,-5.0507,-5.0071,-5.0071,-4.9753,-4.9347,-4.9356,-4.9396,-4.9437,-4.9461,-4.9527,-4.941,-4.862,-4.8152,-4.7839,-4.7712,-4.7521,-4.7421,-4.7589,-4.7803,-4.8099,-4.8602,-4.8942,-4.9419,-5.0285,-5.0509,-5.0885,-5.1817,-5.1932,-5.2214,-5.2944,-5.3605,-5.4116,-5.4479,-5.5203,-5.5724,-5.5918,-5.661,-5.7127,-5.7405,-5.8112,-5.898,-5.9946,-6.0704,-6.1532,-6.2441,-6.231,-6.215,-6.1932,-6.1672,-6.2063,-3.4328,0.0,0.0,-3.4309,-3.4367,-3.4439,-3.4577,-3.4714,-3.4918,-3.5252,-3.536,-3.5508,-3.5927,-3.67,-3.7524,-3.8285,-3.9191,-3.9848,-4.0054,-4.0235,-4.0274,-4.0106,-4.0434,-4.0837,-4.127,-4.2312,-4.3085,-4.3444,-4.3975,-4.4357,-4.4528,-4.4425,-4.4584,-4.503,-4.5004,-4.5195,-4.5526,-4.5526,-4.5774,-4.6384,-4.6384,-4.6841,-4.7703,-4.8671,-4.9194,-4.9275,-4.9275,-4.9275,-4.9291,-4.9618,-4.9759,-4.979,-4.9994,-5.0076,-5.0035,-4.9857,-4.9773,-4.982,-5.0032,-5.0112,-5.0174,-5.0513,-5.0389,-5.0112,-5.0112,-4.9651,-4.9169,-4.9169,-4.9006,-4.8841,-4.8944,-4.9134,-4.9213,-4.887,-4.8495,-4.8094,-4.7549,-4.7352,-4.7195,-4.7046,-4.7252,-4.7571,-4.7902,-4.8389,-4.8981,-4.9854,-5.0269,-5.0748,-5.1448,-5.1859,-5.2381,-5.31,-5.3582,-5.3982,-5.4348,-5.517,-5.568,-5.5741,-5.6519,-5.7105,-5.7435,-5.8249,-5.9139,-6.0122,-6.0768,-6.1509,-6.231,-6.223,-6.2096,-6.1895,-6.169,-6.2141,-3.5148,0.0,-3.5318,-3.488,-3.4618,-3.4452,-3.4397,-3.4618,-3.4956,-3.5553,-3.5854,-3.6047,-3.6302,-3.7359,-3.8263,-3.8605,-3.9637,-4.0434,-4.0597,-4.1082,-4.1229,-4.0786,-4.0878,-4.1034,-4.1234,-4.1914,-4.2512,-4.3021,-4.3617,-4.3851,-4.3636,-4.3572,-4.3678,-4.4001,-4.4016,-4.4284,-4.4863,-4.4863,-4.502,-4.5361,-4.5522,-4.5992,-4.6728,-4.7729,-4.8304,-4.8495,-4.8495,-4.8495,-4.8541,-4.9232,-4.9508,-4.957,-5.0202,-5.0463,-5.0463,-5.0275,-5.0247,-5.0218,-5.0134,-5.0091,-5.0106,-5.0212,-5.0166,-5.0091,-5.0091,-4.9636,-4.9148,-4.9042,-4.8715,-4.8428,-4.8496,-4.867,-4.8831,-4.8919,-4.8773,-4.8396,-4.751,-4.722,-4.7037,-4.6669,-4.6816,-4.7115,-4.7316,-4.7902,-4.858,-4.9416,-5.0022,-5.0639,-5.1167,-5.1829,-5.2499,-5.3238,-5.3444,-5.3756,-5.4409,-5.5115,-5.5592,-5.5656,-5.6412,-5.6957,-5.7282,-5.8235,-5.925,-6.0264,-6.0738,-6.1344,-6.2024,-6.2069,-6.1978,-6.1774,-6.1749,-6.2284,-3.6068,0.0,-3.5318,0.0,-3.4756,-3.4673,-3.4439,-3.4618,-3.501,-3.5776,-3.5993,-3.6385,-3.7601,-3.8114,-3.8676,-3.9614,-4.0287,-4.0873,-4.1448,-4.1439,-4.1567,-4.2002,-4.1272,-4.0837,-4.1034,-4.1161,-4.148,-4.2112,-4.2462,-4.2863,-4.3339,-4.301,-4.2854,-4.2902,-4.2902,-4.2946,-4.3035,-4.3035,-4.3356,-4.3959,-4.4745,-4.5239,-4.5537,-4.6269,-4.7138,-4.8091,-4.8091,-4.8091,-4.8137,-4.8794,-4.9083,-4.9144,-4.9739,-4.9982,-4.9997,-4.9953,-4.9953,-5.0044,-5.0651,-5.0863,-5.0955,-5.1531,-5.1334,-5.0863,-5.0863,-5.0333,-4.9666,-4.9163,-4.8936,-4.8781,-4.8216,-4.8106,-4.8149,-4.8149,-4.8115,-4.8116,-4.8128,-4.733,-4.6569,-4.6528,-4.6482,-4.6582,-4.7115,-4.7404,-4.8018,-4.937,-4.9668,-5.0301,-5.1941,-5.2227,-5.2567,-5.3296,-5.3957,-5.433,-5.426,-5.4918,-5.5269,-5.5127,-5.5943,-5.6562,-5.6775,-5.8032,-5.8924,-5.9356,-6.0448,-6.1138,-6.1426,-6.1605,-6.1662,-6.1623,-6.2144,-6.2743,-3.6312,-3.5858,-3.5521,0.0,-3.5044,-3.4921,-3.4825,-3.4949,-3.5421,-3.6483,-3.6868,-3.735,-3.8304,-3.8825,-3.9401,-4.0258,-4.0645,-4.1142,-4.1966,-4.2088,-4.2208,-4.2425,-4.2062,-4.1527,-4.0913,-4.117,-4.1277,-4.098,-4.1391,-4.173,-4.1872,-4.173,-4.1652,-4.1652,-4.1966,-4.2143,-4.2143,-4.2511,-4.2836,-4.3171,-4.3903,-4.4338,-4.4436,-4.5077,-4.5958,-4.6899,-4.7259,-4.7322,-4.7267,-4.8313,-4.8746,-4.8835,-4.982,-5.0223,-5.0223,-5.0223,-5.0223,-5.0268,-5.0612,-5.0732,-5.0777,-5.1061,-5.1035,-5.0873,-5.0764,-5.0346,-4.9793,-4.9418,-4.8761,-4.8044,-4.745,-4.7487,-4.7596,-4.7596,-4.781,-4.8015,-4.8101,-4.7515,-4.6935,-4.688,-4.6617,-4.6732,-4.7705,-4.761,-4.7893,-4.9337,-4.9886,-5.052,-5.1562,-5.2048,-5.2583,-5.3319,-5.3703,-5.4035,-5.4345,-5.4898,-5.5202,-5.5127,-5.5904,-5.6637,-5.7227,-5.7662,-5.8324,-5.918,-6.0133,-6.0709,-6.0926,-6.127,-6.1386,-6.1335,-6.2134,-6.2832,-3.6536,0.0,-3.594,-3.5737,-3.5653,-3.5581,-3.538,-3.5491,-3.5923,-3.6986,-3.757,-3.814,-3.898,-3.9502,-4.0037,-4.0616,-4.0944,-4.1395,-4.2187,-4.25,-4.2632,-4.2641,-4.247,-4.1991,-4.098,-4.1025,-4.0853,-4.0149,-4.0391,-4.0542,-4.0563,-4.0524,-4.0485,-4.0485,-4.0915,-4.1163,-4.1203,-4.1752,-4.2155,-4.2372,-4.2898,-4.3248,-4.3481,-4.4145,-4.4866,-4.5617,-4.6267,-4.6593,-4.6683,-4.7803,-4.8363,-4.8643,-4.9793,-5.0338,-5.0501,-5.0501,-5.0501,-5.0501,-5.0501,-5.0501,-5.0501,-5.0501,-5.0614,-5.0695,-5.0534,-5.0304,-4.9969,-4.9589,-4.8791,-4.783,-4.7165,-4.7185,-4.7329,-4.7165,-4.7381,-4.7664,-4.771,-4.7467,-4.7206,-4.7083,-4.6756,-4.689,-4.7977,-4.7792,-4.7974,-4.932,-5.0,-5.0605,-5.1177,-5.1908,-5.2551,-5.3095,-5.349,-5.3898,-5.4328,-5.4863,-5.5238,-5.5322,-5.5908,-5.665,-5.755,-5.7547,-5.8017,-5.9068,-5.9789,-6.0211,-6.0339,-6.0788,-6.0956,-6.0914,-6.2062,-6.2842,-3.7031,-3.6884,0.0,-3.6592,-3.6845,-3.6916,-3.6115,-3.6108,-3.6407,-3.7066,-3.757,-3.8306,-3.969,-4.0184,-4.0428,-4.0659,-4.1086,-4.1507,-4.1966,-4.2254,-4.25,-4.2684,-4.2138,-4.1661,-4.1379,-4.0305,-3.9759,-4.008,-3.9421,-3.9299,-3.9906,-3.9696,-3.9562,-3.9562,-3.959,-3.9699,-3.9899,-4.0112,-4.0669,-4.1481,-4.151,-4.1928,-4.2762,-4.3452,-4.399,-4.4439,-4.5313,-4.6048,-4.6639,-4.7376,-4.7965,-4.8584,-4.9277,-4.994,-5.0501,-5.0501,-5.0501,-5.0501,-5.0501,-5.0501,-5.0501,-5.0501,-5.0501,-5.0501,-5.0501,-5.0486,-5.0309,-4.966,-4.9439,-4.91,-4.7802,-4.7478,-4.7361,-4.6786,-4.6639,-4.6724,-4.6996,-4.7038,-4.6935,-4.6687,-4.6597,-4.6794,-4.7448,-4.7684,-4.8171,-4.9319,-4.9695,-5.023,-5.1352,-5.2074,-5.2514,-5.2547,-5.3801,-5.4475,-5.4067,-5.4687,-5.5297,-5.5746,-5.5963,-5.6443,-5.72,-5.7818,-5.8363,-5.8807,-5.9426,-5.966,-5.9565,-5.9958,-6.0199,-6.0374,-6.21,-6.2889,-3.7741,0.0,0.0,-3.7731,-3.7659,-3.7558,-3.7298,-3.716,-3.7294,-3.8061,-3.8483,-3.8986,-4.0045,-4.0356,-4.0558,-4.1057,-4.1311,-4.1606,-4.2187,-4.2172,-4.2213,-4.2459,-4.2143,-4.1593,-4.0836,-4.0014,-3.9265,-3.8723,-3.8061,-3.7767,-3.8033,-3.7969,-3.7955,-3.8086,-3.8499,-3.9016,-3.9602,-3.9801,-4.0076,-4.0387,-4.0928,-4.1368,-4.1697,-4.2368,-4.2955,-4.3511,-4.4238,-4.5172,-4.6208,-4.6836,-4.7478,-4.8074,-4.8559,-4.9117,-4.9712,-4.9551,-4.96,-4.9712,-4.9712,-4.9844,-4.999,-4.999,-5.0086,-5.0198,-5.0038,-5.0086,-5.0139,-4.9746,-4.9333,-4.8862,-4.8395,-4.7773,-4.718,-4.6697,-4.6491,-4.6491,-4.6678,-4.6993,-4.7217,-4.7236,-4.7011,-4.7135,-4.8063,-4.7929,-4.8105,-4.9363,-4.9748,-5.0236,-5.1227,-5.1688,-5.228,-5.3166,-5.3729,-5.4131,-5.425,-5.4767,-5.5137,-5.5189,-5.5629,-5.6227,-5.694,-5.7188,-5.7699,-5.8587,-5.8716,-5.9237,-6.0268,-6.0254,-6.0642,-6.1465,-6.2373,-6.3097,-3.8867,-3.8922,-3.9129,-3.8797,-3.8656,-3.8541,-3.8335,-3.8167,-3.8191,-3.8759,-3.9098,-3.9462,-4.0244,-4.0442,-4.0687,-4.1311,-4.1297,-4.1465,-4.209,-4.1966,-4.1841,-4.191,-4.1757,-4.1207,-4.0081,-3.9431,-3.8607,-3.7546,-3.6894,-3.6547,-3.6547,-3.6626,-3.6758,-3.6993,-3.7571,-3.8139,-3.8655,-3.8986,-3.9297,-3.9513,-4.013,-4.0684,-4.112,-4.1555,-4.2208,-4.3021,-4.3703,-4.4589,-4.5605,-4.6152,-4.6743,-4.7395,-4.7717,-4.8253,-4.887,-4.8873,-4.9009,-4.9157,-4.9157,-4.9291,-4.9424,-4.9424,-4.9537,-4.9634,-4.9488,-4.9537,-4.9634,-4.9488,-4.9135,-4.876,-4.8577,-4.7988,-4.7332,-4.7076,-4.6915,-4.6871,-4.7079,-4.7155,-4.7236,-4.745,-4.7347,-4.7479,-4.8256,-4.8142,-4.826,-4.9116,-4.9705,-5.0277,-5.0992,-5.1653,-5.2426,-5.3366,-5.3668,-5.4015,-5.45,-5.4731,-5.5027,-5.535,-5.5789,-5.6337,-5.701,-5.7134,-5.7595,-5.853,-5.8545,-5.9251,-6.0688,-6.035,-6.0737,-6.1745,-6.2401,-6.3247,0.0,0.0,0.0,-3.9844,-3.9911,-3.9844,-3.9264,-3.9126,-3.9126,-3.9126,-3.9338,-3.9703,-4.0287,-4.0544,-4.083,-4.1311,-4.1184,-4.117,-4.1619,-4.1507,-4.1297,-4.1001,-4.0958,-4.0449,-3.9197,-3.8504,-3.7731,-3.6646,-3.6008,-3.5669,-3.5669,-3.5871,-3.6125,-3.6351,-3.6772,-3.6978,-3.6978,-3.7586,-3.8208,-3.8851,-3.9112,-3.9857,-4.1062,-4.1091,-4.1787,-4.3007,-4.3689,-4.4327,-4.4922,-4.532,-4.5907,-4.6555,-4.6862,-4.7395,-4.8052,-4.8666,-4.8895,-4.8895,-4.8895,-4.8895,-4.8895,-4.8895,-4.8895,-4.8895,-4.8895,-4.8895,-4.8895,-4.8895,-4.8895,-4.8802,-4.8387,-4.8085,-4.7811,-4.7796,-4.7782,-4.7876,-4.8033,-4.7463,-4.7019,-4.7281,-4.7497,-4.7684,-4.7988,-4.8321,-4.8578,-4.8609,-4.9579,-5.0361,-5.0599,-5.2009,-5.2971,-5.3034,-5.3665,-5.4289,-5.4763,-5.4603,-5.5046,-5.6373,-5.6482,-5.6825,-5.7464,-5.7731,-5.8104,-5.8564,-5.9001,-5.9712,-6.0675,-6.0202,-6.0357,-6.1069,-6.2206,-6.3308,-4.1029,0.0,0.0,0.0,0.0,0.0,-4.0306,-4.0006,-3.9804,-3.9991,-4.0091,-4.0276,-4.0559,-4.0659,-4.0773,-4.1057,-4.1043,-4.1085,-4.1423,-4.1128,-4.0773,-4.0517,-4.0215,-3.9502,-3.8219,-3.7556,-3.6751,-3.5754,-3.5254,-3.4964,-3.4964,-3.5507,-3.5844,-3.5884,-3.6457,-3.6786,-3.6786,-3.7394,-3.7787,-3.7959,-3.8818,-3.961,-4.0379,-4.0873,-4.1555,-4.2411,-4.3515,-4.4081,-4.4327,-4.5147,-4.5907,-4.6508,-4.6638,-4.7105,-4.7744,-4.8183,-4.8459,-4.8595,-4.8595,-4.8745,-4.8895,-4.8895,-4.8895,-4.8895,-4.8895,-4.8895,-4.8895,-4.8895,-4.8895,-4.8752,-4.8193,-4.8615,-4.8894,-4.7763,-4.7865,-4.8158,-4.7951,-4.7802,-4.7908,-4.8379,-4.8114,-4.7967,-4.8386,-4.8109,-4.8159,-4.8986,-4.9512,-5.0228,-5.1433,-5.2172,-5.2739,-5.3224,-5.3897,-5.4309,-5.4304,-5.513,-5.5705,-5.592,-5.643,-5.6801,-5.6987,-5.7211,-5.748,-5.7809,-5.8273,-5.8895,-5.9712,-5.9977,-6.0836,-6.2186,-6.3151,-6.3865,-4.2168,-4.2003,-4.1966,-4.1717,0.0,0.0,-4.0859,-4.0631,-4.043,-4.0501,-4.0515,-4.0587,-4.0773,-4.0773,-4.0773,-4.0958,-4.0845,-4.0816,-4.1086,-4.0702,-4.03,-3.9924,-3.9486,-3.863,-3.7197,-3.6656,-3.5886,-3.4734,-3.4412,-3.428,-3.4222,-3.454,-3.4726,-3.4858,-3.5476,-3.6003,-3.6317,-3.692,-3.7429,-3.7839,-3.8571,-3.9454,-4.0407,-4.0802,-4.1449,-4.2289,-4.3555,-4.4065,-4.4095,-4.5075,-4.5674,-4.5981,-4.6443,-4.6769,-4.7158,-4.7847,-4.8221,-4.8358,-4.8358,-4.8459,-4.8559,-4.8559,-4.8559,-4.8559,-4.8559,-4.8559,-4.8559,-4.8559,-4.8645,-4.866,-4.8275,-4.8749,-4.9164,-4.8369,-4.8504,-4.874,-4.8595,-4.8708,-4.8744,-4.8594,-4.8447,-4.8417,-4.8671,-4.8548,-4.866,-4.9315,-4.9881,-5.0557,-5.1588,-5.2193,-5.2709,-5.323,-5.3883,-5.4322,-5.4496,-5.5395,-5.598,-5.6163,-5.6579,-5.6933,-5.7226,-5.7078,-5.7191,-5.7758,-5.795,-5.8548,-5.9464,-6.002,-6.1056,-6.2525,-6.338,-6.3858,-4.3554,-4.295,-4.2335,-4.2252,-4.1974,0.0,-4.1256,-4.1142,-4.1043,-4.083,-4.073,-4.0816,-4.1001,-4.0887,-4.0773,-4.0958,-4.0659,-4.0471,-4.0616,-4.0227,-3.9733,-3.9305,-3.876,-3.7788,-3.6209,-3.582,-3.5097,-3.3717,-3.3619,-3.356,-3.3481,-3.3331,-3.3378,-3.3638,-3.4279,-3.4986,-3.5798,-3.6405,-3.7221,-3.8202,-3.8441,-3.9316,-4.0811,-4.0811,-4.1401,-4.2506,-4.3752,-4.4194,-4.4124,-4.512,-4.5367,-4.5206,-4.6191,-4.646,-4.6448,-4.767,-4.8069,-4.8069,-4.8069,-4.8018,-4.8018,-4.8018,-4.8018,-4.8018,-4.8018,-4.8018,-4.8018,-4.8018,-4.8207,-4.8395,-4.8395,-4.8645,-4.8895,-4.9157,-4.9256,-4.9355,-4.9585,-4.9683,-4.9422,-4.847,-4.8647,-4.8947,-4.897,-4.9267,-4.9554,-4.9659,-5.0411,-5.106,-5.136,-5.2134,-5.2789,-5.3135,-5.3754,-5.4435,-5.5117,-5.5579,-5.6084,-5.6779,-5.6887,-5.7195,-5.7795,-5.7318,-5.74,-5.8167,-5.8043,-5.8538,-5.9697,-6.0169,-6.1094,-6.2341,-6.3097,-6.3509,-4.5079,-4.4792,-4.4543,-4.4013,-4.3673,0.0,-4.2552,-4.2096,-4.1681,-4.1326,-4.1071,-4.1015,-4.1255,-4.11,-4.0958,-4.1001,-4.0659,-4.0399,-4.0428,-3.9892,-3.9261,-3.8782,-3.7907,-3.6772,-3.543,-3.4869,-3.4234,-3.329,-3.298,-3.2774,-3.2628,-3.2909,-3.3144,-3.3378,-3.4189,-3.4986,-3.5798,-3.6541,-3.7379,-3.8202,-3.8575,-3.9452,-4.0811,-4.0811,-4.1465,-4.2681,-4.3822,-4.4265,-4.4325,-4.5388,-4.5549,-4.5206,-4.6191,-4.646,-4.6448,-4.767,-4.7967,-4.7764,-4.7764,-4.7661,-4.7456,-4.7456,-4.7456,-4.7456,-4.7456,-4.7456,-4.7456,-4.7456,-4.7661,-4.7852,-4.7852,-4.8207,-4.8595,-4.8645,-4.9009,-4.9305,-4.9355,-4.9537,-4.9625,-4.9436,-4.923,-4.9148,-4.9348,-4.9201,-4.9252,-4.9973,-5.0411,-5.1016,-5.1986,-5.226,-5.2717,-5.3513,-5.4176,-5.4838,-5.5547,-5.6193,-5.6671,-5.6794,-5.7333,-5.7688,-5.7762,-5.8211,-5.8504,-5.8677,-5.8681,-5.9033,-5.9621,-6.0294,-6.1053,-6.183,-6.2364,-6.2983,-4.5757,-4.547,-4.5165,-4.4577,-4.4294,0.0,0.0,-4.2955,-4.2639,-4.1967,-4.1739,-4.1639,-4.155,-4.1269,-4.1043,-4.1198,-4.0659,-4.0198,-4.0198,-3.9557,-3.8922,-3.8453,-3.7351,-3.6238,-3.5194,-3.4502,-3.3689,-3.2704,-3.2418,-3.2145,-3.1834,-3.2122,-3.2372,-3.26,-3.3385,-3.4454,-3.5774,-3.6365,-3.7368,-3.8811,-3.9343,-4.0248,-4.1399,-4.1652,-4.2401,-4.3545,-4.429,-4.4698,-4.4849,-4.5697,-4.5873,-4.5663,-4.6462,-4.6803,-4.6855,-4.7631,-4.7815,-4.7661,-4.7559,-4.7405,-4.7301,-4.7301,-4.7301,-4.7301,-4.7301,-4.7301,-4.7301,-4.7301,-4.7405,-4.7507,-4.7661,-4.7903,-4.8142,-4.8445,-4.8695,-4.8959,-4.9256,-4.9404,-4.9537,-4.9669,-4.9519,-4.9493,-4.9762,-4.9814,-5.0007,-5.0445,-5.0752,-5.1164,-5.185,-5.2337,-5.2871,-5.3423,-5.4513,-5.533,-5.5669,-5.6394,-5.6948,-5.7287,-5.7626,-5.802,-5.8596,-5.8727,-5.8878,-5.8977,-5.9031,-5.9157,-5.9426,-6.0068,-6.0619,-6.1219,-6.1807,-6.2403,-4.6437,-4.6094,-4.5678,-4.5115,-4.4874,-4.4602,0.0,0.0,0.0,-4.2783,-4.2596,-4.2439,-4.2032,-4.1566,-4.127,-4.1368,-4.0616,-3.9996,-3.9996,-3.9322,-3.8697,-3.8245,-3.7066,-3.5967,-3.5194,-3.4268,-3.3319,-3.229,-3.2028,-3.1724,-3.124,-3.1414,-3.1669,-3.1913,-3.2682,-3.3966,-3.5877,-3.6301,-3.7493,-3.946,-4.0162,-4.1023,-4.2014,-4.2682,-4.3485,-4.4387,-4.4989,-4.5291,-4.5405,-4.6093,-4.6341,-4.6338,-4.679,-4.7085,-4.7241,-4.7591,-4.7661,-4.7559,-4.7301,-4.7198,-4.7146,-4.7146,-4.7095,-4.7029,-4.6977,-4.7029,-4.7029,-4.7029,-4.7146,-4.725,-4.7507,-4.761,-4.7815,-4.8243,-4.8431,-4.8645,-4.9058,-4.9207,-4.9355,-4.9585,-4.9669,-4.9781,-4.999,-5.0394,-5.068,-5.0728,-5.0979,-5.1306,-5.1721,-5.2453,-5.3126,-5.3573,-5.4802,-5.5698,-5.5836,-5.6438,-5.7054,-5.7682,-5.7851,-5.8316,-5.9271,-5.919,-5.9228,-5.9429,-5.9405,-5.9443,-5.957,-5.9899,-6.0241,-6.0574,-6.126,-6.1847,-4.7863,-4.7737,-4.7483,-4.6578,-4.6373,-4.6035,-4.4996,0.0,-4.4368,-4.3907,0.0,-4.3315,-4.2907,0.0,0.0,-4.1481,-4.0616,-3.9996,-3.9996,-3.9216,-3.8544,-3.8245,-3.7066,-3.5967,-3.5194,-3.3916,-3.2905,-3.2265,-3.1918,-3.1576,-3.124,-3.1287,-3.1569,-3.2069,-3.2846,-3.4214,-3.6207,-3.6831,-3.7953,-3.9661,-4.0519,-4.131,-4.2045,-4.3305,-4.4104,-4.4619,-4.5702,-4.5919,-4.5638,-4.6695,-4.7021,-4.689,-4.6962,-4.7085,-4.7241,-4.7591,-4.7559,-4.7301,-4.7043,-4.6783,-4.6574,-4.6574,-4.6403,-4.6126,-4.5861,-4.5967,-4.6179,-4.6179,-4.656,-4.6939,-4.6991,-4.7353,-4.7712,-4.7764,-4.8142,-4.8545,-4.8595,-4.8959,-4.932,-4.9355,-4.9537,-4.9717,-4.9732,-4.9975,-5.0279,-5.0486,-5.0695,-5.122,-5.2322,-5.2567,-5.3192,-5.4582,-5.5066,-5.561,-5.6237,-5.6618,-5.6956,-5.732,-5.7981,-5.8538,-5.8923,-5.9768,-6.0252,-6.0252,-6.0131,-6.021,-6.0431,-6.0341,-6.0206,-6.0087,-6.0818,-6.1375,-4.8712,-4.8311,-4.7794,-4.6815,-4.6594,-4.6388,-4.5666,-4.5429,-4.5211,-4.4647,0.0,0.0,0.0,0.0,0.0,0.0,-4.1265,-4.0572,-4.0051,-3.9172,-3.8498,-3.8213,-3.7215,-3.6032,-3.4749,-3.401,-3.3268,-3.2499,-3.2399,-3.2162,-3.1578,-3.1893,-3.2236,-3.2431,-3.3585,-3.4973,-3.6626,-3.7605,-3.8998,-4.0807,-4.1689,-4.2452,-4.3144,-4.4366,-4.5072,-4.5394,-4.615,-4.6582,-4.6742,-4.7016,-4.7311,-4.7504,-4.7163,-4.7228,-4.7466,-4.7462,-4.7301,-4.7043,-4.6783,-4.6469,-4.6192,-4.6034,-4.6116,-4.629,-4.6141,-4.6182,-4.629,-4.629,-4.6356,-4.6389,-4.6546,-4.6925,-4.7301,-4.761,-4.7852,-4.8106,-4.8445,-4.8695,-4.8945,-4.9256,-4.9404,-4.9537,-4.9669,-4.9926,-5.0135,-5.0246,-5.0877,-5.1553,-5.2091,-5.3098,-5.4017,-5.4658,-5.5296,-5.5856,-5.6145,-5.6274,-5.6717,-5.7633,-5.8529,-5.9205,-5.9493,-5.9766,-6.0061,-6.0377,-6.0362,-6.0332,-6.0365,-6.055,-6.0503,-6.0172,-6.0655,-6.0942,-4.9141,-4.8602,-4.7893,-4.6844,-4.6594,-4.6462,-4.6015,-4.588,-4.575,-4.5256,-4.5155,0.0,0.0,0.0,-4.3588,-4.2739,0.0,-4.1153,-4.0357,-3.94,-3.8679,-3.8362,-3.7364,-3.6193,-3.4971,-3.435,-3.3788,-3.3166,-3.3002,-3.2723,-3.2332,-3.2716,-3.3064,-3.3287,-3.4519,-3.593,-3.7396,-3.8596,-4.0078,-4.1767,-4.2771,-4.3599,-4.4208,-4.5403,-4.6036,-4.6213,-4.6879,-4.7267,-4.7492,-4.751,-4.7666,-4.7875,-4.7532,-4.7446,-4.7559,-4.7301,-4.7095,-4.6835,-4.6469,-4.6139,-4.5888,-4.5741,-4.6033,-4.6377,-4.6482,-4.6522,-4.659,-4.659,-4.6355,-4.6156,-4.6368,-4.6564,-4.6873,-4.7236,-4.7456,-4.7712,-4.8193,-4.8344,-4.8545,-4.9009,-4.9207,-4.9355,-4.9537,-4.9829,-5.0038,-5.0086,-5.1031,-5.1795,-5.2021,-5.3488,-5.4563,-5.4744,-5.5443,-5.588,-5.588,-5.5979,-5.654,-5.7774,-5.8678,-5.9295,-5.972,-5.9598,-5.9743,-6.0287,-6.0377,-6.0392,-6.0478,-6.0815,-6.0852,-6.0581,-6.0612,-6.0639,-4.922,-4.8762,-4.8263,-4.6933,-4.6594,-4.6462,-4.6015,-4.588,-4.588,-4.5866,-4.5851,-4.5648,-4.498,-4.4688,-4.4279,-4.3426,-4.2389,0.0,0.0,-3.9926,-3.9127,-3.8647,-3.7455,-3.6593,-3.627,-3.5073,-3.4336,-3.4502,-3.3533,-3.3083,-3.3535,-3.3554,-3.3941,-3.4706,-3.5712,-3.7031,-3.8611,-3.9899,-4.1055,-4.21,-4.3504,-4.4392,-4.4927,-4.6253,-4.6917,-4.7012,-4.8087,-4.8133,-4.7565,-4.8348,-4.8331,-4.7932,-4.8012,-4.7773,-4.7301,-4.6991,-4.6887,-4.6835,-4.6231,-4.5861,-4.5635,-4.5894,-4.5983,-4.6101,-4.6389,-4.6658,-4.6882,-4.6882,-4.6694,-4.6488,-4.6488,-4.6464,-4.6428,-4.6428,-4.6911,-4.7405,-4.7661,-4.7939,-4.8179,-4.8481,-4.8945,-4.9305,-4.932,-4.9551,-4.9781,-5.0038,-5.0886,-5.1827,-5.2645,-5.3625,-5.4446,-5.5089,-5.5416,-5.5631,-5.5631,-5.583,-5.644,-5.7465,-5.7941,-5.8441,-5.9084,-5.9369,-5.9652,-6.0001,-6.0287,-6.0623,-6.119,-6.1175,-6.1223,-6.1261,-6.0668,-6.0496,-5.0199,-4.9252,-4.8222,-4.7466,-4.677,-4.6269,-4.597,-4.588,-4.588,-4.588,-4.588,-4.5822,-4.559,-4.5516,-4.512,-4.407,-4.3501,-4.2629,0.0,-3.9716,-3.8724,-3.8395,-3.7691,-3.6974,-3.6347,-3.5736,-3.5079,-3.4386,-3.4152,-3.3953,-3.3763,-3.4152,-3.4635,-3.5198,-3.6476,-3.7709,-3.8879,-4.0547,-4.1911,-4.2996,-4.4515,-4.5442,-4.5815,-4.7177,-4.7746,-4.7649,-4.8328,-4.8581,-4.8553,-4.8489,-4.8279,-4.7969,-4.7703,-4.7222,-4.6703,-4.6821,-4.6665,-4.6231,-4.5649,-4.5395,-4.538,-4.5647,-4.5872,-4.6109,-4.6594,-4.6648,-4.6635,-4.682,-4.6425,-4.5967,-4.6119,-4.6048,-4.5967,-4.6323,-4.6533,-4.6911,-4.7559,-4.775,-4.7953,-4.8395,-4.8645,-4.8895,-4.9256,-4.9355,-4.9551,-4.9781,-5.0628,-5.1483,-5.2165,-5.3077,-5.3879,-5.4516,-5.4677,-5.4728,-5.4728,-5.5385,-5.6218,-5.7154,-5.7805,-5.8411,-5.9084,-5.9207,-5.9369,-5.9652,-5.9986,-6.0287,-6.069,-6.1016,-6.1199,-6.1239,-6.0941,-6.0835,-5.0638,-4.9524,-4.8343,-4.7626,-4.6842,-4.6135,-4.5925,-4.588,-4.588,-4.588,-4.588,-4.588,-4.588,-4.588,-4.5615,-4.4686,-4.4217,-4.3345,0.0,-4.0083,-3.9043,-3.8694,-3.8037,-3.7409,-3.6805,-3.6299,-3.5729,-3.5016,-3.4727,-3.4577,-3.4449,-3.4862,-3.5421,-3.6061,-3.7338,-3.8606,-3.9801,-4.148,-4.2942,-4.4272,-4.5545,-4.6422,-4.6982,-4.8042,-4.8399,-4.8188,-4.8787,-4.8978,-4.8945,-4.8522,-4.8262,-4.8027,-4.7274,-4.6755,-4.6428,-4.6546,-4.6231,-4.5649,-4.5341,-4.5126,-4.5096,-4.5607,-4.5879,-4.615,-4.6811,-4.6868,-4.6751,-4.694,-4.6442,-4.5905,-4.5963,-4.5809,-4.57,-4.6008,-4.6165,-4.648,-4.725,-4.7507,-4.7712,-4.8142,-4.8395,-4.8645,-4.9058,-4.9256,-4.9404,-4.9683,-5.0481,-5.1321,-5.1915,-5.2826,-5.3626,-5.423,-5.4304,-5.4304,-5.4304,-5.4842,-5.5582,-5.6549,-5.7235,-5.796,-5.8725,-5.8979,-5.9207,-5.9476,-5.9705,-6.0024,-6.0377,-6.0757,-6.1,-6.1206,-6.1111,-6.1155]},{"header":{"parameterUnit":"m.s-1","parameterCategory":1,"la1":30.6,"la2":29.2853,"lo1":-89.7004,"lo2":-87.6739,"dy":0.0162,"dx":0.0183,"nx":112,"ny":82,"refTime":"2023-06-17T12:00:00:Z","depth":0,"parameterNumber":3,"parameterNumberName":"V-component_of_WINDS"},"data":[0.0,0.0,0.0,0.0,0.0,0.0,0.0,0.0,0.0,0.0,0.0,0.0,0.0,0.0,0.0,0.0,0.0,0.0,0.0,0.0,0.0,0.0,0.0,0.0,0.0,0.0,0.0,0.0,0.0,0.0,0.0,0.0,0.0,0.0,0.0,0.0,0.0,0.0,0.0,0.0,0.0,0.0,0.0,0.0,0.0,0.0,0.0,0.0,0.0,0.0,0.0,0.0,0.0,0.0,0.0,0.0,0.0,0.0,0.0,0.0,0.0,0.0,0.0,0.0,0.0,0.0,0.0,0.0,0.0,0.0,0.0,0.0,0.0,0.0,0.0,0.0,0.0,0.0,0.0,0.0,0.0,0.0,0.0,0.0,0.0,0.0,0.0,0.0,0.0,0.0,-1.7091,-1.7146,-1.7679,-1.8261,-1.8746,-1.8945,-1.9194,-1.9565,0.0,0.0,0.0,0.0,0.0,0.0,0.0,0.0,0.0,0.0,0.0,0.0,0.0,0.0,0.0,0.0,0.0,0.0,0.0,0.0,0.0,0.0,0.0,0.0,0.0,0.0,0.0,0.0,0.0,0.0,0.0,0.0,0.0,0.0,0.0,0.0,0.0,0.0,0.0,0.0,0.0,0.0,0.0,0.0,0.0,0.0,0.0,0.0,0.0,0.0,0.0,0.0,0.0,0.0,0.0,0.0,0.0,0.0,0.0,0.0,0.0,0.0,0.0,0.0,0.0,0.0,0.0,0.0,0.0,0.0,0.0,0.0,0.0,0.0,0.0,0.0,0.0,0.0,0.0,0.0,0.0,0.0,0.0,0.0,0.0,0.0,0.0,0.0,0.0,0.0,0.0,0.0,0.0,0.0,0.0,0.0,0.0,0.0,0.0,0.0,0.0,0.0,0.0,0.0,-1.6572,-1.6902,-1.7784,-1.8317,-1.8221,-1.8561,-1.8834,-1.8994,0.0,0.0,0.0,0.0,0.0,0.0,0.0,0.0,0.0,0.0,0.0,0.0,0.0,0.0,0.0,0.0,0.0,0.0,0.0,0.0,0.0,0.0,0.0,0.0,0.0,0.0,0.0,0.0,0.0,0.0,0.0,0.0,0.0,0.0,0.0,0.0,0.0,0.0,0.0,0.0,0.0,0.0,0.0,0.0,0.0,0.0,0.0,0.0,0.0,0.0,0.0,0.0,0.0,0.0,0.0,0.0,0.0,0.0,0.0,0.0,0.0,0.0,0.0,0.0,0.0,0.0,0.0,0.0,0.0,0.0,0.0,0.0,0.0,0.0,0.0,0.0,0.0,0.0,0.0,0.0,0.0,0.0,0.0,0.0,0.0,0.0,0.0,0.0,0.0,0.0,0.0,0.0,0.0,0.0,0.0,0.0,0.0,0.0,0.0,0.0,0.0,0.0,0.0,-1.6259,-1.6347,-1.696,-1.7539,-1.7999,-1.8228,-1.8319,-1.8432,-1.8588,-1.8926,0.0,0.0,0.0,0.0,0.0,0.0,0.0,0.0,0.0,0.0,0.0,0.0,0.0,0.0,0.0,0.0,0.0,0.0,0.0,0.0,0.0,0.0,0.0,0.0,0.0,0.0,0.0,0.0,0.0,0.0,0.0,0.0,0.0,0.0,0.0,0.0,0.0,0.0,0.0,0.0,0.0,0.0,0.0,0.0,0.0,0.0,0.0,0.0,0.0,0.0,0.0,0.0,0.0,0.0,0.0,0.0,0.0,0.0,0.0,0.0,0.0,0.0,0.0,0.0,0.0,0.0,0.0,0.0,0.0,0.0,0.0,0.0,0.0,0.0,0.0,0.0,0.0,0.0,0.0,0.0,0.0,0.0,0.0,0.0,0.0,0.0,0.0,0.0,0.0,0.0,0.0,0.0,0.0,0.0,0.0,0.0,0.0,0.0,0.0,0.0,0.0,0.0,-1.609,-1.6326,-1.6969,-1.7316,-1.7723,-1.8256,-1.8092,-1.8023,-1.8249,-1.8248,0.0,0.0,0.0,0.0,0.0,0.0,0.0,0.0,0.0,0.0,0.0,0.0,0.0,0.0,0.0,0.0,0.0,0.0,0.0,0.0,0.0,0.0,0.0,0.0,0.0,0.0,0.0,0.0,0.0,0.0,0.0,0.0,0.0,0.0,0.0,0.0,0.0,0.0,0.0,0.0,0.0,0.0,0.0,0.0,0.0,0.0,0.0,0.0,0.0,0.0,0.0,0.0,0.0,0.0,0.0,0.0,0.0,0.0,0.0,0.0,0.0,0.0,0.0,0.0,0.0,0.0,0.0,0.0,0.0,0.0,0.0,0.0,0.0,0.0,0.0,0.0,0.0,0.0,0.0,0.0,0.0,0.0,0.0,0.0,0.0,0.0,0.0,0.0,0.0,0.0,0.0,0.0,0.0,0.0,0.0,0.0,0.0,0.0,0.0,0.0,0.0,0.0,-1.6063,-1.6418,-1.6789,-1.7184,-1.757,-1.7991,-1.7655,-1.7655,-1.8109,-1.8059,0.0,0.0,0.0,0.0,0.0,0.0,0.0,0.0,0.0,0.0,0.0,0.0,0.0,0.0,0.0,0.0,0.0,0.0,0.0,0.0,0.0,0.0,0.0,0.0,0.0,0.0,0.0,0.0,0.0,0.0,0.0,0.0,0.0,0.0,0.0,0.0,0.0,0.0,0.0,0.0,0.0,0.0,0.0,0.0,0.0,0.0,0.0,0.0,0.0,0.0,0.0,0.0,0.0,0.0,0.0,0.0,0.0,0.0,0.0,0.0,0.0,0.0,0.0,0.0,0.0,0.0,0.0,0.0,0.0,0.0,0.0,0.0,0.0,0.0,0.0,0.0,0.0,0.0,0.0,0.0,0.0,0.0,0.0,0.0,0.0,0.0,0.0,0.0,0.0,0.0,0.0,0.0,0.0,0.0,0.0,0.0,0.0,0.0,0.0,0.0,0.0,0.0,-1.611,-1.6387,-1.6694,-1.7017,-1.7343,-1.7595,-1.7474,-1.7488,-1.7698,0.0,0.0,0.0,0.0,0.0,0.0,0.0,0.0,0.0,0.0,0.0,0.0,0.0,0.0,0.0,0.0,0.0,0.0,0.0,0.0,0.0,0.0,0.0,0.0,0.0,0.0,0.0,0.0,0.0,0.0,0.0,0.0,0.0,0.0,0.0,0.0,0.0,0.0,0.0,0.0,0.0,0.0,0.0,0.0,0.0,0.0,0.0,0.0,0.0,0.0,0.0,0.0,0.0,0.0,0.0,0.0,0.0,0.0,0.0,0.0,0.0,0.0,0.0,0.0,0.0,0.0,0.0,0.0,0.0,0.0,0.0,0.0,0.0,0.0,0.0,0.0,0.0,0.0,0.0,0.0,0.0,0.0,0.0,0.0,0.0,0.0,0.0,0.0,0.0,0.0,0.0,0.0,0.0,0.0,0.0,0.0,0.0,0.0,0.0,0.0,0.0,0.0,-1.6025,-1.6134,-1.6341,-1.665,-1.6853,-1.7098,-1.7392,-1.7393,-1.7432,-1.7519,0.0,0.0,0.0,0.0,0.0,0.0,0.0,0.0,0.0,0.0,0.0,0.0,0.0,0.0,0.0,0.0,0.0,0.0,0.0,0.0,0.0,0.0,0.0,0.0,0.0,0.0,0.0,0.0,0.0,0.0,0.0,0.0,0.0,0.0,0.0,0.0,0.0,0.0,0.0,0.0,0.0,0.0,0.0,0.0,0.0,0.0,0.0,0.0,0.0,0.0,0.0,0.0,0.0,0.0,0.0,0.0,0.0,0.0,0.0,0.0,0.0,0.0,0.0,0.0,0.0,0.0,0.0,0.0,0.0,0.0,0.0,0.0,0.0,0.0,0.0,0.0,0.0,0.0,0.0,0.0,0.0,0.0,0.0,0.0,0.0,0.0,0.0,0.0,0.0,0.0,0.0,0.0,0.0,0.0,0.0,0.0,0.0,0.0,0.0,0.0,0.0,0.0,-1.6118,-1.6206,-1.6349,-1.6657,-1.6689,-1.6902,-1.7351,-1.7392,-1.7445,0.0,0.0,0.0,0.0,0.0,0.0,0.0,0.0,0.0,0.0,0.0,0.0,0.0,0.0,0.0,0.0,0.0,0.0,0.0,0.0,0.0,0.0,0.0,0.0,0.0,0.0,0.0,0.0,0.0,0.0,0.0,0.0,0.0,0.0,0.0,0.0,0.0,0.0,0.0,0.0,0.0,0.0,0.0,0.0,0.0,0.0,0.0,0.0,0.0,0.0,0.0,0.0,0.0,0.0,0.0,0.0,0.0,0.0,0.0,0.0,0.0,0.0,0.0,0.0,0.0,0.0,0.0,0.0,0.0,0.0,0.0,0.0,0.0,0.0,0.0,0.0,0.0,0.0,0.0,0.0,0.0,0.0,0.0,0.0,0.0,0.0,0.0,0.0,0.0,0.0,0.0,0.0,0.0,0.0,0.0,0.0,0.0,0.0,0.0,0.0,0.0,0.0,0.0,-1.6174,-1.6428,-1.6578,-1.6681,-1.6853,-1.7098,-1.7392,-1.7546,-1.7698,-1.7917,0.0,0.0,0.0,0.0,0.0,0.0,0.0,0.0,0.0,0.0,0.0,0.0,0.0,0.0,0.0,0.0,0.0,0.0,0.0,0.0,0.0,0.0,0.0,0.0,0.0,0.0,0.0,0.0,0.0,0.0,0.0,0.0,0.0,0.0,0.0,0.0,0.0,0.0,0.0,0.0,0.0,0.0,0.0,0.0,0.0,0.0,0.0,0.0,0.0,0.0,0.0,0.0,0.0,0.0,0.0,0.0,0.0,0.0,0.0,0.0,0.0,0.0,0.0,0.0,0.0,0.0,0.0,0.0,0.0,0.0,0.0,0.0,0.0,0.0,0.0,0.0,0.0,0.0,0.0,0.0,0.0,0.0,0.0,0.0,0.0,0.0,0.0,0.0,0.0,0.0,0.0,0.0,0.0,0.0,0.0,0.0,0.0,0.0,0.0,0.0,0.0,0.0,-1.6517,-1.6845,-1.7111,-1.7227,-1.7351,-1.7557,-1.773,-1.7801,-1.79,-1.8076,0.0,0.0,0.0,0.0,0.0,0.0,0.0,0.0,0.0,0.0,0.0,0.0,0.0,0.0,0.0,0.0,0.0,0.0,0.0,0.0,0.0,0.0,0.0,0.0,0.0,0.0,0.0,0.0,0.0,0.0,0.0,0.0,0.0,0.0,0.0,0.0,0.0,0.0,0.0,0.0,0.0,0.0,0.0,0.0,0.0,0.0,0.0,0.0,0.0,0.0,0.0,0.0,0.0,0.0,0.0,0.0,0.0,0.0,0.0,0.0,0.0,0.0,0.0,0.0,0.0,0.0,0.0,0.0,0.0,0.0,0.0,0.0,0.0,0.0,0.0,0.0,0.0,0.0,0.0,0.0,0.0,0.0,0.0,0.0,0.0,0.0,0.0,0.0,0.0,0.0,0.0,0.0,0.0,0.0,0.0,0.0,0.0,0.0,0.0,0.0,0.0,0.0,-1.7106,-1.7464,-1.7767,-1.8012,-1.8096,-1.8188,-1.8364,-1.8223,-1.8146,-1.8261,0.0,0.0,0.0,0.0,0.0,0.0,0.0,0.0,0.0,0.0,0.0,0.0,0.0,0.0,0.0,0.0,0.0,0.0,0.0,0.0,0.0,0.0,0.0,0.0,0.0,0.0,0.0,0.0,0.0,0.0,0.0,0.0,0.0,0.0,0.0,0.0,0.0,0.0,0.0,0.0,0.0,0.0,0.0,0.0,0.0,0.0,0.0,0.0,0.0,0.0,0.0,0.0,0.0,0.0,0.0,0.0,0.0,0.0,0.0,0.0,-1.336,-1.3483,0.0,0.0,0.0,0.0,0.0,0.0,0.0,0.0,0.0,0.0,0.0,0.0,0.0,0.0,0.0,0.0,0.0,0.0,0.0,0.0,0.0,0.0,0.0,0.0,0.0,0.0,0.0,0.0,0.0,0.0,0.0,0.0,0.0,0.0,0.0,0.0,0.0,0.0,0.0,0.0,-1.7755,-1.8084,-1.8314,-1.84,-1.87,-1.8965,-1.9008,-1.9033,-1.9149,-1.9516,-1.9171,0.0,0.0,0.0,0.0,0.0,0.0,0.0,0.0,0.0,0.0,0.0,0.0,0.0,0.0,0.0,0.0,0.0,0.0,0.0,0.0,0.0,0.0,0.0,0.0,0.0,0.0,0.0,0.0,0.0,0.0,0.0,0.0,0.0,0.0,0.0,0.0,0.0,0.0,0.0,0.0,0.0,0.0,0.0,0.0,0.0,0.0,0.0,0.0,0.0,0.0,0.0,0.0,0.0,0.0,0.0,0.0,0.0,0.0,0.0,-1.2828,-1.3176,0.0,0.0,0.0,0.0,0.0,0.0,0.0,0.0,0.0,0.0,0.0,0.0,0.0,0.0,0.0,0.0,0.0,0.0,0.0,0.0,0.0,0.0,0.0,0.0,0.0,0.0,0.0,0.0,0.0,0.0,0.0,0.0,0.0,0.0,0.0,0.0,0.0,0.0,0.0,0.0,-1.8362,-1.8817,-1.9166,-1.9261,-1.9618,-1.9835,-1.9835,-1.9909,-2.0011,-2.0228,-2.0104,0.0,0.0,0.0,0.0,0.0,0.0,0.0,0.0,0.0,0.0,0.0,0.0,0.0,0.0,0.0,0.0,0.0,0.0,0.0,0.0,0.0,0.0,0.0,0.0,0.0,0.0,0.0,0.0,0.0,0.0,0.0,0.0,0.0,0.0,0.0,0.0,0.0,0.0,0.0,0.0,0.0,0.0,0.0,0.0,0.0,0.0,0.0,0.0,0.0,0.0,0.0,0.0,0.0,-1.2794,-1.2446,-1.1771,-1.1795,-1.1634,-1.1438,-1.2316,-1.2797,-1.2915,-1.3009,0.0,0.0,0.0,0.0,0.0,0.0,0.0,0.0,0.0,0.0,0.0,0.0,0.0,0.0,0.0,0.0,0.0,0.0,0.0,0.0,0.0,0.0,-1.6614,-1.7064,-1.7408,-1.7497,-1.693,0.0,0.0,0.0,0.0,0.0,0.0,0.0,0.0,0.0,0.0,0.0,-1.9014,-1.959,-2.0086,-2.0228,-2.0501,-2.0677,-2.0721,-2.075,-2.0809,-2.0861,-2.1144,-2.1439,0.0,0.0,0.0,0.0,0.0,0.0,0.0,0.0,0.0,0.0,0.0,0.0,0.0,0.0,0.0,0.0,0.0,0.0,0.0,0.0,0.0,0.0,0.0,0.0,0.0,0.0,0.0,0.0,0.0,0.0,0.0,0.0,-2.0269,-1.9553,0.0,0.0,0.0,0.0,0.0,0.0,0.0,0.0,0.0,0.0,0.0,0.0,0.0,-1.37,-1.3228,-1.2778,-1.2447,-1.2121,-1.1682,-1.1268,-1.0935,-1.0944,-1.0806,-1.0556,-1.0935,0.0,-1.2198,-1.2668,0.0,0.0,0.0,0.0,0.0,0.0,0.0,0.0,0.0,0.0,0.0,0.0,0.0,0.0,0.0,0.0,0.0,0.0,0.0,0.0,0.0,0.0,-1.7344,-1.7435,-1.7817,-1.8247,-1.8364,-1.7991,-1.7658,-1.7568,-1.7676,-1.7822,0.0,0.0,0.0,0.0,0.0,0.0,-1.9886,-2.0465,-2.0828,-2.0872,-2.1123,-2.1355,-2.1525,-2.1447,-2.1569,-2.1964,-2.1887,-2.1973,-2.2351,-2.2886,0.0,0.0,0.0,0.0,0.0,0.0,0.0,0.0,0.0,0.0,0.0,0.0,0.0,0.0,0.0,0.0,0.0,0.0,0.0,0.0,0.0,0.0,0.0,0.0,0.0,0.0,0.0,0.0,0.0,-2.0065,-1.9507,-1.8912,-1.8446,-1.7854,0.0,0.0,0.0,0.0,0.0,0.0,0.0,0.0,0.0,-1.298,-1.2847,-1.264,-1.2256,-1.1769,-1.1365,-1.1102,-1.0694,-1.031,-0.9903,-0.9924,-0.983,-0.9723,-1.0015,-1.04,-1.0939,-1.178,-1.237,-1.2861,0.0,0.0,0.0,0.0,-1.4434,-1.4481,-1.4667,-1.472,-1.472,-1.4854,0.0,0.0,0.0,0.0,0.0,0.0,0.0,-1.6353,-1.648,-1.7134,-1.7764,-1.7764,-1.8311,-1.8898,-1.8957,-1.9129,-1.9146,-1.8744,-1.8972,-1.9176,-1.9066,-1.9488,0.0,0.0,0.0,-2.0939,-2.125,-2.1648,-2.1977,-2.2124,-2.2117,-2.2216,-2.2477,-2.2325,-2.2385,-2.2698,-2.2673,-2.2802,-2.3216,-2.3511,-2.3761,0.0,0.0,0.0,0.0,0.0,0.0,0.0,0.0,0.0,0.0,0.0,0.0,0.0,0.0,0.0,0.0,0.0,0.0,0.0,0.0,0.0,0.0,0.0,0.0,0.0,0.0,0.0,0.0,-1.9247,-1.8707,-1.8189,-1.7588,-1.6831,0.0,0.0,0.0,0.0,0.0,0.0,-1.2685,-1.2482,-1.2236,-1.1951,-1.1691,-1.1438,-1.1194,-1.0645,-1.0243,-0.9985,-0.9727,-0.9339,-0.8878,-0.8897,-0.8897,-0.8931,-0.9179,-0.9426,-0.9768,-1.0904,-1.1785,-1.2419,-1.2516,-1.2996,-1.3667,-1.3913,-1.416,-1.4406,-1.4598,-1.4748,-1.4808,-1.4967,-1.5139,-1.5341,-1.5528,0.0,0.0,0.0,0.0,-1.682,-1.682,-1.7442,-1.8086,-1.8086,-1.8779,-1.9413,-1.9409,-1.9976,-2.0236,-1.9726,-2.003,-2.0337,-2.0202,-2.0681,0.0,-2.122,-2.1602,-2.1997,-2.2369,-2.2593,-2.2885,-2.3167,-2.3038,-2.3035,-2.3319,-2.3259,-2.3299,-2.3511,-2.3631,-2.3859,-2.4156,-2.4259,-2.4479,-2.4748,0.0,0.0,0.0,0.0,0.0,0.0,0.0,0.0,0.0,0.0,0.0,0.0,0.0,0.0,0.0,0.0,0.0,0.0,0.0,0.0,0.0,0.0,0.0,0.0,0.0,0.0,0.0,0.0,0.0,-1.6988,-1.6126,0.0,0.0,0.0,0.0,-1.2438,-1.2178,-1.1946,-1.1687,-1.1663,-1.1424,-1.0886,-1.06,-1.0364,-1.0068,-0.9529,-0.913,-0.8871,-0.8592,-0.835,-0.8055,-0.8055,-0.8045,-0.8071,-0.8329,-0.8627,-0.8973,-1.0274,-1.1012,-1.134,-1.1834,-1.237,-1.2856,-1.3098,-1.3346,-1.3539,-1.3588,-1.3732,-1.4015,-1.4545,-1.5245,-1.5865,-1.5865,-1.6079,0.0,0.0,-1.6718,-1.7179,-1.7179,-1.7757,-1.8401,-1.8401,-1.9042,-1.9776,-2.0012,-2.0277,-2.0347,-1.9954,-2.0313,-2.0853,-2.1309,0.0,-2.1856,-2.2093,-2.2378,-2.267,-2.2933,-2.3158,-2.3392,-2.3626,-2.3663,-2.3737,-2.4025,-2.4293,-2.4513,-2.4687,-2.4978,-2.5119,-2.5119,-2.5562,-2.5694,-2.5466,-2.6098,0.0,0.0,0.0,0.0,0.0,0.0,0.0,0.0,0.0,0.0,0.0,0.0,0.0,0.0,0.0,0.0,0.0,0.0,0.0,0.0,0.0,0.0,0.0,0.0,0.0,0.0,0.0,0.0,-1.6314,-1.5421,0.0,-1.3506,-1.2922,-1.2247,-1.1409,-1.1194,-1.0906,-1.0484,-1.056,-1.0374,-0.9816,-0.9653,-0.9338,-0.883,-0.8585,-0.8184,-0.7773,-0.7693,-0.74,-0.6951,-0.6995,-0.6983,-0.6974,-0.7437,-0.7693,-0.7832,-0.8641,-0.9682,-1.0703,-1.0904,-1.1389,-1.2073,-1.2322,-1.2565,-1.2856,-1.3147,-1.3399,-1.3715,-1.4209,-1.4814,-1.5442,-1.5614,-1.5971,-1.6317,-1.6497,-1.6886,-1.718,-1.718,-1.7966,-1.8656,-1.8355,-1.9049,-2.0025,-2.062,-2.1207,-2.1682,-2.1734,-2.1558,-2.147,-2.1784,-2.2122,-2.2452,-2.2808,-2.3183,-2.3563,-2.3918,-2.4188,-2.4438,-2.4689,-2.4498,-2.4477,-2.4693,-2.4729,-2.4802,-2.5041,-2.5415,-2.5771,-2.6093,-2.6606,-2.6952,-2.7106,-2.7668,-2.8078,0.0,0.0,0.0,0.0,0.0,0.0,0.0,0.0,0.0,0.0,0.0,0.0,0.0,0.0,0.0,0.0,0.0,0.0,0.0,0.0,0.0,0.0,0.0,0.0,0.0,-1.7337,-1.6404,-1.5673,-1.4809,-1.3862,-1.2811,-1.2307,-1.1601,-1.0656,-1.031,-0.9918,-0.9508,-0.9517,-0.9321,-0.88,-0.8647,-0.8357,-0.7792,-0.7601,-0.7231,-0.6678,-0.6639,-0.6395,-0.5844,-0.5839,-0.5882,-0.5874,-0.6339,-0.6595,-0.6686,-0.7147,-0.8088,-0.9369,-0.9719,-1.0359,-1.1096,-1.134,-1.1634,-1.1937,-1.2601,-1.3132,-1.3576,-1.4043,-1.4516,-1.4988,-1.5263,-1.5731,-1.6187,-1.6362,-1.6736,-1.7086,-1.7297,-1.7936,-1.8576,-1.8408,-1.9205,-2.0216,-2.0992,-2.1627,-2.2183,-2.2708,-2.2576,-2.2476,-2.2797,-2.3214,-2.356,-2.3781,-2.4098,-2.4438,-2.4716,-2.4932,-2.5137,-2.5391,-2.5189,-2.5121,-2.5293,-2.536,-2.5435,-2.5631,-2.6115,-2.6532,-2.6814,-2.7325,-2.7766,-2.8149,-2.8853,-2.9451,-2.9863,0.0,0.0,0.0,0.0,0.0,0.0,0.0,0.0,0.0,0.0,0.0,0.0,0.0,0.0,0.0,0.0,0.0,0.0,0.0,0.0,0.0,0.0,0.0,-1.7771,-1.6922,-1.5996,-1.5028,-1.4232,-1.3358,-1.2304,-1.1639,-1.0932,-1.0104,-0.9537,-0.9066,-0.8797,-0.8542,-0.8233,-0.797,-0.7697,-0.7368,-0.6935,-0.6673,-0.6203,-0.5541,-0.5536,-0.5286,-0.4734,-0.4734,-0.473,-0.4774,-0.5035,-0.5288,-0.5586,-0.5839,-0.6439,-0.7238,-0.8329,-0.9225,-0.9969,-1.0265,-1.056,-1.0941,-1.1934,-1.2756,-1.3451,-1.3988,-1.4358,-1.4606,-1.4874,-1.541,-1.5838,-1.5891,-1.6258,-1.68,-1.7417,-1.7813,-1.8144,-1.8618,-1.9497,-2.0376,-2.1085,-2.1403,-2.1766,-2.2679,-2.3319,-2.3903,-2.4403,-2.4779,-2.5018,-2.5117,-2.5093,0.0,-2.5312,-2.5303,-2.545,-2.5693,-2.5693,-2.5693,-2.5693,-2.6207,-2.6496,-2.6496,-2.7035,-2.7303,-2.7303,-2.7777,-2.8194,-2.8477,-2.9607,-3.0422,-3.0864,0.0,0.0,0.0,0.0,0.0,0.0,0.0,0.0,0.0,0.0,0.0,0.0,0.0,0.0,0.0,0.0,0.0,0.0,0.0,0.0,0.0,-1.8839,-1.8144,-1.7646,-1.6759,-1.588,-1.5072,-1.4167,-1.3153,-1.2035,-1.1216,-1.0364,-0.9317,-0.9009,-0.8592,-0.8103,-0.7934,-0.7716,-0.744,-0.7024,-0.6532,-0.5966,-0.582,-0.5321,-0.4523,-0.4463,-0.4183,-0.3632,-0.3632,-0.3629,-0.3674,-0.3929,-0.4185,-0.444,-0.4734,-0.5186,-0.5889,-0.7135,-0.8134,-0.8878,-0.9122,-0.9896,-1.0792,-1.1197,-1.1846,-1.2568,-1.3056,-1.3426,-1.3743,-1.4277,-1.4654,-1.5035,-1.5476,-1.5844,-1.6273,-1.6821,-1.7637,-1.8521,-1.9096,-1.99,-2.0812,-2.1864,-2.2185,-2.2561,-2.345,-2.4095,-2.4516,-2.45,-2.4561,-2.4796,-2.5258,-2.5643,-2.5799,-2.5484,-2.5844,-2.5985,-2.5723,-2.5693,-2.5693,-2.5693,-2.6207,-2.6496,-2.6496,-2.7316,-2.7817,-2.7817,-2.8648,-2.9455,-3.0283,-3.1303,-3.2071,0.0,0.0,0.0,0.0,0.0,0.0,0.0,0.0,0.0,0.0,0.0,0.0,0.0,0.0,0.0,0.0,0.0,0.0,0.0,0.0,0.0,0.0,-1.9093,-1.851,-1.7856,-1.6848,-1.5877,-1.5128,-1.418,-1.3195,-1.2054,-1.1133,-1.0219,-0.9205,-0.8699,-0.8202,-0.7765,-0.7398,-0.716,-0.699,-0.6371,-0.5825,-0.5458,-0.4994,-0.444,-0.3785,-0.3459,-0.3127,-0.2674,-0.2573,-0.2521,-0.2521,-0.2671,-0.2975,-0.3331,-0.3478,-0.3929,-0.4684,0.0,0.0,0.0,0.0,-0.8816,-0.9844,-1.0215,-1.0742,-1.141,-1.2127,-1.255,-1.2876,-1.3467,-1.3905,-1.4342,-1.4826,-1.5143,-1.5546,-1.646,-1.7344,-1.818,-1.9176,-1.9972,-2.0788,-2.1683,-2.2188,-2.2626,-2.3352,-2.4016,0.0,-2.4583,-2.4942,-2.5263,-2.5576,-2.5968,-2.613,-2.5818,-2.6085,-2.6133,-2.5641,-2.5701,-2.5731,-2.5557,-2.612,0.0,0.0,0.0,-2.8271,-2.8958,-2.9706,0.0,0.0,0.0,-3.3156,-3.3543,-3.4313,0.0,0.0,-3.5481,-3.6352,0.0,0.0,0.0,0.0,0.0,0.0,0.0,0.0,0.0,0.0,0.0,0.0,0.0,0.0,0.0,0.0,-1.9469,-1.913,-1.8411,-1.7225,-1.6163,-1.5322,-1.4446,-1.3493,-1.2331,-1.1359,-1.0417,-0.9489,-0.8598,-0.7934,-0.7607,-0.6993,0.0,0.0,0.0,-0.5279,-0.515,-0.4255,-0.36,-0.3175,-0.2604,-0.2173,-0.1866,-0.1563,-0.1463,-0.1465,-0.1413,-0.1715,-0.222,-0.222,-0.2723,-0.3577,-0.4933,-0.5636,-0.5992,-0.6739,-0.7553,-0.8413,-0.8996,0.0,0.0,-1.1076,-1.1618,-1.1951,-1.255,-1.3152,-1.364,-1.4008,-1.4331,-1.4874,-1.6253,-1.6844,-1.7503,-1.8988,-1.9758,-2.0392,-2.1031,-2.1603,-2.2173,-2.2845,-2.3408,-2.3968,-2.4565,-2.5404,-2.5946,-2.5899,-2.6183,-2.6362,-2.6107,-2.6154,-2.6045,-2.561,-2.5726,0.0,-2.539,-2.5995,-2.6448,-2.6496,-2.7483,-2.8769,-3.0278,-3.0785,-3.1506,-3.2477,-3.3262,-3.3774,-3.4096,-3.4882,-3.568,-3.6468,-3.6468,-3.7137,0.0,0.0,0.0,0.0,0.0,0.0,0.0,0.0,0.0,0.0,0.0,0.0,0.0,0.0,0.0,-2.0739,-2.0272,-1.9685,-1.8949,-1.8323,-1.7496,-1.6234,-1.5282,-1.4325,-1.3195,-1.2091,-1.0966,-0.9816,-0.893,-0.8156,-0.7607,-0.6829,-0.6386,-0.6386,-0.5489,-0.4866,-0.4625,-0.3947,-0.3179,-0.2384,-0.2029,0.0,-0.101,-0.0757,-0.0656,-0.0606,-0.0404,-0.0606,-0.1111,-0.1111,-0.1716,-0.2773,-0.4128,-0.4935,-0.5391,-0.5787,-0.643,-0.7209,-0.7846,-0.8511,-0.9254,-0.9923,-1.0527,-1.1076,-1.1678,-1.2223,0.0,-1.331,-1.3851,-1.4548,-1.5702,-1.6396,-1.7147,-1.8628,-1.9236,-1.9815,-2.0974,-2.1268,-2.1603,-2.2513,-2.2965,-2.3296,-2.3689,-2.4629,-2.5478,-2.5682,-2.6218,-2.6396,-2.5982,-2.6368,-2.6489,-2.6012,-2.5746,-2.561,-2.5793,-2.581,-2.6042,-2.6448,-2.7785,-2.9171,-3.0481,-3.0974,-3.1628,-3.2489,-3.3433,-3.4181,-3.4662,-3.5439,-3.6363,-3.7349,-3.7565,-3.8135,0.0,0.0,0.0,0.0,0.0,0.0,0.0,0.0,0.0,0.0,0.0,-2.3907,-2.3705,0.0,-2.2297,-2.1667,-2.1301,-2.085,-2.0079,-1.9656,-1.8796,-1.6951,-1.5966,-1.4982,-1.3851,-1.2708,-1.1509,-1.0363,-0.942,-0.8595,-0.7826,-0.716,-0.6606,-0.633,-0.5377,-0.4761,-0.448,-0.3527,-0.2764,-0.2184,-0.1569,-0.0977,-0.0404,-0.0101,0.0051,0.0202,0.0354,0.0152,-0.0202,-0.0354,-0.0858,-0.1665,-0.2319,-0.3277,-0.4236,-0.4634,-0.5101,-0.5679,-0.6529,-0.7277,-0.7928,-0.865,-0.9423,-1.0135,-1.0743,-1.1295,-1.1896,-1.2659,-1.3093,-1.3598,-1.4894,-1.5651,-1.6392,-1.7728,-1.8608,-1.9344,-2.0076,-2.0622,-2.1139,-2.1774,-2.223,-2.2683,-2.2965,-2.3801,-2.4573,-2.5183,-2.5615,-2.5873,-2.5784,-2.6036,-2.6052,-2.5658,-2.5496,-2.5368,-2.5324,-2.5766,-2.633,-2.6954,-2.8017,-2.9264,-3.0674,-3.1236,-3.1945,-3.2889,-3.3777,-3.439,-3.4774,-3.5756,-3.6598,-3.7404,-3.8278,-3.8971,0.0,0.0,0.0,0.0,0.0,0.0,0.0,-2.754,-2.6975,-2.6524,-2.5923,-2.5352,-2.4893,-2.4284,-2.3541,-2.258,-2.2355,-2.2014,-2.13,-2.0899,-1.9994,-1.8048,-1.6895,-1.5779,-1.4654,-1.3467,-1.2273,-1.1131,-1.019,-0.9254,-0.8318,-0.7654,-0.7046,-0.6495,-0.5489,-0.4873,-0.4592,-0.3317,-0.2506,-0.2194,-0.1316,-0.0569,0.0,0.0354,0.0606,0.0859,0.0859,0.0758,0.0556,0.0253,-0.0152,-0.0556,-0.0606,-0.1464,-0.2726,-0.3443,-0.388,-0.4309,-0.5337,-0.6053,-0.6657,-0.749,-0.8374,-0.9251,-0.9809,-1.0414,-1.1072,-1.1837,-1.2219,-1.2707,-1.409,-1.4867,-1.5588,-1.6672,-1.7742,-1.8671,-1.8968,-1.977,-2.048,-2.0845,-2.1425,-2.1938,-2.2286,-2.2796,-2.3464,-2.4398,-2.4842,-2.5128,-2.5412,-2.5514,-2.5399,-2.5091,-2.5057,-2.4945,-2.4624,-2.5569,-2.6546,-2.7339,-2.8174,-2.9291,-3.0716,-3.1351,-3.2139,-3.3158,-3.3854,-3.4396,-3.4775,-3.5661,-3.6456,-3.7229,-3.849,-3.9419,-3.1413,-3.1793,-3.2129,-3.2097,-3.1512,-3.0701,0.0,-2.9116,-2.8385,-2.7745,-2.7256,-2.6789,-2.6133,-2.5485,-2.4712,-2.3747,-2.314,-2.2621,-2.2058,-2.1618,-2.1062,-2.0238,-1.8513,-1.6948,-1.5832,-1.4654,-1.3516,-1.2273,-1.1181,-1.019,-0.9306,-0.8146,-0.7429,-0.7099,-0.5986,-0.5206,-0.4873,-0.3635,-0.2772,-0.218,-0.134,-0.058,0.0,0.0509,0.0909,0.1162,0.1162,0.1162,0.1111,0.0808,0.0556,0.0253,0.0,-0.0354,-0.086,-0.221,-0.3035,-0.3679,-0.4277,-0.5123,-0.5989,-0.6657,-0.7435,-0.8263,-0.8868,-0.964,-1.0363,-1.0802,-1.1618,-1.2597,-1.3588,-1.4259,-1.4994,-1.6104,-1.6668,-1.7185,-1.8033,-1.8724,-1.9316,-1.9876,-2.0443,-2.0952,-2.1318,-2.1603,-2.2222,-2.3464,-2.4144,-2.4487,-2.4543,-2.474,-2.4872,-2.4837,-2.4461,-2.4207,-2.4162,-2.503,-2.6002,-2.6976,-2.8187,-2.9363,-3.039,-3.1184,-3.2022,-3.2812,-3.3208,-3.3866,-3.4775,-3.4932,-3.5745,-3.7245,-3.7929,-3.8888,-3.1909,-3.2258,-3.2497,-3.2552,-3.2042,-3.1394,-3.0735,-3.0126,-2.9574,-2.9042,-2.8597,-2.8079,-2.7424,-2.6905,-2.6205,-2.5147,-2.4623,-2.4058,-2.3174,-2.2566,-2.2007,-2.1404,-2.0027,-1.8567,-1.7035,-1.5885,-1.4708,-1.3516,-1.2382,-1.1236,-1.019,-0.9196,-0.8257,-0.7485,-0.6596,-0.5819,-0.5206,-0.4143,-0.3221,-0.2458,-0.1574,-0.0747,0.0,0.0567,0.1021,0.1415,0.1415,0.1415,0.1415,0.1314,0.1111,0.0859,0.0758,0.0354,-0.0304,-0.134,-0.2046,-0.2562,-0.3096,-0.392,-0.4869,-0.5431,-0.6379,-0.7379,-0.8152,-0.8868,-0.9644,-1.0468,-1.1181,-1.1855,-1.271,-1.3506,-1.4281,-1.5133,-1.5794,-1.6414,-1.7122,-1.7635,-1.813,-1.8705,-1.9142,-1.9599,-2.0075,-2.0559,-2.1074,-2.1752,-2.2732,-2.3416,-2.3585,-2.3689,-2.3739,-2.3628,-2.3578,-2.3505,-2.34,-2.4139,-2.5108,-2.6228,-2.7341,-2.8461,-2.9586,-3.0432,-3.1208,-3.1874,-3.2482,-3.3147,-3.3915,-3.4544,-3.5515,-3.6777,-3.7512,-3.8565,-3.2307,-3.2507,-3.2537,-3.2807,-3.2503,-3.1982,-3.1421,-3.1048,-3.0646,-3.0203,-2.9858,-2.942,-2.8809,-2.8307,-2.7626,-2.6595,-2.5987,-2.5277,-2.4311,-2.3513,-2.284,-2.2201,-2.1303,-2.012,-1.8617,-1.7206,-1.5885,-1.4761,-1.357,-1.2382,-1.1236,-1.0245,-0.9251,-0.8146,-0.7432,-0.6657,-0.5761,-0.4868,-0.3949,-0.3024,-0.2026,-0.1079,-0.0211,0.0574,0.1134,0.1476,0.157,0.1617,0.1617,0.1617,0.1465,0.1313,0.1212,0.0859,0.0253,-0.0464,-0.1102,-0.1655,-0.2174,-0.2984,-0.3863,-0.448,-0.5429,-0.649,-0.7379,-0.8097,-0.8868,-0.9915,-1.0578,-1.1185,-1.1946,-1.2767,-1.3464,-1.4072,-1.4877,-1.5543,-1.6013,-1.6518,-1.6993,-1.7514,-1.7916,-1.8333,-1.8847,-1.9362,-1.9818,-2.0173,-2.0993,-2.1824,-2.2425,-2.2476,-2.2466,-2.2328,-2.2495,-2.2603,-2.2578,-2.3226,-2.4186,-2.5359,-2.6456,-2.7569,-2.8678,-2.9606,-3.0339,-3.0972,-3.1721,-3.2381,-3.3069,-3.4016,-3.5034,-3.6105,-3.6922,-3.8047,-3.2386,-3.2481,-3.2377,-3.3107,-3.3122,-3.281,-3.22,-3.1909,-3.1653,-3.1233,-3.1009,-3.0709,-3.0317,-2.9588,-2.8834,-2.8136,-2.6999,-2.5984,-2.5448,-2.4385,-2.3436,-2.2859,-2.2224,-2.1527,-2.0684,-1.8743,-1.7107,-1.5945,-1.4815,-1.363,-1.2382,-1.1291,-1.0249,-0.9361,-0.8429,-0.7546,-0.6657,-0.5819,-0.4866,-0.397,-0.2753,-0.1694,-0.0818,0.058,0.1194,0.1244,0.1477,0.1617,0.1617,0.1617,0.1617,0.1566,0.1313,0.1162,0.1114,0.0567,-0.0367,-0.1335,-0.1685,-0.2376,-0.3249,-0.3807,-0.4644,-0.5594,-0.649,-0.7324,-0.8156,-0.8758,-0.9805,-1.0857,-1.1459,-1.2005,-1.2604,-1.3217,-1.3807,-1.4353,-1.4608,-1.5325,-1.6007,-1.6304,-1.6806,-1.7372,-1.77,-1.7991,-1.8374,-1.8865,-1.9018,-1.9573,-2.108,-2.1256,-2.1214,-2.107,-2.1055,-2.1238,-2.1707,-2.2356,-2.3246,-2.4482,-2.5711,-2.6852,-2.7814,-2.8698,-2.9554,-3.0391,-3.0972,-3.1618,-3.2409,-3.3069,-3.4,-3.527,-3.6066,-3.7142,-3.2588,-3.2657,-3.2591,-3.3437,-3.3507,-3.3297,-3.2952,-3.2846,-3.2775,-3.2618,-3.2426,-3.2173,-3.1783,-3.1156,-3.0367,-2.933,-2.8215,-2.7115,-2.6059,-2.4931,-2.4017,-2.3463,-2.263,-2.2025,-2.1771,-2.0076,-1.852,-1.7358,-1.624,-1.5018,-1.3684,-1.2486,-1.1345,-1.0304,-0.9592,-0.8654,-0.7546,-0.6932,-0.6038,-0.4923,-0.3085,-0.175,-0.0874,0.0,0.0476,0.0687,0.0946,0.1048,0.1047,0.109,0.1084,0.108,0.0965,0.096,0.091,0.0712,0.0412,0.0,-0.065,-0.1482,-0.2319,-0.2958,-0.3918,-0.4981,-0.5822,-0.6765,-0.7654,-0.8426,-0.9199,-1.0025,-1.0802,-1.1459,-1.2005,-1.255,-1.3039,-1.3439,-1.3847,-1.4402,-1.4859,-1.5106,-1.5644,-1.6091,-1.6429,-1.674,-1.7055,-1.7472,-1.8477,-1.9381,-1.9919,-2.016,-2.0168,-1.9891,-2.0225,-2.0505,-2.0624,-2.1166,-2.2067,-2.3358,-2.436,-2.5414,-2.6626,-2.7672,-2.8581,-2.927,-3.0026,-3.0817,-3.1618,-3.1986,-3.3101,-3.4959,-3.5374,-3.6497,-3.2743,-3.2878,-3.2914,-3.3879,-3.4074,-3.3937,-3.3811,-3.3762,-3.3762,-3.3879,-3.3673,-3.3395,-3.3087,-3.2412,-3.1576,-3.0532,-2.9356,-2.8136,-2.6958,-2.5757,-2.4731,-2.4071,-2.3259,-2.2695,-2.2568,-2.1478,-2.0197,-1.8864,-1.7713,-1.6499,-1.5173,-1.3992,-1.2807,-1.1669,-1.0962,-1.0029,-0.8813,-0.8149,-0.6985,-0.5371,-0.3546,-0.2317,-0.1488,-0.0705,-0.0215,-0.0054,0.0321,0.0481,0.0482,0.0476,0.0526,0.068,0.0668,0.0711,0.0808,0.0808,0.0814,0.0723,0.0,-0.0704,-0.1424,-0.2158,-0.3122,-0.4143,-0.5039,-0.6042,-0.7041,-0.782,-0.8592,-0.9361,-1.008,-1.0743,-1.1404,-1.1837,-1.2332,-1.2822,-1.3093,-1.3521,-1.3954,-1.4121,-1.4516,-1.4844,-1.5068,-1.5437,-1.5814,-1.6092,-1.7189,-1.8097,-1.8552,-1.8769,-1.8823,-1.8704,-1.9106,-1.9439,-1.948,-2.02,-2.1144,-2.2355,-2.342,-2.4522,-2.5707,-2.6808,-2.7672,-2.8368,-2.9237,-3.0036,-3.0765,-3.1322,-3.2535,-3.4396,-3.4855,-3.6039,-3.2805,-3.3114,-3.3282,-3.4442,-3.4731,-3.4716,-3.4677,-3.4662,-3.4743,-3.4942,-3.4725,-3.4423,-3.4206,-3.343,-3.2511,-3.17,-3.0405,-2.9096,-2.8039,-2.6794,-2.56,-2.4659,-2.4095,-2.3561,-2.3138,-2.2892,-2.204,-2.0385,-1.9169,-1.8021,-1.6857,-1.5695,-1.4578,-1.3398,-1.254,-1.15,-1.0288,-0.9357,-0.7756,-0.5483,-0.4257,-0.3362,-0.2743,-0.1598,-0.104,-0.0984,-0.043,-0.0215,-0.0163,-0.0161,0.0,0.0319,0.0314,0.0514,0.0759,0.0758,0.0808,0.076,0.0206,-0.0159,-0.06,-0.1475,-0.232,-0.3245,-0.4143,-0.526,-0.6374,-0.6985,-0.7928,-0.892,-0.9251,-0.997,-1.0692,-1.1017,-1.1728,-1.2332,-1.2387,-1.2822,-1.3261,-1.3261,-1.3478,-1.3699,-1.3699,-1.4139,-1.4608,-1.4889,-1.5155,-1.5761,-1.695,-1.7102,-1.7258,-1.7523,-1.7762,-1.8062,-1.8318,-1.9451,-2.0529,-2.1464,-2.2944,-2.412,-2.5093,-2.6054,-2.6926,-2.7716,-2.8591,-2.9343,-2.9942,-3.1013,-3.2236,-3.3615,-3.4396,-3.5788,-3.2867,-3.3161,-3.3456,-3.4756,-3.5082,-3.5148,-3.5365,-3.5559,-3.5688,-3.5847,-3.572,-3.5494,-3.5139,-3.4476,-3.3624,-3.2583,-3.1341,-3.0088,-2.8912,-2.7689,-2.6558,-2.5642,-2.4816,-2.4243,-2.4044,-2.365,-2.3131,-2.2605,-2.0929,-1.9383,-1.8021,-1.6909,-1.5749,-1.4583,-1.3722,-1.2698,-1.1559,-0.9801,-0.8146,-0.6707,-0.5704,-0.481,-0.4032,-0.3232,-0.267,-0.2226,-0.1828,-0.1551,-0.139,-0.1386,-0.1154,-0.0866,-0.0845,-0.0416,0.0206,0.0203,0.0606,0.1062,0.0711,0.0258,-0.0211,-0.0705,-0.1535,-0.2536,-0.3238,-0.4313,-0.5429,-0.6262,-0.7041,-0.7873,-0.8809,-0.9199,-0.9585,-1.0578,-1.0966,-1.1295,-1.1891,-1.2327,-1.2713,-1.2935,-1.3207,-1.3423,-1.3423,-1.3524,-1.3668,-1.3723,-1.3775,-1.4428,-1.6044,-1.6228,-1.6326,-1.6609,-1.6887,-1.7265,-1.774,-1.8862,-1.9825,-2.0604,-2.2025,-2.3241,-2.4197,-2.534,-2.6227,-2.6871,-2.796,-2.8771,-2.9343,-3.0088,-3.14,-3.3231,-3.3922,-3.5089,-3.2973,-3.3392,-3.3783,-3.5098,-3.5524,-3.5718,-3.599,-3.6227,-3.6414,-3.6538,-3.6461,-3.6243,-3.5832,-3.5219,-3.439,-3.3241,-3.2074,-3.0857,-2.9549,-2.8331,-2.7255,-2.6268,-2.5432,-2.49,-2.4744,-2.4469,-2.4161,-2.3972,-2.2345,-2.0834,-1.9583,-1.8433,-1.7285,-1.6187,-1.5179,-1.3835,-1.2164,-1.0519,-0.9089,-0.7928,-0.7035,-0.6146,-0.526,-0.4643,-0.414,-0.364,-0.336,-0.3136,-0.2969,-0.2801,-0.2564,-0.2261,-0.1992,-0.1426,-0.0728,-0.0359,0.0153,0.0707,0.0909,0.0712,0.0258,-0.016,-0.087,-0.1809,-0.2676,-0.364,-0.4702,-0.565,-0.6432,-0.721,-0.8097,-0.8595,-0.9144,-1.0088,-1.0527,-1.0857,-1.1455,-1.1891,-1.2327,-1.2604,-1.2822,-1.2935,-1.2935,-1.2935,-1.2935,-1.3098,-1.3098,-1.3524,-1.4636,-1.498,-1.525,-1.5535,-1.6149,-1.6706,-1.7195,-1.8387,-1.9477,-2.0269,-2.1587,-2.2744,-2.3664,-2.4731,-2.5615,-2.6391,-2.7368,-2.8174,-2.8761,-2.9574,-3.0927,-3.2739,-3.3338,-3.4555,-3.314,-3.3698,-3.4136,-3.5435,-3.6022,-3.6305,-3.6523,-3.6754,-3.6982,-3.706,-3.7013,-3.6814,-3.6352,-3.572,-3.489,-3.3782,-3.2648,-3.1429,-3.0037,-2.8924,-2.7862,-2.6805,-2.6126,-2.5658,-2.5413,-2.5388,-2.5251,-2.4925,-2.369,-2.2459,-2.1242,-2.0107,-1.8968,-1.7687,-1.6524,-1.488,-1.2697,-1.1549,-1.0402,-0.9255,-0.8366,-0.7522,-0.6672,-0.6114,-0.5605,-0.5264,-0.4983,-0.4814,-0.4758,-0.4421,-0.4143,-0.3858,-0.3242,-0.2634,-0.189,-0.1141,-0.0512,0.0,0.0708,0.0911,0.0714,0.0264,-0.0269,-0.0984,-0.2172,-0.3136,-0.403,-0.4979,-0.5931,-0.6715,-0.7382,-0.8152,-0.8923,-0.9592,-1.0202,-1.0692,-1.1021,-1.1564,-1.206,-1.2327,-1.2387,-1.2327,-1.2327,-1.2332,-1.2387,-1.2663,-1.2772,-1.2891,-1.3138,-1.373,-1.4218,-1.4542,-1.5522,-1.6338,-1.6734,-1.8045,-1.9251,-2.0145,-2.1353,-2.2449,-2.336,-2.4239,-2.5119,-2.5953,-2.6826,-2.7593,-2.8237,-2.9361,-3.0724,-3.2189,-3.2857,-3.4181,-3.3382,-3.3849,-3.4304,-3.575,-3.6274,-3.6523,-3.6847,-3.7119,-3.7328,-3.7405,-3.7344,-3.7178,-3.6708,-3.607,-3.5317,-3.439,-3.3136,-3.1932,-3.0859,-2.969,-2.8593,-2.7689,-2.7375,-2.6997,-2.64,-2.6702,-2.6649,-2.5979,-2.5641,-2.4609,-2.2669,-2.1743,-2.0246,-1.7989,-1.6624,-1.5343,-1.4174,-1.2959,-1.1984,-1.1285,-1.0383,-0.951,-0.8702,-0.8307,-0.7744,-0.7093,-0.6818,-0.6538,-0.6313,-0.6038,-0.5704,-0.5357,-0.4994,-0.4349,-0.3502,-0.2835,-0.1787,-0.0669,-0.0254,0.0306,0.0778,0.0689,0.0267,-0.0323,-0.1278,-0.2185,-0.3192,-0.4311,-0.5262,-0.6156,-0.7043,-0.7709,-0.8377,-0.9265,-0.982,-1.0374,-1.0966,-1.1564,-1.206,-1.2327,-1.2219,-1.206,-1.206,-1.1896,-1.1787,-1.1841,-1.2005,-1.2229,-1.246,-1.3195,-1.3909,-1.4471,-1.5077,-1.5782,-1.6566,-1.7811,-1.8855,-1.954,-2.0907,-2.1995,-2.274,-2.3865,-2.4748,-2.534,-2.6273,-2.7142,-2.796,-2.9011,-3.0208,-3.1613,-3.2779,-3.3867,-3.3637,-3.4273,-3.4912,-3.6075,-3.6554,-3.68,-3.7044,-3.7329,-3.7537,-3.751,-3.7449,-3.7268,-3.6785,-3.6133,-3.5415,-3.4524,-3.3346,-3.2151,-3.1046,-3.0024,-2.9165,-2.8483,-2.8156,-2.7895,-2.7766,-2.7831,-2.7667,-2.716,-2.7181,-2.6201,-2.3868,-2.2477,-2.0974,-1.9259,-1.7921,-1.674,-1.5701,-1.4524,-1.3512,-1.2756,-1.1959,-1.1167,-1.0281,-1.0109,-0.9624,-0.8867,-0.8756,-0.8542,-0.8306,-0.8033,-0.7811,-0.7633,-0.6968,-0.6253,-0.5483,-0.4401,-0.3256,-0.215,-0.125,-0.0468,0.0105,0.0107,-0.0054,-0.038,-0.1113,-0.1963,-0.2915,-0.3923,-0.4871,-0.5819,-0.6932,-0.7598,-0.8266,-0.9375,-1.0033,-1.0578,-1.124,-1.1673,-1.2055,-1.2327,-1.2278,-1.2169,-1.2001,-1.1896,-1.1787,-1.1623,-1.1841,-1.2078,-1.2288,-1.2904,-1.359,-1.4158,-1.4985,-1.5812,-1.6609,-1.7772,-1.8794,-1.9546,-2.0587,-2.1588,-2.257,-2.3472,-2.4248,-2.5,-2.5889,-2.6819,-2.7734,-2.87,-2.9973,-3.1525,-3.2298,-3.3324,-3.406,-3.4759,-3.5462,-3.6291,-3.6754,-3.703,-3.715,-3.7449,-3.7642,-3.7464,-3.7403,-3.7238,-3.6754,-3.6148,-3.5415,-3.4591,-3.35,-3.2367,-3.1233,-3.0471,-2.982,-2.9354,-2.9018,-2.8928,-2.9068,-2.9027,-2.8805,-2.8481,-2.8466,-2.7443,-2.4979,-2.322,-2.1799,-2.0799,-1.9552,-1.8373,-1.7266,-1.6135,-1.508,-1.4218,-1.3639,-1.2862,-1.2068,-1.2011,-1.1625,-1.0948,-1.0892,-1.0755,-1.0623,-1.0342,-1.0231,-1.0116,-0.9189,-0.8443,-0.768,-0.6219,-0.4966,-0.379,-0.2397,-0.1538,-0.0954,-0.0814,-0.0601,-0.0493,-0.1227,-0.2019,-0.2917,-0.3868,-0.476,-0.5761,-0.6874,-0.7654,-0.8429,-0.9702,-1.0441,-1.1012,-1.163,-1.1936,-1.2128,-1.2463,-1.2485,-1.2288,-1.2124,-1.1978,-1.1841,-1.1623,-1.1877,-1.2146,-1.2352,-1.2894,-1.3495,-1.4066,-1.503,-1.595,-1.6593,-1.7707,-1.8765,-1.9635,-2.0321,-2.1238,-2.2456,-2.3135,-2.389,-2.4795,-2.5692,-2.6655,-2.7605,-2.8598,-2.9875,-3.1283,-3.1881,-3.285,-3.4897,-3.5293,-3.5645,-3.6322,-3.6754,-3.6999,-3.7015,-3.7375,-3.7612,-3.7284,-3.7328,-3.7208,-3.6647,-3.6085,-3.5447,-3.4695,-3.3693,-3.2668,-3.185,-3.1328,-3.0836,-3.0263,-3.0469,-3.0501,-3.0106,-3.0466,-3.0557,-3.003,-2.9402,-2.8175,-2.6161,-2.4663,-2.3385,-2.2218,-2.0869,-1.9686,-1.8731,-1.7774,-1.6928,-1.6234,-1.5628,-1.504,-1.4492,-1.426,-1.3966,-1.371,-1.3421,-1.3297,-1.3335,-1.2975,-1.2852,-1.2777,-1.1867,-1.1003,-1.0118,-0.8618,-0.7004,-0.542,-0.4113,-0.3167,-0.2394,-0.1857,-0.0926,-0.0272,-0.1393,-0.2186,-0.2969,-0.4143,-0.5094,-0.5989,-0.6932,-0.782,-0.8816,-1.0253,-1.0984,-1.15,-1.212,-1.2368,-1.2605,-1.2951,-1.2636,-1.2288,-1.2288,-1.1908,-1.1623,-1.1623,-1.1999,-1.2356,-1.2552,-1.3332,-1.4005,-1.4509,-1.5198,-1.586,-1.6444,-1.7695,-1.8642,-1.9325,-2.0192,-2.1124,-2.2116,-2.3022,-2.3957,-2.4895,-2.5809,-2.6727,-2.7691,-2.9051,-2.9909,-3.0376,-3.1915,-3.2701,-3.5308,-3.5738,-3.6184,-3.6538,-3.6739,-3.6862,-3.6969,-3.7151,-3.7241,-3.7105,-3.6968,-3.6708,-3.6289,-3.5671,-3.5019,-3.4404,-3.3776,-3.3133,-3.2448,-3.2198,-3.1949,-3.1483,-3.1746,-3.1862,-3.1603,-3.1932,-3.1878,-3.1184,-3.0356,-2.944,-2.8257,-2.6445,-2.4943,-2.3888,-2.2624,-2.1406,-2.0295,-1.9374,-1.8577,-1.7941,-1.7285,-1.6815,-1.6419,-1.6132,-1.5771,-1.5371,-1.5194,-1.5107,-1.5028,-1.4904,-1.4848,-1.4781,-1.4291,-1.3519,-1.2528,-1.1074,-0.9548,-0.7934,-0.6379,-0.5172,-0.427,-0.3824,-0.3097,-0.2377,-0.2346,-0.3025,-0.3976,-0.4814,-0.5817,-0.6877,-0.7765,-0.8923,-1.0107,-1.1155,-1.1852,-1.2394,-1.2617,-1.3236,-1.3712,-1.3583,-1.3288,-1.2942,-1.2833,-1.238,-1.2011,-1.1958,-1.217,-1.2429,-1.2748,-1.3441,-1.4104,-1.457,-1.5359,-1.6065,-1.6478,-1.7655,-1.8648,-1.9267,-2.0206,-2.1249,-2.2364,-2.3126,-2.3995,-2.4945,-2.5703,-2.6633,-2.7833,-2.8586,-2.9545,-3.0653,-3.1283,-3.1998,-3.5646,-3.5999,-3.6352,-3.6476,-3.6523,-3.66,-3.6739,-3.6816,-3.6847,-3.677,-3.6554,-3.6241,-3.5925,-3.5297,-3.4742,0.0,0.0,-3.3523,-3.3103,-3.3184,-3.3177,-3.2793,-3.3093,-3.3244,-3.3179,-3.3343,-3.3159,-3.2456,-3.1821,-3.117,-3.0336,-2.8617,-2.6915,-2.5322,-2.415,-2.2974,-2.1737,-2.0881,-2.0141,-1.9455,-1.8868,-1.8454,-1.8163,-1.7812,-1.7475,-1.7119,-1.7119,-1.7068,-1.6887,-1.7007,-1.7007,-1.6881,-1.6633,-1.5914,-1.4861,-1.3489,-1.2066,-1.048,-0.8788,-0.7502,-0.6478,-0.5978,-0.5448,-0.4975,-0.4506,-0.4667,-0.5148,-0.5871,-0.6982,-0.8217,-0.9144,-1.0212,-1.1309,-1.2338,-1.2942,-1.3367,-1.3561,-1.4244,-1.4719,-1.4353,-1.4066,-1.3792,-1.3389,-1.2989,-1.2617,-1.2474,-1.2543,-1.2712,-1.2998,-1.3668,-1.4237,-1.4575,-1.5591,-1.6295,-1.6478,-1.7655,-1.868,-1.9394,-2.0313,-2.137,-2.2698,-2.3273,-2.4094,-2.5159,-2.5746,-2.6696,-2.7957,-2.8387,-2.9287,-3.0616,-3.0791,-3.1606,-3.599,-3.6005,-3.6005,-3.6005,-3.6116,-3.6211,-3.6211,-3.6352,-3.646,-3.6242,-3.6085,-3.5893,-3.5569,-3.5078,-3.4767,-3.4963,-3.439,-3.3887,-3.3887,-3.4353,-3.4538,-3.4147,-3.4437,-3.4663,-3.4663,-3.4744,-3.4586,-3.3998,-3.391,-3.3347,-3.2243,-3.1309,-2.9515,-2.6545,-2.5377,-2.4214,-2.2974,-2.2384,-2.1588,-2.0658,-2.0378,-2.0097,-1.9758,-1.9448,-1.9261,-1.9261,-1.9261,-1.9261,-1.9319,-1.9622,-1.9557,-1.9228,-1.9062,-1.8254,-1.7002,-1.5829,-1.4441,-1.2965,-1.1413,-1.0155,-0.913,-0.8169,-0.7728,-0.7621,-0.813,-0.7328,-0.6485,-0.7315,-0.8647,-1.0016,-1.1183,-1.1677,-1.2286,-1.3742,-1.4254,-1.4539,-1.5172,-1.5418,-1.5472,-1.5165,-1.4928,-1.4602,-1.4014,-1.3658,-1.3407,-1.3122,-1.3249,-1.3386,-1.3391,-1.4099,-1.459,-1.4595,-1.5715,-1.6478,-1.6478,-1.7655,-1.8829,-1.9746,-2.043,-2.1516,-2.3018,-2.3389,-2.4221,-2.5547,-2.6194,-2.6968,-2.8011,-2.8677,-2.9331,-2.9922,-3.0558,-3.1776,-3.5799,-3.5894,-3.6005,-3.6005,-3.6037,-3.6022,-3.5879,-3.5911,-3.5879,-3.5705,-3.5542,-3.5478,-3.5539,-3.519,-3.4942,-3.5036,-3.4985,-3.4964,-3.5098,-3.5371,-3.5524,-3.5547,-3.5743,-3.5922,-3.6108,-3.5978,-3.5664,-3.5116,-3.4711,-3.4005,-3.291,-3.2372,-3.0966,-2.8431,-2.7086,-2.5995,-2.4986,-2.3899,-2.3095,-2.2515,-2.1866,-2.1482,-2.1368,-2.0831,-2.0479,-2.0249,-2.0479,-2.0479,-2.0256,-2.0608,-2.0716,-2.0587,-2.0551,-1.9873,-1.8845,-1.7875,-1.669,-1.5407,-1.3935,-1.2923,-1.2191,-1.1473,-1.1025,-1.0867,-1.1281,-1.0096,-0.8917,-1.0379,-1.1438,-1.2303,-1.3107,-1.363,-1.4302,-1.5281,-1.5753,-1.609,-1.6669,-1.6586,-1.6467,-1.6726,-1.6015,-1.5312,-1.507,-1.4526,-1.4028,-1.3888,-1.3781,-1.3786,-1.3936,-1.4312,-1.4709,-1.4942,-1.5887,-1.6478,-1.6478,-1.7885,-1.8976,-1.941,-2.0703,-2.1829,-2.2704,-2.3536,-2.433,-2.525,-2.591,-2.6634,-2.7366,-2.8029,-2.9062,-3.0417,-3.1012,-3.2009,0.0,-3.5444,-3.5574,-3.5574,-3.5574,-3.5542,-3.5444,-3.5591,-3.5705,-3.554,-3.5547,-3.5634,-3.5732,-3.5438,-3.5209,-3.5391,-3.5628,-3.5807,-3.6008,-3.6434,-3.6837,-3.7114,-3.7232,-3.7303,-3.7267,-3.7106,-3.675,-3.6236,-3.5789,-3.5101,-3.419,-3.3671,-3.2621,-3.0922,-2.9053,-2.7614,-2.6527,-2.5384,-2.4524,-2.3927,-2.3159,-2.2667,-2.2392,-2.193,-2.1524,-2.1238,-2.1467,-2.141,0.0,-2.1715,-2.194,-2.194,-2.2183,-2.1823,-2.098,-2.031,-1.9307,-1.8046,-1.6842,-1.5885,-1.5106,-1.4458,-1.4144,-1.3994,-1.4339,-1.3036,-1.1677,-1.3107,-1.3776,-1.4256,-1.5034,-1.5511,-1.6029,-1.698,-1.7399,-1.7621,-1.7969,-1.7818,-1.7578,-1.7497,-1.6844,-1.6188,-1.5655,-1.5178,-1.466,-1.4391,-1.4232,-1.4193,-1.4336,-1.459,-1.4883,-1.5056,-1.5946,-1.6512,-1.6669,-1.8019,-1.9103,-1.9611,-2.0951,-2.2013,-2.2737,-2.3623,-2.4417,-2.5111,-2.5656,-2.6327,-2.7073,-2.811,-2.9225,-3.0429,-3.1501,-3.2381,0.0,-3.4716,-3.4868,-3.4868,-3.4868,-3.4883,-3.4894,-3.5398,0.0,-3.5638,-3.593,-3.6223,-3.6079,-3.5715,-3.5596,-3.6017,-3.6242,-3.6439,-3.6674,-3.7558,-3.8345,-3.8738,-3.8842,-3.8704,-3.8251,-3.8139,-3.7885,-3.7304,-3.6968,-3.6526,-3.5861,-3.5058,-3.4334,-3.3695,-3.1213,-2.9247,-2.7846,-2.6917,-2.5984,-2.4987,-2.4368,-2.3689,-2.3127,-2.2796,-2.2456,-2.2165,-2.2165,-2.2173,-2.2196,-2.2886,-2.3134,-2.3207,-2.3912,-2.3819,-2.3286,-2.2899,-2.2065,-2.0891,-1.9939,-1.8893,-1.7901,-1.7255,-1.6996,-1.7064,-1.7412,-1.6069,-1.4618,-1.5468,-1.5744,-1.6027,-1.702,-1.7316,-1.7613,-1.8751,-1.9049,-1.9049,-1.9049,-1.8991,-1.87,-1.7772,-1.7596,-1.7191,-1.5952,-1.5661,-1.5423,-1.4769,-1.465,-1.4655,-1.4655,-1.4883,-1.5116,-1.511,-1.5957,-1.6663,-1.6914,-1.8148,-1.9277,-2.012,-2.1177,-2.2127,-2.2973,-2.3673,-2.4355,-2.5042,-2.5443,-2.6133,-2.7116,-2.8758,-2.9767,-3.0169,-3.1918,-3.275,-3.3374,0.0,-3.4515,-3.4515,-3.4515,-3.4598,0.0,0.0,-3.5313,-3.5605,0.0,-3.5933,-3.6271,-3.6043,-3.6105,-3.6855,-3.6877,-3.7044,-3.7883,-3.8608,-3.9157,-3.9367,-3.9583,-3.9552,-3.9044,-3.9182,-3.8968,-3.8174,-3.7861,-3.7227,-3.6266,-3.5993,-3.5511,-3.4691,-3.3538,-3.2116,-3.0399,-2.8897,-2.7753,-2.7013,-2.5945,-2.5061,-2.4334,-2.3632,-2.3135,-2.2788,-2.2788,-2.2675,-2.2536,-2.3445,-2.381,-2.3842,-2.4554,-2.4584,-2.4239,-2.387,-2.3448,-2.2907,-2.1918,-2.1422,-2.1078,-2.0399,-2.0085,-2.0144,-2.0459,-1.9081,-1.7487,-1.7949,-1.841,-1.8832,-1.9077,-1.9506,-1.9929,-2.0235,-2.0486,-2.0601,-2.0314,-1.9961,-1.9557,-1.9004,-1.8363,-1.7778,-1.7191,-1.649,-1.5844,-1.5423,-1.518,-1.4997,-1.4997,-1.5056,-1.5175,-1.5477,-1.6291,-1.6926,-1.7188,-1.8429,-1.936,-1.9767,-2.1181,-2.2097,-2.2355,-2.3238,-2.3922,-2.4355,-2.5676,-2.6744,-2.7484,-2.8677,-2.9752,-3.0644,-3.1615,-3.245,-3.281,-3.3374,-3.3922,-3.4005,-3.404,-3.4177,-3.4759,0.0,0.0,0.0,0.0,0.0,-3.666,-3.6564,-3.6679,-3.7325,-3.7469,-3.7921,-3.9064,-3.9693,-4.0054,-4.0319,-4.0474,-4.0393,-3.9917,-3.9778,-3.9474,-3.8973,-3.8614,-3.8132,-3.7684,-3.7243,-3.6744,-3.6308,-3.5333,-3.3797,-3.1834,-3.0525,-2.9358,-2.8387,-2.7426,-2.6462,-2.5518,-2.4574,-2.3934,-2.3464,-2.3134,-2.2996,-2.3063,-2.3915,-2.4447,-2.481,-2.5467,-2.5736,-2.5744,-2.5557,-2.525,-2.4859,-2.4265,-2.3862,-2.3504,-2.3142,-2.2956,-2.2978,-2.3137,-2.2353,-2.1231,-2.058,-2.058,-2.0866,-2.1038,-2.1266,-2.1566,-2.1744,-2.1809,-2.1759,-2.141,-2.0952,-2.0371,-1.9737,-1.9113,-1.8415,-1.763,-1.7062,-1.6549,-1.5903,-1.5661,-1.5477,-1.5359,-1.5353,-1.5477,-1.5779,-1.6466,-1.7072,-1.7459,-1.8575,-1.9442,-1.9852,-2.1141,-2.1922,-2.2111,-2.2918,-2.3673,-2.4293,-2.5507,-2.6586,-2.744,-2.8444,-2.9524,-3.0628,-3.1311,-3.2121,-3.2538,-3.2881,-3.3178,-3.3417,-3.3452,-3.3656,-3.4491,0.0,0.0,0.0,0.0,0.0,0.0,-3.7063,-3.7251,-3.7667,-3.8172,-3.8872,-4.0092,-4.0564,-4.0878,-4.1194,-4.1304,-4.111,-4.0555,-4.0096,-3.9717,-3.9492,-3.9109,-3.8984,-3.9066,-3.8424,-3.8008,-3.7951,-3.6691,-3.5108,-3.3277,-3.2055,-3.0804,-2.949,-2.8814,-2.7811,-2.6478,-2.56,-2.4761,-2.4105,-2.3528,-2.3405,-2.3707,-2.4468,-2.5097,-2.5776,-2.6428,-2.6935,-2.7194,-2.7194,-2.7056,-2.6754,-2.656,-2.6075,-2.5544,-2.5515,-2.549,-2.5508,-2.5494,-2.5451,-2.4988,-2.344,-2.2779,-2.258,-2.2805,-2.2862,-2.2918,-2.3175,-2.3022,-2.2796,-2.24,-2.1888,-2.1253,-2.0415,-1.9853,-1.9165,-1.7962,-1.7636,-1.7309,-1.6436,-1.62,-1.6022,-1.572,-1.572,-1.5839,-1.6081,-1.6652,-1.7193,-1.776,-1.8641,-1.9424,-1.996,-2.0982,-2.167,-2.2111,-2.2731,-2.3509,-2.444,-2.5282,-2.6143,-2.7144,-2.8255,-2.9314,-3.0239,-3.1064,-3.1699,-3.2205,-3.2314,-3.2444,-3.2753,-3.2846,-3.3048,-3.384,0.0,0.0,0.0,0.0,0.0,0.0,-3.7296,-3.7681,-3.8281,-3.9129,-3.9922,-4.0466,-4.0835,-4.1093,-4.1194,-4.1439,-4.1348,-4.0555,-4.0402,-3.9967,-3.9016,-3.9288,-3.9206,-3.8554,-3.8805,-3.8863,-3.8559,-3.787,-3.7201,-3.6646,-3.4097,-3.2164,-3.089,-2.9689,-2.8479,-2.7109,-2.6252,-2.5484,-2.4853,-2.4504,-2.4404,-2.4477,-2.5146,-2.5684,-2.6109,-2.7013,-2.7401,-2.7461,-2.7779,-2.8011,-2.8173,-2.817,-2.7825,-2.7468,-2.749,-2.7458,-2.7395,-2.7365,-2.735,-2.7307,-2.6996,-2.5717,-2.439,-2.4445,-2.4437,-2.439,-2.4256,-2.4153,-2.3985,-2.3416,-2.3014,-2.2505,-2.1695,-2.0952,-2.0206,-1.9294,-1.8409,-1.7707,-1.7367,-1.6773,-1.6366,-1.6081,-1.6194,-1.6307,-1.6146,-1.6837,-1.7447,-1.776,-1.8641,-1.9355,-1.9686,-2.0596,-2.1418,-2.2048,-2.2731,-2.33,-2.3769,-2.531,-2.6303,-2.6792,-2.8382,-2.9313,-2.9513,-3.0797,-3.1635,-3.2146,-3.2241,-3.2359,-3.2489,-3.2632,-3.2891,-3.3718,-3.4505,0.0,0.0,0.0,0.0,-3.6978,-3.7405,-3.8013,-3.8866,-3.9701,-4.0288,-4.0552,-4.0959,-4.1266,-4.1181,-4.1621,-4.1534,-4.0605,-4.0504,-4.0158,-3.9312,-3.9451,-3.9587,-3.9467,-3.9551,-3.9632,-3.9758,-3.91,-3.8492,-3.8022,-3.5855,-3.4065,-3.2623,-3.1289,-2.9978,-2.863,-2.7365,-2.646,-2.5747,-2.5085,-2.4941,-2.5197,-2.5838,-2.6321,-2.6704,-2.746,-2.8011,-2.837,-2.8856,-2.9263,-2.9549,-2.9549,-2.9477,-2.9474,-2.9474,-2.9467,-2.9441,-2.9441,-2.927,-2.9088,-2.9079,-2.765,-2.6083,-2.6083,-2.5821,-2.5459,-2.5357,-2.5081,-2.474,-2.4295,-2.384,-2.3279,-2.2554,-2.1752,-2.0888,-2.0046,-1.9171,-1.8415,-1.7602,-1.7244,-1.6832,-1.6371,-1.6425,-1.6543,-1.6554,-1.7076,-1.7568,-1.8018,-1.8591,-1.9292,-2.0075,-2.0729,-2.1299,-2.1796,-2.2299,-2.2889,-2.3588,-2.4555,-2.5607,-2.6676,-2.7686,-2.8584,-2.9307,-3.0148,-3.1034,-3.2205,-3.2359,-3.2489,-3.2489,0.0,-3.285,-3.3537,-3.4444,-3.5278,0.0,-3.6497,-3.6978,-3.6978,-3.7611,-3.8497,-3.9536,-4.015,-4.0465,-4.0539,-4.0954,-4.1167,-4.0889,-4.1488,-4.1485,-4.04,-4.0427,-4.0209,-3.9484,-3.9525,-3.9738,-4.0038,-3.9902,-4.0099,-4.0578,-3.9981,-3.9415,-3.9001,-3.7349,-3.572,-3.4017,-3.2567,-3.1199,-2.9971,-2.8586,-2.7559,-2.678,-2.5957,-2.5763,-2.6099,-2.6559,-2.703,-2.7487,-2.802,-2.8677,-2.939,-2.9922,-3.0333,-3.0616,-3.0791,-3.0956,-3.1111,-3.1227,-3.1227,-3.1227,-3.1227,-3.0948,-3.0658,-3.0646,-2.9447,-2.8042,-2.7632,-2.6958,-2.64,-2.6345,-2.5889,-2.5441,-2.5174,-2.4556,-2.3944,-2.3528,-2.2603,-2.1623,-2.0651,-2.0033,-1.9229,-1.8064,-1.7889,-1.7537,-1.6832,-1.6773,-1.6897,-1.6961,-1.7256,-1.7684,-1.8263,-1.8535,-1.9173,-2.0272,-2.0666,-2.1046,-2.1362,-2.167,-2.2349,-2.3314,-2.3825,-2.48,-2.6327,-2.6941,-2.7791,-2.8914,-2.943,-3.049,-3.2359,-3.2525,-3.2668,-3.2668,-3.2704,0.0,-3.3008,-3.4027,0.0,-3.5208,-3.6202,-3.6978,-3.6978,-3.8016,-3.9198,-4.0435,-4.0631,-4.0644,-4.0455,-4.0692,-4.0662,-3.9989,-4.0729,-4.083,-3.9783,-4.0184,-4.0057,-3.8955,-3.9316,-3.9421,-3.8924,-3.9338,-3.9842,-4.0382,-4.0051,-3.9969,-4.0106,-3.847,-3.6577,-3.4374,-3.2855,-3.1536,-3.0323,-2.9571,-2.8733,-2.7855,-2.7512,-2.7331,-2.7357,-2.7418,-2.7796,-2.8421,-2.8797,-2.9509,-3.0323,-3.0675,-3.0976,-3.1325,-3.1883,-3.2113,-3.217,-3.2457,-3.2571,-3.2571,-3.2571,-3.2311,-3.2041,-3.2062,-3.1432,-3.0439,-2.8836,-2.7834,-2.726,-2.6989,-2.6718,-2.6382,-2.6063,-2.534,-2.474,-2.468,-2.3705,-2.2539,-2.1343,-2.0866,-2.0263,-1.9294,-1.8939,-1.8467,-1.7537,-1.7726,-1.7673,-1.7085,-1.7326,-1.772,-1.8245,-1.8535,-1.8984,-1.9623,-1.9973,-2.0297,-2.0672,-2.0982,-2.1626,-2.2528,-2.3609,-2.4452,-2.5143,-2.6517,-2.7392,-2.7841,-2.8839,-3.0097,-3.2561,-3.2739,-3.2881,-3.2881,-3.2966,0.0,0.0,-3.4086,-3.5106,-3.5189,-3.6174,-3.7144,-3.7642,-3.8472,-3.9389,-4.0348,-4.0717,-4.0816,-4.0616,-4.0755,-4.0639,-3.9868,-4.0187,-4.0092,-3.9192,-3.9321,-3.9157,-3.8337,-3.8631,-3.8817,-3.8803,-3.9008,-3.9357,-3.9886,-3.9786,-3.9646,-3.9543,-3.8274,-3.6983,-3.5733,-3.3919,-3.2504,-3.1478,-3.049,-2.9736,-2.9144,-2.8668,-2.843,-2.843,-2.8591,-2.8948,-2.944,-3.0147,-3.0626,-3.1034,-3.1536,-3.1883,-3.2227,-3.2685,-3.2924,-3.3105,-3.3218,-3.3275,-3.3275,-3.3275,-3.3161,-3.3048,-3.3048,-3.2534,-3.1634,-3.0138,-2.9068,-2.8298,-2.792,-2.7422,-2.7043,-2.6718,-2.6273,-2.5716,-2.4927,-2.427,-2.3496,-2.2505,-2.1752,-2.0945,-2.004,-1.9461,-1.8939,-1.8415,-1.8305,-1.8129,-1.7895,-1.8102,-1.8476,-1.8863,-1.9156,-1.9493,-1.989,-1.9839,-1.9973,-2.0297,-2.0609,-2.1261,-2.2168,-2.2766,-2.3733,-2.4977,-2.5794,-2.6599,-2.7392,-2.851,-2.9757,-3.281,-3.3002,-3.3178,-3.3178,0.0,0.0,-3.3466,-3.4385,-3.525,-3.5442,-3.6338,-3.7331,-3.8071,-3.8788,-3.9548,-4.0269,-4.073,-4.0916,-4.073,-4.056,-4.0247,-3.9585,-3.9568,-3.9298,-3.8482,-3.8501,-3.8328,-3.7682,-3.7965,-3.8166,-3.8286,-3.8467,-3.8803,-3.9345,-3.9357,-3.9263,-3.9118,-3.8221,-3.7423,-3.6701,-3.5045,-3.3685,-3.2618,-3.1478,-3.0791,-3.045,-2.9853,-2.9558,-2.9558,-2.9776,-3.0079,-3.0567,-3.1315,-3.172,-3.195,-3.2342,-3.281,-3.3208,-3.3491,-3.3784,-3.4086,-3.4132,-3.4188,-3.4188,-3.4188,-3.4097,-3.4006,-3.3918,-3.3447,-3.2762,-3.1571,-3.0358,-2.9263,-2.871,-2.8174,-2.7745,-2.7476,-2.7098,-2.6536,-2.5562,-2.5029,-2.4518,-2.369,-2.2796,-2.1858,-2.1017,-2.0335,-1.9758,-1.9403,-1.9055,-1.8823,-1.87,-1.8874,-1.9146,-1.9527,-1.9691,-1.9843,-2.0208,-1.9973,-1.9845,-2.0106,-2.0227,-2.0812,-2.1846,-2.2182,-2.3137,-2.4706,-2.5187,-2.5996,-2.7067,-2.7981,-2.9302,-3.3023,-3.3297,-3.3605,-3.3619,0.0,0.0,-3.4363,-3.4854,-3.5363,-3.5991,-3.6749,-3.7487,-3.8057,-3.8894,-3.9682,-4.031,-4.0716,-4.0916,-4.073,-4.0055,-3.9414,-3.8939,-3.8747,-3.8368,-3.7667,-3.7897,-3.773,-3.6866,-3.7302,-3.7451,-3.7192,-3.7685,-3.8238,-3.8791,-3.8815,-3.888,-3.9106,-3.8618,-3.7919,-3.7023,-3.6166,-3.5024,-3.3582,-3.2618,-3.2065,-3.1787,-3.1121,-3.082,-3.082,-3.082,-3.1189,-3.1845,-3.2113,-3.2628,-3.3208,-3.3208,-3.3614,-3.4153,-3.4412,-3.4758,-3.5047,-3.5312,-3.5423,-3.5423,-3.5423,-3.5213,-3.4934,-3.4601,-3.4332,-3.3899,-3.3106,-3.1623,-3.0135,-2.9295,-2.891,-2.8644,-2.8398,-2.7862,-2.726,-2.6708,-2.6118,-2.5531,-2.4911,-2.4041,-2.3119,-2.2222,-2.1603,-2.0974,-2.0392,-2.004,-1.9693,-1.9325,-1.9325,-1.9573,-2.018,-1.9937,-2.0002,-2.0569,-2.0297,-2.0106,-2.0106,-1.9775,-2.0225,-2.145,-2.1859,-2.2678,-2.4027,-2.4706,-2.5584,-2.6733,-2.7384,-2.8701,-3.3382,-3.3501,-3.3739,-3.4291,0.0,0.0,0.0,-3.5608,0.0,-3.6501,-3.7021,-3.7398,-3.7699,-3.8846,-3.9754,-3.994,-4.0709,-4.1014,-4.0196,-3.9489,-3.8621,-3.7568,-3.7295,-3.6946,-3.6172,-3.6609,-3.6715,-3.6257,-3.6553,-3.691,-3.7168,-3.7336,-3.7778,-3.8493,-3.8505,-3.8577,-3.8616,-3.8298,-3.7863,-3.7378,-3.6781,-3.5774,-3.4579,-3.3593,-3.313,-3.3027,-3.2389,-3.216,-3.216,-3.2389,-3.2628,-3.281,-3.3332,-3.3681,-3.3907,-3.43,-3.459,-3.4758,-3.5035,-3.5202,-3.5312,-3.5368,-3.5423,-3.5423,-3.5423,-3.5323,-3.5235,-3.5146,-3.5102,-3.4825,-3.4098,-3.3312,-3.2404,-3.085,-2.9894,-2.9333,-2.9237,-2.8751,-2.8228,-2.7857,-2.7288,-2.67,-2.6143,-2.5133,-2.4167,-2.3496,-2.2498,-2.1596,-2.101,-2.0838,-2.078,-2.0658,-2.0851,-2.1151,-2.1505,-2.1512,-2.1629,-2.1957,-2.1481,-2.0856,-2.0106,-2.0227,-2.0683,-2.145,-2.1859,-2.2545,-2.3611,-2.4292,-2.5112,-2.5928,-2.6926,-2.8307,-3.3889,-3.42,0.0,-3.5139,-3.5296,-3.5533,-3.649,-3.6358,-3.6245,-3.6954,-3.7264,-3.7457,-3.7701,-3.8849,-3.9816,-3.9816,-4.0553,-4.0746,-3.9676,-3.887,-3.7906,-3.6698,-3.6145,-3.5734,-3.539,-3.5542,-3.5576,-3.5538,-3.5847,-3.6281,-3.6708,-3.6925,-3.7391,-3.8237,-3.8249,-3.8359,-3.8579,-3.8409,-3.8157,-3.7732,-3.74,-3.6754,-3.5797,-3.4769,-3.4267,-3.411,-3.3639,-3.3413,-3.3413,-3.3639,-3.3762,-3.3952,-3.4311,-3.4534,-3.4646,-3.5124,-3.5412,-3.5577,-3.584,-3.6004,-3.6059,-3.6059,-3.6059,-3.6059,-3.6059,-3.6082,-3.6039,-3.5961,-3.5852,-3.5608,-3.5031,-3.4535,-3.3714,-3.1891,-3.0863,-3.0296,-2.9962,-2.9554,-2.9089,-2.8704,-2.8247,-2.7783,-2.733,-2.6299,-2.5267,-2.4723,-2.3608,-2.2603,-2.1979,-2.1923,-2.1968,-2.2162,-2.2351,-2.2604,-2.3074,-2.3006,-2.3015,-2.3216,-2.2668,-2.2041,-2.1299,-2.0856,-2.0876,-2.1522,-2.1727,-2.2345,-2.3406,-2.402,-2.4774,-2.5599,-2.6532,-2.7971,-3.4511,-3.5124,-3.5747,-3.605,-3.6144,-3.6309,-3.6713,-3.7097,-3.7341,-3.7341,-3.7495,-3.7677,-3.7887,-3.897,-3.979,-3.9808,-4.0291,-4.0306,-3.9182,-3.8242,-3.7228,-3.6179,-3.5194,-3.4723,-3.495,-3.4607,-3.4485,-3.4727,-3.5244,-3.5668,-3.5964,-3.6488,-3.715,-3.7944,-3.7956,-3.8202,-3.8693,-3.8693,-3.8457,-3.8019,-3.8019,-3.7725,-3.7185,-3.6036,-3.5389,-3.5091,-3.478,-3.4647,-3.4647,-3.4647,-3.4836,-3.5091,-3.5146,-3.5312,-3.5522,-3.5817,-3.6091,-3.6386,-3.6704,-3.6986,-3.716,-3.7261,-3.7183,-3.7148,-3.7148,-3.716,-3.704,-3.6831,-3.6538,-3.632,-3.597,-3.538,-3.4439,-3.2752,-3.1984,-3.1433,-3.0757,-3.0329,-2.9931,-2.9333,-2.9006,-2.8737,-2.8467,-2.7434,-2.6418,-2.5789,-2.4778,-2.384,-2.3279,-2.3231,-2.3359,-2.3769,-2.3833,-2.4114,-2.4703,-2.4482,-2.4328,-2.434,-2.4069,-2.3711,-2.3337,-2.1712,-2.1095,-2.1648,-2.1687,-2.2305,-2.3475,-2.3823,-2.457,-2.5532,-2.6331,-2.7633,-3.5102,-3.5429,0.0,-3.6611,-3.7249,-3.7728,-3.7647,-3.7715,-3.7739,-3.7586,-3.7701,-3.7973,-3.8292,-3.914,-3.9774,-3.9714,-4.028,-4.0177,-3.8751,-3.7688,-3.6532,-3.5102,-3.4426,-3.3888,-3.335,-3.3981,-3.4327,-3.4198,-3.4848,-3.5478,-3.5989,-3.6333,-3.6837,-3.7642,-3.7666,-3.7716,-3.784,-3.784,-3.7898,-3.7995,-3.7995,-3.8059,-3.8092,-3.6958,-3.6266,-3.6004,-3.5938,-3.5927,-3.5927,-3.5927,-3.5938,-3.6059,-3.6277,-3.6375,-3.6429,-3.6688,-3.6862,-3.6975,-3.7493,-3.7676,-3.7801,-3.8213,-3.806,-3.7731,-3.7731,-3.7406,-3.7101,-3.7024,-3.697,-3.6916,-3.685,-3.6565,-3.6064,-3.5324,-3.3795,-3.2496,-3.2334,-3.1603,-3.0795,-3.0317,-3.0089,-2.9837,-2.9275,-2.8471,-2.7394,-2.5898,-2.5459,-2.5232,-2.4924,-2.491,-2.5045,-2.5466,-2.5712,-2.5957,-2.6058,-2.6036,-2.5984,-2.6075,-2.6023,-2.5734,-2.5109,-2.3479,-2.2714,-2.3086,-2.3074,-2.3313,-2.3891,-2.4231,-2.4638,-2.518,-2.5861,-2.7228,-3.5625,0.0,0.0,-3.7279,-3.7835,-3.8165,-3.8066,-3.7967,-3.794,-3.8136,-3.8169,-3.8245,-3.8443,-3.927,-3.989,-3.9732,-3.9968,-3.9674,-3.826,-3.7356,-3.6183,-3.4481,-3.3853,-3.3365,-3.2828,-3.3431,-3.3965,-3.4172,-3.4823,-3.5442,-3.5977,-3.6135,-3.6589,-3.7368,-3.743,-3.7505,-3.778,-3.778,-3.7817,-3.7813,-3.7813,-3.7931,-3.82,-3.7601,-3.7239,-3.7131,-3.7131,-3.7131,-3.7143,-3.739,-3.7496,-3.7519,-3.793,-3.8079,-3.8134,-3.843,-3.8539,-3.8574,-3.9001,-3.9152,-3.92,-3.9465,-3.9369,-3.9152,-3.9152,-3.8791,-3.8329,-3.8329,-3.803,-3.7732,-3.7726,-3.7447,-3.7084,-3.6826,-3.5396,-3.3911,-3.3294,-3.262,-3.1984,-3.1435,-3.1054,-3.0672,-3.0297,-2.9363,-2.8208,-2.6718,-2.6729,-2.67,-2.6285,-2.6424,-2.669,-2.7129,-2.7301,-2.7505,-2.7692,-2.7884,-2.7913,-2.7791,-2.8026,-2.7852,-2.7165,-2.6239,-2.5332,-2.4291,-2.3937,-2.3919,-2.4231,-2.4435,-2.4774,-2.5322,-2.5869,-2.71,-3.6081,0.0,-3.738,-3.7815,-3.8028,-3.8179,-3.8202,-3.8028,-3.8064,-3.8629,-3.8617,-3.8571,-3.876,-3.9455,-3.997,-3.9803,-3.9637,-3.9132,-3.794,-3.7153,-3.6077,-3.4375,-3.3623,-3.3154,-3.2873,-3.3116,-3.3589,-3.4297,-3.4928,-3.551,-3.6051,-3.6158,-3.6488,-3.7167,-3.718,-3.7407,-3.7811,-3.7811,-3.7776,-3.7642,-3.7693,-3.7829,-3.8009,-3.8136,-3.8166,-3.8145,-3.8145,-3.8145,-3.8181,-3.8724,-3.8942,-3.899,-3.9576,-3.9782,-3.9782,-4.0081,-4.0148,-4.0215,-4.0507,-4.0653,-4.0665,-4.0752,-4.0715,-4.0653,-4.0653,-4.0284,-3.98,-3.9713,-3.9186,-3.8607,-3.8489,-3.8111,-3.7809,-3.7792,-3.6921,-3.5729,-3.436,-3.3759,-3.3242,-3.2678,-3.1951,-3.1333,-3.117,-3.0151,-2.9046,-2.7958,-2.8157,-2.8214,-2.7781,-2.7995,-2.8357,-2.8756,-2.8867,-2.9111,-2.9465,-2.9925,-3.0027,-2.9827,-3.0153,-3.0125,-2.9502,-2.9353,-2.8261,-2.6125,-2.5158,-2.4707,-2.4902,-2.4841,-2.5119,-2.5667,-2.6131,-2.7163,-3.6464,0.0,-3.738,0.0,-3.7929,-3.8005,-3.8165,-3.8028,-3.804,-3.8449,-3.8514,-3.8763,-3.971,-3.9815,-3.9788,-3.9962,-3.959,-3.9042,-3.823,-3.7312,-3.6373,-3.5478,-3.425,-3.3365,-3.3154,-3.3183,-3.344,-3.4026,-3.4926,-3.5728,-3.6285,-3.6734,-3.7007,-3.713,-3.713,-3.7168,-3.7245,-3.7245,-3.7441,-3.7878,-3.8132,-3.8213,-3.8041,-3.8567,-3.8772,-3.8684,-3.8684,-3.8684,-3.872,-3.9337,-3.957,-3.9619,-4.0188,-4.0384,-4.0396,-4.0451,-4.0451,-4.0525,-4.1016,-4.1188,-4.1262,-4.1729,-4.1569,-4.1188,-4.1188,-4.085,-4.0308,-3.9812,-3.9627,-3.9414,-3.8871,-3.8696,-3.8643,-3.8643,-3.853,-3.7932,-3.6349,-3.5102,-3.4224,-3.4116,-3.3079,-3.2015,-3.1333,-3.0858,-3.0297,-2.9591,-2.9549,-2.9629,-2.9762,-2.985,-3.0044,-3.0461,-3.0839,-3.121,-3.1564,-3.2027,-3.2394,-3.2634,-3.2789,-3.2656,-3.2285,-3.1755,-3.1001,-3.008,-2.7867,-2.6663,-2.6391,-2.6071,-2.5936,-2.6078,-2.6699,-2.7526,-3.647,-3.6889,-3.7187,0.0,-3.7663,-3.7777,-3.7839,-3.7725,-3.7819,-3.8698,-3.8682,-3.8761,-3.9578,-3.9943,-4.0008,-3.9648,-3.9336,-3.8787,-3.7952,-3.7318,-3.6529,-3.552,-3.4828,-3.4156,-3.3427,-3.3637,-3.3876,-3.4083,-3.4808,-3.5406,-3.5841,-3.6036,-3.6127,-3.6127,-3.648,-3.6634,-3.6634,-3.6954,-3.7236,-3.7446,-3.7913,-3.8036,-3.7952,-3.8585,-3.8906,-3.9092,-3.9392,-3.962,-3.9838,-4.0719,-4.1084,-4.116,-4.2082,-4.2423,-4.2423,-4.2423,-4.2423,-4.2461,-4.2657,-4.2758,-4.2796,-4.3035,-4.2823,-4.2499,-4.269,-4.2246,-4.1689,-4.1559,-4.1097,-4.0583,-4.0347,-3.9758,-3.9322,-3.9322,-3.9062,-3.8622,-3.7919,-3.6956,-3.6014,-3.5247,-3.4259,-3.3334,-3.2864,-3.2416,-3.1926,-3.128,-3.14,-3.1492,-3.1288,-3.1428,-3.1751,-3.2196,-3.2428,-3.2709,-3.314,-3.3807,-3.4244,-3.4364,-3.4594,-3.4707,-3.4641,-3.3796,-3.2998,-3.2383,-2.9573,-2.7907,-2.7525,-2.68,-2.6532,-2.6749,-2.7017,-2.7565,-3.6218,0.0,-3.7217,-3.7413,-3.7735,-3.799,-3.7857,-3.7646,-3.7855,-3.8975,-3.882,-3.8727,-3.9408,-3.9935,-4.0037,-3.9394,-3.9024,-3.8517,-3.7736,-3.7353,-3.6815,-3.578,-3.5558,-3.5157,-3.4387,-3.4424,-3.4508,-3.4671,-3.4957,-3.532,-3.5651,-3.5696,-3.574,-3.574,-3.6198,-3.6418,-3.6373,-3.6696,-3.6888,-3.6996,-3.7373,-3.7595,-3.7714,-3.829,-3.883,-3.9306,-3.9778,-4.0147,-4.0581,-4.1555,-4.2041,-4.2285,-4.3284,-4.3759,-4.3899,-4.3899,-4.3899,-4.3899,-4.3899,-4.3899,-4.3899,-4.3899,-4.3708,-4.3585,-4.3832,-4.344,-4.2961,-4.3013,-4.2413,-4.1762,-4.1454,-4.0747,-4.0067,-3.9928,-3.9581,-3.9117,-3.8721,-3.8182,-3.7382,-3.6046,-3.5314,-3.4776,-3.438,-3.3933,-3.3436,-3.2954,-3.3095,-3.3099,-3.2682,-3.2989,-3.3398,-3.3744,-3.3995,-3.4337,-3.4861,-3.5544,-3.6043,-3.6271,-3.6481,-3.6701,-3.6928,-3.5872,-3.5032,-3.4447,-3.179,-2.9856,-2.8699,-2.7783,-2.7459,-2.76,-2.7713,-2.7979,-3.5683,-3.6643,0.0,-3.781,-3.8488,-3.8987,-3.856,-3.83,-3.8365,-3.906,-3.882,-3.8811,-3.9777,-3.9834,-3.9642,-3.9349,-3.8904,-3.8453,-3.7952,-3.7631,-3.7353,-3.7023,-3.655,-3.6295,-3.6528,-3.5502,-3.5176,-3.5931,-3.5729,-3.5775,-3.6328,-3.6615,-3.6731,-3.6731,-3.6758,-3.6698,-3.6481,-3.6275,-3.6298,-3.6619,-3.6645,-3.6851,-3.7172,-3.7689,-3.8409,-3.923,-3.9477,-3.9941,-4.0542,-4.1093,-4.1696,-4.2234,-4.2836,-4.3413,-4.3899,-4.3899,-4.3899,-4.3899,-4.3899,-4.3899,-4.3899,-4.3899,-4.3899,-4.3899,-4.3899,-4.3887,-4.3733,-4.3169,-4.2977,-4.2682,-4.1645,-4.1363,-4.117,-4.0581,-4.0453,-3.9994,-3.8483,-3.8091,-3.7753,-3.6558,-3.6324,-3.6069,-3.527,-3.4884,-3.4678,-3.4614,-3.4314,-3.412,-3.3989,-3.4385,-3.4676,-3.4697,-3.5526,-3.6313,-3.6986,-3.7498,-3.8094,-3.8852,-3.8642,-3.8702,-3.9221,-3.8269,-3.7361,-3.6658,-3.5531,-3.3411,-3.0186,-2.9487,-2.9036,-2.8716,-2.904,-2.9242,-3.6129,0.0,0.0,-3.7979,-3.8406,-3.8723,-3.8539,-3.8564,-3.8788,-3.9242,-3.9075,-3.9071,-3.9697,-3.9744,-3.951,-3.8962,-3.8692,-3.8376,-3.7736,-3.7723,-3.7677,-3.74,-3.7285,-3.7286,-3.7337,-3.6586,-3.6217,-3.6427,-3.5961,-3.5761,-3.5935,-3.6031,-3.6018,-3.5907,-3.6295,-3.6543,-3.6688,-3.6471,-3.6402,-3.6524,-3.6771,-3.6923,-3.7053,-3.765,-3.8254,-3.8921,-3.9397,-4.014,-4.1062,-4.1619,-4.219,-4.2814,-4.3531,-4.4225,-4.4761,-4.491,-4.4856,-4.4761,-4.4761,-4.4585,-4.4422,-4.4422,-4.4313,-4.4216,-4.4367,-4.4313,-4.4165,-4.4108,-4.3838,-4.3515,-4.3099,-4.2359,-4.1467,-4.0683,-4.0503,-4.0325,-3.9778,-3.9345,-3.8922,-3.8251,-3.7814,-3.7409,-3.7047,-3.6611,-3.625,-3.6029,-3.5731,-3.5585,-3.5703,-3.569,-3.5931,-3.654,-3.6927,-3.7377,-3.8163,-3.8885,-3.9511,-4.0006,-4.0231,-4.0571,-4.1085,-3.9858,-3.901,-3.8594,-3.7497,-3.5505,-3.2468,-3.1283,-3.0566,-3.0228,-2.9834,-2.9674,-3.6244,-3.7097,-3.7869,-3.8209,-3.8656,-3.8963,-3.8755,-3.8839,-3.9033,-3.927,-3.9098,-3.9119,-3.9634,-3.9656,-3.9377,-3.8692,-3.8679,-3.8498,-3.7815,-3.7952,-3.8089,-3.7985,-3.8096,-3.8174,-3.8118,-3.7583,-3.7201,-3.7058,-3.6494,-3.6151,-3.6151,-3.6071,-3.5965,-3.5723,-3.5967,-3.6192,-3.6442,-3.6117,-3.6009,-3.6207,-3.6372,-3.6632,-3.7024,-3.7416,-3.8004,-3.8736,-3.9351,-4.0148,-4.1063,-4.1738,-4.2366,-4.2956,-4.382,-4.4507,-4.5076,-4.5475,-4.5502,-4.5341,-4.5341,-4.5167,-4.4992,-4.4992,-4.4897,-4.4789,-4.4951,-4.4897,-4.4789,-4.4951,-4.4729,-4.4387,-4.4124,-4.3114,-4.2061,-4.1466,-4.1324,-4.1286,-4.1196,-4.0452,-3.9724,-3.9376,-3.8856,-3.8447,-3.8384,-3.7867,-3.7367,-3.718,-3.6948,-3.6864,-3.6878,-3.6929,-3.7223,-3.789,-3.8105,-3.8528,-3.9325,-4.0038,-4.0625,-4.1238,-4.1565,-4.1973,-4.2475,-4.1415,-4.0704,-4.0321,-3.9396,-3.7747,-3.5392,-3.3538,-3.2294,-3.1715,-3.1112,-3.0762,0.0,0.0,0.0,-3.8393,-3.9221,-3.9844,-3.9264,-3.9126,-3.9126,-3.9126,-3.8912,-3.8931,-3.959,-3.9496,-3.9172,-3.8692,-3.8742,-3.8729,-3.8304,-3.8453,-3.8679,-3.8908,-3.8953,-3.8976,-3.9026,-3.8504,-3.8061,-3.7948,-3.7369,-3.7017,-3.7017,-3.6822,-3.6601,-3.6431,-3.5978,-3.571,-3.571,-3.5127,-3.5088,-3.56,-3.5372,-3.5887,-3.6972,-3.6998,-3.7625,-3.8723,-3.9337,-3.9913,-4.0448,-4.1347,-4.2066,-4.266,-4.3508,-4.4197,-4.4809,-4.5382,-4.5595,-4.5595,-4.5595,-4.5595,-4.5595,-4.5595,-4.5595,-4.5595,-4.5595,-4.5595,-4.5595,-4.5595,-4.5595,-4.5409,-4.4534,-4.3677,-4.3049,-4.3036,-4.3023,-4.2919,-4.2683,-4.135,-4.007,-3.9761,-3.9503,-3.9308,-3.9121,-3.8522,-3.8039,-3.8063,-3.7958,-3.7864,-3.7612,-3.8135,-3.8574,-3.862,-3.908,-3.9716,-4.0522,-4.0867,-4.148,-4.2576,-4.2659,-4.282,-4.3302,-4.3012,-4.2506,-4.187,-4.1217,-4.0181,-3.8747,-3.6173,-3.4322,-3.3244,-3.2902,-3.2519,-3.654,0.0,0.0,0.0,0.0,0.0,-3.9264,-3.9486,-3.9717,-3.9557,-3.9483,-3.9407,-3.9424,-3.9349,-3.9203,-3.8877,-3.8863,-3.8819,-3.8544,-3.8859,-3.9203,-3.9384,-3.9692,-3.9935,-4.0011,-3.9403,-3.8982,-3.8763,-3.8054,-3.7658,-3.7658,-3.7173,-3.6875,-3.6836,-3.6298,-3.5992,-3.5992,-3.5331,-3.5083,-3.5243,-3.526,-3.5665,-3.6358,-3.6802,-3.7416,-3.8187,-3.9181,-3.969,-3.9913,-4.1189,-4.2066,-4.271,-4.3777,-4.4506,-4.5109,-4.5924,-4.6086,-4.5914,-4.5914,-4.5755,-4.5595,-4.5595,-4.5595,-4.5595,-4.5595,-4.5595,-4.5595,-4.5595,-4.5595,-4.5462,-4.4744,-4.4256,-4.3831,-4.348,-4.3193,-4.2983,-4.2892,-4.2385,-4.1463,-3.9969,-4.0105,-4.0249,-3.9622,-3.922,-3.8911,-3.8878,-3.8683,-3.8716,-3.9199,-3.9226,-3.9382,-3.9744,-4.0247,-4.0739,-4.12,-4.2017,-4.2744,-4.3201,-4.3595,-4.3881,-4.4025,-4.3701,-4.3314,-4.2874,-4.2241,-4.1335,-4.0181,-3.766,-3.5835,-3.4737,-3.3578,-3.2717,-3.6575,-3.7325,-3.7952,-3.8226,0.0,0.0,-3.9114,-3.9322,-3.9557,-3.954,-3.9554,-3.9452,-3.9203,-3.9203,-3.9203,-3.8953,-3.91,-3.9158,-3.8904,-3.9305,-3.9689,-4.0012,-4.0445,-4.0618,-4.0328,-4.0003,-3.9594,-3.9002,-3.8556,-3.8072,-3.7676,-3.6878,-3.6434,-3.6334,-3.5787,-3.5535,-3.5689,-3.5036,-3.4751,-3.4825,-3.4805,-3.5137,-3.5828,-3.6178,-3.6832,-3.7827,-3.896,-3.9503,-3.9703,-4.1123,-4.1944,-4.2504,-4.3785,-4.4576,-4.5045,-4.6105,-4.6364,-4.6192,-4.6192,-4.6086,-4.5981,-4.5981,-4.5981,-4.5981,-4.5981,-4.5981,-4.5981,-4.5981,-4.5861,-4.5675,-4.5314,-4.5063,-4.4755,-4.4322,-4.4058,-4.3885,-4.3755,-4.3569,-4.303,-4.1595,-4.1286,-4.117,-4.093,-4.0377,-3.9934,-3.9935,-3.9855,-3.9946,-4.0214,-4.023,-4.0263,-4.0385,-4.0881,-4.1401,-4.1817,-4.2698,-4.3442,-4.378,-4.4105,-4.4381,-4.4609,-4.4194,-4.3983,-4.3821,-4.2979,-4.1859,-4.0582,-3.8792,-3.7141,-3.5646,-3.4144,-3.3242,-3.6546,-3.7254,-3.7951,-3.8044,-3.8378,0.0,-3.8894,-3.8957,-3.9034,-3.9172,-3.9247,-3.9158,-3.8908,-3.9056,-3.9203,-3.8953,-3.9349,-3.9598,-3.9394,-3.9791,-4.0257,-4.0702,-4.1113,-4.1058,-4.0303,-4.031,-3.9933,-3.8959,-3.876,-3.8267,-3.7266,-3.6295,-3.5638,-3.5447,-3.4882,-3.4758,-3.5102,-3.4472,-3.4257,-3.4397,-3.416,-3.4555,-3.5398,-3.5398,-3.6148,-3.7524,-3.8709,-3.9358,-3.9642,-4.1074,-4.1845,-4.2248,-4.3738,-4.4476,-4.4854,-4.6035,-4.6521,-4.6521,-4.6521,-4.6574,-4.6574,-4.6574,-4.6574,-4.6574,-4.6574,-4.6574,-4.6574,-4.6574,-4.635,-4.6126,-4.6126,-4.5861,-4.5595,-4.5341,-4.5234,-4.5126,-4.4843,-4.4735,-4.45,-4.3834,-4.2756,-4.2083,-4.2475,-4.1708,-4.1031,-4.1026,-4.1188,-4.1256,-4.0945,-4.11,-4.1151,-4.0864,-4.134,-4.1864,-4.2388,-4.3131,-4.3818,-4.4261,-4.4345,-4.4585,-4.5053,-4.4681,-4.4544,-4.4734,-4.354,-4.2141,-4.0551,-3.9636,-3.8083,-3.6084,-3.4706,-3.3946,-3.7492,-3.7835,-3.8127,-3.8768,-3.9151,0.0,-3.9078,-3.9341,-3.9468,-3.8876,-3.889,-3.8922,-3.8724,-3.8832,-3.8953,-3.8908,-3.9349,-3.97,-3.9642,-4.0154,-4.0744,-4.1227,-4.1188,-4.111,-4.0938,-4.0467,-3.9906,-3.9324,-3.8614,-3.7786,-3.6798,-3.623,-3.5856,-3.5638,-3.4943,-3.4758,-3.5102,-3.43,-3.4027,-3.4397,-3.3979,-3.4371,-3.5398,-3.5398,-3.6045,-3.7266,-3.86,-3.9249,-3.9388,-4.0778,-4.1647,-4.2248,-4.3738,-4.4476,-4.4854,-4.6035,-4.6626,-4.6835,-4.6835,-4.6939,-4.7146,-4.7146,-4.7146,-4.7146,-4.7146,-4.7146,-4.7146,-4.7146,-4.6939,-4.6717,-4.6717,-4.635,-4.5914,-4.5861,-4.5502,-4.518,-4.5126,-4.4897,-4.4683,-4.4513,-4.3747,-4.3102,-4.2992,-4.2207,-4.1695,-4.184,-4.1741,-4.1589,-4.1444,-4.1476,-4.1559,-4.1715,-4.2231,-4.2748,-4.3204,-4.3805,-4.4177,-4.4273,-4.4693,-4.4969,-4.5128,-4.5378,-4.5606,-4.5638,-4.4219,-4.2989,-4.2136,-3.9908,-3.815,-3.6876,-3.6006,-3.4912,-3.7468,-3.7817,-3.815,-3.8835,-3.9188,0.0,0.0,-3.9707,-3.9674,-3.9135,-3.9093,-3.8999,-3.8493,-3.8652,-3.8863,-3.8756,-3.9349,-3.9848,-3.9848,-4.043,-4.1015,-4.1507,-4.1482,-4.1322,-4.1116,-4.0576,-3.9883,-3.8975,-3.8041,-3.7142,-3.63,-3.5441,-3.4867,-3.4654,-3.3899,-3.3711,-3.4172,-3.3542,-3.3426,-3.3738,-3.3751,-3.4073,-3.4738,-3.5105,-3.5974,-3.7191,-3.8332,-3.9113,-3.9679,-4.0696,-4.1668,-4.2675,-4.3707,-4.4512,-4.5248,-4.6299,-4.6783,-4.6939,-4.7043,-4.7198,-4.7301,-4.7301,-4.7301,-4.7301,-4.7301,-4.7301,-4.7301,-4.7301,-4.7198,-4.7095,-4.6939,-4.6665,-4.6389,-4.6073,-4.5808,-4.5555,-4.5234,-4.5072,-4.4897,-4.4722,-4.4392,-4.3981,-4.3736,-4.3112,-4.2616,-4.2705,-4.2492,-4.227,-4.2081,-4.2193,-4.2245,-4.221,-4.2782,-4.3228,-4.3493,-4.3961,-4.4393,-4.4657,-4.4921,-4.5432,-4.609,-4.5986,-4.5794,-4.5665,-4.4889,-4.3974,-4.2879,-4.1187,-3.9555,-3.7883,-3.6954,-3.5938,-3.7437,-3.7828,-3.8329,-3.896,-3.9267,-3.9547,0.0,0.0,0.0,-3.9548,-3.9462,-3.923,-3.8431,-3.8677,-3.8908,-3.8661,-3.9394,-3.9996,-3.9996,-4.0631,-4.1226,-4.1646,-4.1711,-4.1558,-4.1116,-4.0569,-3.9709,-3.8482,-3.75,-3.6655,-3.5937,-3.466,-3.3813,-3.3556,-3.2753,-3.2587,-3.3092,-3.2685,-3.2664,-3.3038,-3.3477,-3.3816,-3.4023,-3.4873,-3.5926,-3.7163,-3.8086,-3.9025,-3.9995,-4.078,-4.1909,-4.3211,-4.3728,-4.4584,-4.572,-4.6564,-4.6939,-4.7043,-4.7301,-4.7405,-4.7456,-4.7456,-4.7507,-4.7545,-4.7596,-4.7545,-4.7545,-4.7545,-4.7456,-4.7353,-4.7095,-4.6991,-4.6783,-4.6284,-4.606,-4.5861,-4.5448,-4.5287,-4.5126,-4.4843,-4.4722,-4.4626,-4.4422,-4.3903,-4.3572,-4.3517,-4.3252,-4.2955,-4.2731,-4.2856,-4.2925,-4.2805,-4.33,-4.3614,-4.3722,-4.4094,-4.4575,-4.5167,-4.53,-4.5972,-4.7252,-4.6662,-4.617,-4.5911,-4.5686,-4.4895,-4.3579,-4.2824,-4.121,-3.8869,-3.7816,-3.6886,-3.85,-3.8656,-3.8968,-4.0045,-4.0312,-4.0372,-4.0337,0.0,-4.0478,-3.9708,0.0,-3.9604,-3.8804,0.0,0.0,-3.8682,-3.9394,-3.9996,-3.9996,-4.0787,-4.1423,-4.1646,-4.1711,-4.1558,-4.1116,-4.0151,-3.9215,-3.8452,-3.762,-3.6808,-3.5937,-3.4748,-3.3854,-3.3353,-3.2561,-3.2326,-3.2673,-3.2087,-3.2129,-3.2766,-3.3106,-3.3527,-3.4047,-3.5067,-3.6034,-3.6945,-3.8179,-3.9132,-3.9848,-4.1131,-4.2524,-4.3822,-4.3888,-4.4584,-4.572,-4.6564,-4.7043,-4.7301,-4.7559,-4.7815,-4.8018,-4.8018,-4.8156,-4.8395,-4.8645,-4.8545,-4.8344,-4.8344,-4.8004,-4.7661,-4.761,-4.725,-4.6887,-4.6835,-4.6389,-4.5967,-4.5914,-4.5555,-4.5193,-4.5126,-4.4897,-4.4668,-4.4681,-4.4409,-4.4094,-4.3887,-4.3585,-4.3361,-4.3323,-4.3333,-4.3556,-4.42,-4.4097,-4.4135,-4.4633,-4.4434,-4.47,-4.5594,-4.6017,-4.6667,-4.7715,-4.7755,-4.7712,-4.7712,-4.6663,-4.5888,-4.5435,-4.4244,-4.2255,-3.9583,-3.8559,-3.7703,-3.9096,-3.9034,-3.905,-4.0249,-4.0504,-4.0592,-4.0848,-4.0995,-4.0887,-4.02,0.0,0.0,0.0,0.0,0.0,0.0,-3.9762,-4.0219,-4.0051,-4.083,-4.1465,-4.1702,-4.1604,-4.1268,-4.0596,-4.0174,-3.9471,-3.8305,-3.7851,-3.6998,-3.5692,-3.4805,-3.3896,-3.3002,-3.2504,-3.2258,-3.2262,-3.1905,-3.2005,-3.2532,-3.2865,-3.3317,-3.3859,-3.5054,-3.6174,-3.7171,-3.8128,-3.9348,-4.0721,-4.1505,-4.2786,-4.4395,-4.4756,-4.5508,-4.6441,-4.6947,-4.7301,-4.7559,-4.7815,-4.812,-4.8358,-4.8509,-4.8915,-4.9315,-4.9481,-4.9416,-4.9315,-4.9315,-4.8742,-4.8142,-4.799,-4.7647,-4.7301,-4.6991,-4.6717,-4.6455,-4.6073,-4.5808,-4.5542,-4.5234,-4.5072,-4.4897,-4.4722,-4.4463,-4.4258,-4.4161,-4.4032,-4.3934,-4.3904,-4.4161,-4.4429,-4.4757,-4.4778,-4.4829,-4.5061,-4.4963,-4.5317,-4.6359,-4.7396,-4.805,-4.8284,-4.8506,-4.842,-4.8026,-4.7479,-4.6819,-4.6007,-4.5112,-4.3757,-4.2133,-4.0528,-3.9199,-3.9528,-3.9357,-3.9392,-4.0275,-4.0504,-4.0656,-4.1161,-4.1311,-4.1193,-4.0749,-4.0657,0.0,0.0,0.0,-4.0029,-3.9681,0.0,-4.0353,-4.0269,-4.08,-4.1297,-4.1591,-4.1497,-4.1179,-4.0586,-4.0397,-3.9824,-3.8661,-3.8132,-3.7313,-3.5988,-3.5161,-3.4239,-3.3142,-3.2686,-3.228,-3.194,-3.1816,-3.1879,-3.2194,-3.2746,-3.3304,-3.3922,-3.5155,-3.6374,-3.759,-3.8472,-3.9838,-4.1466,-4.2126,-4.3297,-4.4742,-4.5502,-4.6321,-4.7043,-4.7301,-4.7507,-4.7764,-4.812,-4.8409,-4.8674,-4.9159,-4.9581,-5.0061,-5.0284,-5.0327,-5.029,-5.029,-4.9601,-4.8851,-4.8649,-4.8218,-4.7699,-4.7339,-4.7146,-4.6887,-4.6337,-4.6179,-4.5967,-4.5502,-4.5287,-4.5126,-4.4897,-4.4572,-4.4367,-4.4313,-4.4361,-4.4433,-4.4529,-4.4882,-4.5179,-4.5328,-4.54,-4.5453,-4.5453,-4.5331,-4.5785,-4.6993,-4.8263,-4.8988,-4.8902,-4.902,-4.8812,-4.817,-4.8026,-4.7503,-4.6406,-4.5931,-4.5131,-4.4015,-4.2048,-4.0517,-3.968,-3.9841,-4.014,-4.044,-4.0504,-4.0656,-4.1161,-4.1311,-4.1311,-4.1298,-4.1285,-4.1102,-4.0501,-4.0591,-4.0663,-4.0319,-4.0226,0.0,0.0,-4.0806,-4.0873,-4.1354,-4.1415,-4.1452,-4.1632,-4.0704,-4.0025,-3.9778,-3.8576,-3.7724,-3.7244,-3.6061,-3.4994,-3.418,-3.3156,-3.2333,-3.1829,-3.1666,-3.1645,-3.1725,-3.2782,-3.368,-3.4396,-3.5491,-3.6738,-3.8155,-3.9464,-4.0568,-4.153,-4.3152,-4.419,-4.4795,-4.5961,-4.6742,-4.7301,-4.761,-4.7712,-4.7764,-4.8294,-4.8645,-4.9045,-4.9975,-5.0291,-5.0421,-5.1295,-5.1367,-5.1163,-5.1163,-5.0513,-4.9852,-4.9852,-4.8963,-4.8078,-4.8078,-4.7633,-4.7198,-4.6939,-4.6599,-4.6323,-4.6007,-4.5542,-4.518,-4.5193,-4.491,-4.4626,-4.4367,-4.4528,-4.4755,-4.5062,-4.5296,-4.5686,-4.6225,-4.5987,-4.5757,-4.5757,-4.5514,-4.5909,-4.737,-4.8296,-4.9038,-4.9577,-4.9267,-4.8955,-4.8588,-4.817,-4.7684,-4.6953,-4.6941,-4.6135,-4.4509,-4.248,-4.1287,-4.0923,-4.0691,-4.0463,-4.0899,-4.0926,-4.0846,-4.1211,-4.1311,-4.1311,-4.1311,-4.1311,-4.1259,-4.105,-4.1073,-4.1074,-4.0917,-4.1011,-4.1077,0.0,-4.1038,-4.1255,-4.1535,-4.186,-4.1975,-4.172,-4.1474,-4.0982,-4.0084,-3.9461,-3.8546,-3.717,-3.6305,-3.5245,-3.3842,-3.3278,-3.2564,-3.1625,-3.1821,-3.1942,-3.1961,-3.2864,-3.3779,-3.4681,-3.5793,-3.7136,-3.8672,-3.9662,-4.1127,-4.2862,-4.3755,-4.4824,-4.5921,-4.6673,-4.7325,-4.7838,-4.775,-4.7903,-4.8294,-4.8845,-4.9108,-4.9307,-5.0254,-5.0946,-5.1547,-5.2318,-5.261,-5.2595,-5.2457,-5.1447,-5.0385,-5.022,-4.9381,-4.8545,-4.8179,-4.7976,-4.7633,-4.7043,-4.6821,-4.6612,-4.6126,-4.5861,-4.5595,-4.5234,-4.5126,-4.491,-4.4626,-4.4791,-4.515,-4.5646,-4.5936,-4.6323,-4.687,-4.6802,-4.6742,-4.6742,-4.6783,-4.7068,-4.7745,-4.8397,-4.9012,-4.9577,-4.9461,-4.9267,-4.8955,-4.8576,-4.817,-4.763,-4.7243,-4.6748,-4.6147,-4.4582,-4.3293,-4.1743,-4.1372,-4.1016,-4.1401,-4.117,-4.0997,-4.1261,-4.1311,-4.1311,-4.1311,-4.1311,-4.1311,-4.1311,-4.1311,-4.1343,-4.1488,-4.1504,-4.1403,0.0,-4.1688,-4.2052,-4.195,-4.2152,-4.219,-4.1968,-4.1942,-4.1557,-4.0728,-4.0125,-3.9168,-3.776,-3.6897,-3.5731,-3.4296,-3.3693,-3.29,-3.1944,-3.2117,-3.2359,-3.2536,-3.3243,-3.4194,-3.5404,-3.6367,-3.7729,-3.9371,-4.0486,-4.2017,-4.3685,-4.456,-4.5499,-4.648,-4.7274,-4.7787,-4.8078,-4.799,-4.8294,-4.8845,-4.9157,-4.9355,-4.9647,-5.0763,-5.1516,-5.2163,-5.3143,-5.3561,-5.3663,-5.3524,-5.2609,-5.1545,-5.1048,-5.0212,-4.933,-4.8588,-4.833,-4.8027,-4.7353,-4.7095,-4.6887,-4.6389,-4.6126,-4.5861,-4.5448,-4.5234,-4.5072,-4.4735,-4.4957,-4.5305,-4.593,-4.6225,-4.6616,-4.7141,-4.7205,-4.7205,-4.7205,-4.7359,-4.7577,-4.7767,-4.8346,-4.885,-4.9276,-4.949,-4.9461,-4.9137,-4.889,-4.8498,-4.8026,-4.7576,-4.7232,-4.6965,-4.6155,-4.5149]}]]